[[{"header":{"parameterUnit":"m.s-1","parameterCategory":1,"la1":30.6,"la2":28.766,"lo1":-90.7593,"lo2":-88.6598,"dy":0.0162,"dx":0.0183,"nx":116,"ny":114,"refTime":"2023-07-26T06:00:00:Z","depth":0,"parameterNumber":2,"parameterNumberName":"U-component_of_WINDS"},"data":[0.0,0.0,0.0,0.0,0.0,0.0,0.0,0.0,0.0,0.0,0.0,0.0,0.0,0.0,0.0,0.0,0.0,0.0,0.0,0.0,0.0,0.0,0.0,0.0,0.0,0.0,0.0,0.0,0.0,0.0,0.0,0.0,0.0,0.0,0.0,0.0,0.0,0.0,0.0,0.0,0.0,0.0,0.0,0.0,0.0,0.0,0.0,0.0,0.0,0.0,0.0,0.0,0.0,0.0,0.0,0.0,0.0,0.0,0.0,0.0,0.0,0.0,0.0,0.0,0.0,0.0,0.0,0.0,0.0,0.0,0.0,0.0,0.0,0.0,0.0,0.0,0.0,0.0,0.0,0.0,0.0,0.0,0.0,0.0,0.0,0.0,0.0,0.0,0.0,0.0,0.0,0.0,0.0,0.0,0.0,0.0,0.0,0.0,0.0,0.0,0.0,0.0,0.0,0.0,0.0,0.0,0.0,0.0,0.0,0.0,0.0,0.0,0.0,0.0,0.0,0.0,0.0,0.0,0.0,0.0,0.0,0.0,0.0,0.0,0.0,0.0,0.0,0.0,0.0,0.0,0.0,0.0,0.0,0.0,0.0,0.0,0.0,0.0,0.0,0.0,0.0,0.0,0.0,0.0,0.0,0.0,0.0,0.0,0.0,0.0,0.0,0.0,0.0,0.0,0.0,0.0,0.0,0.0,0.0,0.0,0.0,0.0,0.0,0.0,0.0,0.0,0.0,0.0,0.0,0.0,0.0,0.0,0.0,0.0,0.0,0.0,0.0,0.0,0.0,0.0,0.0,0.0,0.0,0.0,0.0,0.0,0.0,0.0,0.0,0.0,0.0,0.0,0.0,0.0,0.0,0.0,0.0,0.0,0.0,0.0,0.0,0.0,0.0,0.0,0.0,0.0,0.0,0.0,0.0,0.0,0.0,0.0,0.0,0.0,0.0,0.0,0.0,0.0,0.0,0.0,0.0,0.0,0.0,0.0,0.0,0.0,0.0,0.0,0.0,0.0,0.0,0.0,0.0,0.0,0.0,0.0,0.0,0.0,0.0,0.0,0.0,0.0,0.0,0.0,0.0,0.0,0.0,0.0,0.0,0.0,0.0,0.0,0.0,0.0,0.0,0.0,0.0,0.0,0.0,0.0,0.0,0.0,0.0,0.0,0.0,0.0,0.0,0.0,0.0,0.0,0.0,0.0,0.0,0.0,0.0,0.0,0.0,0.0,0.0,0.0,0.0,0.0,0.0,0.0,0.0,0.0,0.0,0.0,0.0,0.0,0.0,0.0,0.0,0.0,0.0,0.0,0.0,0.0,0.0,0.0,0.0,0.0,0.0,0.0,0.0,0.0,0.0,0.0,0.0,0.0,0.0,0.0,0.0,0.0,0.0,0.0,0.0,0.0,0.0,0.0,0.0,0.0,0.0,0.0,0.0,0.0,0.0,0.0,0.0,0.0,0.0,0.0,0.0,0.0,0.0,0.0,0.0,0.0,0.0,0.0,0.0,0.0,0.0,0.0,0.0,0.0,0.0,0.0,0.0,0.0,0.0,0.0,0.0,0.0,0.0,0.0,0.0,0.0,0.0,0.0,0.0,0.0,0.0,0.0,0.0,0.0,0.0,0.0,0.0,0.0,0.0,0.0,0.0,0.0,0.0,0.0,0.0,0.0,0.0,0.0,0.0,0.0,0.0,0.0,0.0,0.0,0.0,0.0,0.0,0.0,0.0,0.0,0.0,0.0,0.0,0.0,0.0,0.0,0.0,0.0,0.0,0.0,0.0,0.0,0.0,0.0,0.0,0.0,0.0,0.0,0.0,0.0,0.0,0.0,0.0,0.0,0.0,0.0,0.0,0.0,0.0,0.0,0.0,0.0,0.0,0.0,0.0,0.0,0.0,0.0,0.0,0.0,0.0,0.0,0.0,0.0,0.0,0.0,0.0,0.0,0.0,0.0,0.0,0.0,0.0,0.0,0.0,0.0,0.0,0.0,0.0,0.0,0.0,0.0,0.0,0.0,0.0,0.0,0.0,0.0,0.0,0.0,0.0,0.0,0.0,0.0,0.0,0.0,0.0,0.0,0.0,0.0,0.0,0.0,0.0,0.0,0.0,0.0,0.0,0.0,0.0,0.0,0.0,0.0,0.0,0.0,0.0,0.0,0.0,0.0,0.0,0.0,0.0,0.0,0.0,0.0,0.0,0.0,0.0,0.0,0.0,0.0,0.0,0.0,0.0,0.0,0.0,0.0,0.0,0.0,0.0,0.0,0.0,0.0,0.0,0.0,0.0,0.0,0.0,0.0,0.0,0.0,0.0,0.0,0.0,0.0,0.0,0.0,0.0,0.0,0.0,0.0,0.0,0.0,0.0,0.0,0.0,0.0,0.0,0.0,0.0,0.0,0.0,0.0,0.0,0.0,0.0,0.0,0.0,0.0,0.0,0.0,0.0,0.0,0.0,0.0,0.0,0.0,0.0,0.0,0.0,0.0,0.0,0.0,0.0,0.0,0.0,0.0,0.0,0.0,0.0,0.0,0.0,0.0,0.0,0.0,0.0,0.0,0.0,0.0,0.0,0.0,0.0,0.0,0.0,0.0,0.0,0.0,0.0,0.0,0.0,0.0,0.0,0.0,0.0,0.0,0.0,0.0,0.0,0.0,0.0,0.0,0.0,0.0,0.0,0.0,0.0,0.0,0.0,0.0,0.0,0.0,0.0,0.0,0.0,0.0,0.0,0.0,0.0,0.0,0.0,0.0,0.0,0.0,0.0,0.0,0.0,0.0,0.0,0.0,0.0,0.0,0.0,0.0,0.0,0.0,0.0,0.0,0.0,0.0,0.0,0.0,0.0,0.0,0.0,0.0,0.0,0.0,0.0,0.0,0.0,0.0,0.0,0.0,0.0,0.0,0.0,0.0,0.0,0.0,0.0,0.0,0.0,0.0,0.0,0.0,0.0,0.0,0.0,0.0,0.0,0.0,0.0,0.0,0.0,0.0,0.0,0.0,0.0,0.0,0.0,0.0,0.0,0.0,0.0,0.0,0.0,0.0,0.0,0.0,0.0,0.0,0.0,0.0,0.0,0.0,0.0,0.0,0.0,0.0,0.0,0.0,0.0,0.0,0.0,0.0,0.0,0.0,0.0,0.0,0.0,0.0,0.0,0.0,0.0,0.0,0.0,0.0,0.0,0.0,0.0,0.0,0.0,0.0,0.0,0.0,0.0,0.0,0.0,0.0,0.0,0.0,0.0,0.0,0.0,0.0,0.0,0.0,0.0,0.0,0.0,0.0,0.0,0.0,0.0,0.0,0.0,0.0,0.0,0.0,0.0,0.0,0.0,0.0,0.0,0.0,0.0,0.0,0.0,0.0,0.0,0.0,0.0,0.0,0.0,0.0,0.0,0.0,0.0,0.0,0.0,0.0,0.0,0.0,0.0,0.0,0.0,0.0,0.0,0.0,0.0,0.0,0.0,0.0,0.0,0.0,0.0,0.0,0.0,0.0,0.0,0.0,0.0,0.0,0.0,0.0,0.0,0.0,0.0,0.0,0.0,0.0,0.0,0.0,0.0,0.0,0.0,0.0,0.0,0.0,0.0,0.0,0.0,0.0,0.0,0.0,0.0,0.0,0.0,0.0,0.0,0.0,0.0,0.0,0.0,0.0,0.0,0.0,0.0,0.0,0.0,0.0,0.0,0.0,0.0,0.0,0.0,0.0,0.0,0.0,0.0,0.0,0.0,0.0,0.0,0.0,0.0,0.0,0.0,0.0,0.0,0.0,0.0,0.0,0.0,0.0,0.0,0.0,0.0,0.0,0.0,0.0,0.0,0.0,0.0,0.0,0.0,0.0,0.0,0.0,0.0,0.0,0.0,0.0,0.0,0.0,0.0,0.0,0.0,0.0,0.0,0.0,0.0,0.0,0.0,0.0,0.0,0.0,0.0,0.0,0.0,0.0,0.0,0.0,0.0,0.0,0.0,0.0,0.0,0.0,0.0,0.0,0.0,0.0,0.0,0.0,0.0,0.0,0.0,0.0,0.0,0.0,0.0,0.0,0.0,0.0,0.0,0.0,0.0,0.0,0.0,0.0,0.0,0.0,0.0,0.0,0.0,0.0,0.0,0.0,0.0,0.0,0.0,0.0,0.0,0.0,0.0,0.0,0.0,0.0,0.0,0.0,0.0,0.0,0.0,0.0,0.0,0.0,0.0,0.0,0.0,0.0,0.0,0.0,0.0,0.0,0.0,0.0,0.0,0.0,0.0,0.0,0.0,0.0,0.0,0.0,0.0,0.0,0.0,0.0,0.0,0.0,0.0,0.0,0.0,0.0,0.0,0.0,0.0,0.0,0.0,0.0,0.0,0.0,0.0,0.0,0.0,0.0,0.0,0.0,0.0,0.0,0.0,0.0,0.0,0.0,0.0,0.0,0.0,0.0,0.0,0.0,0.0,0.0,0.0,0.0,0.0,0.0,0.0,0.0,0.0,0.0,0.0,0.0,0.0,0.0,0.0,0.0,0.0,0.0,0.0,0.0,0.0,0.0,0.0,0.0,0.0,0.0,0.0,0.0,0.0,0.0,0.0,0.0,0.0,0.0,0.0,0.0,0.0,0.0,0.0,0.0,0.0,0.0,0.0,0.0,0.0,0.0,0.0,0.0,0.0,0.0,0.0,0.0,0.0,0.0,0.0,0.0,0.0,0.0,0.0,0.0,0.0,0.0,0.0,0.0,0.0,0.0,0.0,0.0,0.0,0.0,0.0,0.0,0.0,0.0,0.0,0.0,0.0,0.0,0.0,0.0,0.0,0.0,0.0,0.0,0.0,0.0,0.0,0.0,0.0,0.0,0.0,0.0,0.0,0.0,0.0,0.0,0.0,0.0,0.0,0.0,0.0,0.0,0.0,0.0,0.0,0.0,0.0,0.0,0.0,0.0,0.0,0.0,0.0,0.0,0.0,0.0,0.0,0.0,0.0,0.0,0.0,0.0,0.0,0.0,0.0,0.0,0.0,0.0,0.0,0.0,0.0,0.0,0.0,0.0,0.0,0.0,0.0,0.0,0.0,0.0,0.0,0.0,0.0,0.0,0.0,0.0,0.0,0.0,0.0,0.0,0.0,0.0,0.0,0.0,0.0,0.0,0.0,0.0,0.0,0.0,0.0,0.0,0.0,0.0,0.0,0.0,0.0,0.0,0.0,0.0,0.0,0.0,0.0,0.0,0.0,0.0,0.0,0.0,0.0,0.0,0.0,0.0,0.0,0.0,0.0,0.0,0.0,0.0,0.0,0.0,0.0,0.0,0.0,0.0,0.0,0.0,0.0,0.0,0.0,0.0,0.0,0.0,0.0,0.0,0.0,0.0,0.0,0.0,0.0,0.0,0.0,0.0,0.0,0.0,0.0,0.0,0.0,0.0,0.0,0.0,0.0,0.0,0.0,0.0,0.0,0.0,0.0,0.0,0.0,0.0,0.0,0.0,0.0,0.0,0.0,0.0,0.0,0.0,0.0,0.0,0.0,0.0,0.0,0.0,0.0,0.0,0.0,0.0,0.0,0.0,0.0,0.0,0.0,0.0,0.0,0.0,0.0,0.0,0.0,0.0,0.0,0.0,0.0,0.0,0.0,0.0,0.0,0.0,0.0,0.0,0.0,0.0,0.0,0.0,0.0,0.0,0.0,0.0,0.0,0.0,0.0,0.0,0.0,0.0,0.0,0.0,0.0,0.0,0.0,0.0,0.0,0.0,0.0,0.0,0.0,0.0,0.0,0.0,0.0,0.0,0.0,0.0,0.0,0.0,0.0,0.0,0.0,0.0,0.0,0.0,0.0,0.0,0.0,0.0,0.0,0.0,0.0,0.0,0.0,0.0,0.0,0.0,0.0,0.0,0.0,0.0,0.0,0.0,0.0,0.0,0.0,0.0,0.0,0.0,0.0,0.0,0.0,0.0,0.0,0.0,0.0,0.0,0.0,0.0,0.0,0.0,0.0,0.0,0.0,0.0,0.0,0.0,0.0,0.0,0.0,0.0,0.0,0.0,0.0,0.0,0.0,0.0,0.0,0.0,0.0,0.0,0.0,0.0,0.0,0.0,0.0,0.0,0.0,0.0,0.0,0.0,0.0,0.0,-0.9477,-0.9132,0.0,0.0,0.0,0.0,0.0,0.0,0.0,0.0,0.0,0.0,0.0,0.0,0.0,0.0,0.0,0.0,0.0,0.0,0.0,0.0,0.0,0.0,0.0,0.0,0.0,0.0,0.0,0.0,0.0,0.0,0.0,0.0,0.0,0.0,0.0,0.0,0.0,0.0,0.0,0.0,0.0,0.0,0.0,0.0,0.0,0.0,0.0,0.0,0.0,0.0,0.0,0.0,0.0,0.0,0.0,0.0,0.0,0.0,0.0,0.0,0.0,0.0,0.0,0.0,0.0,0.0,0.0,0.0,0.0,0.0,0.0,0.0,0.0,0.0,0.0,0.0,0.0,0.0,0.0,0.0,0.0,0.0,0.0,0.0,0.0,0.0,0.0,0.0,0.0,0.0,0.0,0.0,0.0,0.0,0.0,0.0,0.0,0.0,0.0,0.0,0.0,0.0,0.0,0.0,0.0,0.0,0.0,0.0,0.0,0.0,0.0,0.0,0.0,0.0,-1.0914,-1.0365,0.0,0.0,0.0,0.0,0.0,0.0,0.0,0.0,0.0,0.0,0.0,0.0,0.0,0.0,0.0,0.0,0.0,0.0,0.0,0.0,0.0,0.0,0.0,0.0,0.0,0.0,0.0,0.0,0.0,0.0,0.0,0.0,0.0,0.0,0.0,0.0,0.0,0.0,0.0,0.0,0.0,0.0,0.0,0.0,0.0,0.0,0.0,0.0,0.0,0.0,0.0,0.0,0.0,0.0,0.0,0.0,0.0,0.0,0.0,0.0,0.0,0.0,0.0,0.0,0.0,0.0,0.0,0.0,0.0,0.0,0.0,0.0,0.0,0.0,0.0,0.0,0.0,0.0,0.0,0.0,0.0,0.0,0.0,0.0,0.0,0.0,0.0,0.0,0.0,0.0,0.0,0.0,0.0,0.0,0.0,0.0,0.0,0.0,0.0,0.0,0.0,0.0,0.0,0.0,0.0,0.0,0.0,0.0,-1.2084,-1.2725,-1.2856,-1.3192,-1.3692,-1.4196,-1.2634,-1.1873,-1.1726,-1.177,0.0,0.0,0.0,0.0,0.0,0.0,0.0,0.0,0.0,0.0,0.0,0.0,0.0,0.0,0.0,0.0,0.0,0.0,0.0,0.0,0.0,0.0,0.0,0.0,0.0,0.0,0.0,0.0,0.0,0.0,0.0,0.0,0.0,0.0,0.0,0.0,0.0,0.0,-1.0767,-1.1278,-1.2279,-1.3631,0.0,0.0,0.0,0.0,0.0,0.0,0.0,0.0,0.0,0.0,0.0,0.0,0.0,0.0,0.0,0.0,0.0,0.0,0.0,0.0,0.0,0.0,0.0,0.0,0.0,0.0,0.0,0.0,0.0,0.0,0.0,0.0,0.0,0.0,0.0,0.0,0.0,0.0,0.0,0.0,0.0,0.0,0.0,0.0,-0.5737,-0.681,0.0,0.0,0.0,0.0,0.0,0.0,0.0,0.0,0.0,0.0,0.0,0.0,0.0,-1.0395,-1.1349,-1.2318,-1.2979,-1.3341,-1.4084,-1.4667,-1.5095,-1.5381,-1.5752,-1.6228,-1.6221,0.0,-1.3399,-1.363,0.0,0.0,0.0,0.0,0.0,0.0,0.0,0.0,0.0,0.0,0.0,0.0,0.0,0.0,0.0,0.0,0.0,0.0,0.0,0.0,0.0,0.0,0.0,0.0,0.0,0.0,0.0,0.0,0.0,0.0,0.0,0.0,0.0,0.0,0.0,0.0,-0.9556,-1.0189,-1.0878,-1.2013,-1.2914,-1.3609,-1.3863,-1.3902,-1.3766,-1.3408,0.0,0.0,0.0,0.0,0.0,0.0,0.0,0.0,0.0,0.0,0.0,0.0,0.0,0.0,0.0,0.0,0.0,0.0,0.0,0.0,0.0,0.0,0.0,0.0,0.0,0.0,0.0,0.0,0.0,0.0,0.0,0.0,0.0,0.0,0.0,0.0,0.0,0.0,0.0,-0.5667,-0.7186,-0.7784,-0.7934,-0.7998,0.0,0.0,0.0,0.0,0.0,0.0,0.0,0.0,0.0,-1.1919,-1.2166,-1.2662,-1.3418,-1.4457,-1.5165,-1.5551,-1.6413,-1.7059,-1.7483,-1.7597,-1.7864,-1.8231,-1.8353,-1.7724,-1.6559,-1.5686,-1.4591,-1.3459,0.0,0.0,0.0,0.0,-1.3522,-1.3599,0.0,0.0,0.0,0.0,0.0,0.0,0.0,0.0,0.0,0.0,0.0,0.0,0.0,0.0,0.0,-0.5994,0.0,0.0,0.0,0.0,0.0,0.0,0.0,0.0,0.0,0.0,0.0,0.0,-1.0249,-1.0824,-1.137,-1.2897,-1.3699,-1.3898,-1.5142,-1.5496,-1.5122,-1.4553,-1.4558,0.0,0.0,0.0,0.0,0.0,0.0,0.0,0.0,0.0,0.0,0.0,0.0,0.0,0.0,0.0,0.0,0.0,0.0,0.0,0.0,0.0,0.0,0.0,0.0,0.0,0.0,0.0,0.0,0.0,0.0,0.0,0.0,0.0,0.0,0.0,0.0,0.0,0.0,-0.7132,-0.8684,-0.8739,-0.8855,-0.8953,0.0,0.0,0.0,0.0,0.0,0.0,-1.1564,-1.1734,-1.2584,-1.4214,-1.4363,-1.4765,-1.5375,-1.6396,-1.7053,-1.7379,-1.8393,-1.9089,-1.9525,-1.9612,-1.9886,-2.0223,-2.0223,-1.9939,-1.9367,-1.7662,-1.6104,-1.4788,-1.4978,-1.4671,-1.416,-1.4691,-1.4967,-1.509,0.0,0.0,0.0,0.0,0.0,0.0,0.0,0.0,0.0,0.0,0.0,0.0,0.0,0.0,-0.718,-0.7383,-0.6749,-0.6726,0.0,0.0,0.0,0.0,0.0,0.0,0.0,0.0,0.0,-1.0176,-1.1085,-1.2046,-1.3098,-1.4262,-1.5104,-1.558,-1.5671,-1.598,-1.636,-1.5716,-1.5723,-1.6103,0.0,0.0,0.0,0.0,0.0,0.0,0.0,0.0,0.0,0.0,0.0,0.0,0.0,0.0,0.0,0.0,0.0,0.0,0.0,0.0,0.0,0.0,0.0,0.0,0.0,0.0,0.0,0.0,0.0,0.0,0.0,0.0,0.0,0.0,0.0,0.0,0.0,0.0,0.0,-0.9343,-0.9381,0.0,0.0,0.0,0.0,-1.0869,-1.2552,-1.3624,-1.3826,-1.4332,-1.4875,-1.5487,-1.5952,-1.6448,-1.6987,-1.8051,-1.8597,-1.8597,-1.9694,-2.044,-2.0927,-2.1301,-2.1707,-2.2164,-2.2164,-2.1742,-2.0967,-1.9418,-1.7912,-1.6576,-1.6597,-1.614,-1.5535,-1.5832,-1.5922,-1.5976,0.0,0.0,0.0,0.0,0.0,0.0,0.0,0.0,0.0,0.0,0.0,0.0,0.0,-0.6816,-0.7175,-0.7954,-0.7897,-0.7749,-0.75,0.0,0.0,0.0,0.0,0.0,0.0,0.0,-1.0505,-1.1097,-1.2522,-1.3405,-1.3785,-1.489,-1.5693,-1.6231,-1.6957,-1.7554,-1.7974,-1.6597,-1.6225,-1.6503,-1.5816,-1.5463,0.0,0.0,0.0,0.0,0.0,0.0,0.0,0.0,0.0,0.0,0.0,0.0,0.0,0.0,0.0,0.0,0.0,0.0,0.0,0.0,0.0,0.0,0.0,0.0,0.0,0.0,0.0,0.0,0.0,0.0,0.0,0.0,0.0,0.0,0.0,0.0,0.0,-1.0409,-1.1575,0.0,-1.2372,-1.2968,-1.3381,-1.3444,-1.4076,-1.4758,-1.5443,-1.5676,-1.6471,-1.8007,-1.8197,-1.8743,-1.9603,-2.0257,-2.0575,-2.0575,-2.1254,-2.1675,-2.184,-2.1974,-2.2135,-2.231,-2.231,-2.2158,-2.187,-2.1312,-2.004,-1.8456,-1.8685,-1.827,-1.7619,-1.8282,-1.8122,-1.7694,0.0,0.0,0.0,0.0,0.0,0.0,0.0,0.0,0.0,0.0,0.0,-0.6771,-0.7262,-0.7366,-0.7792,-0.8765,-0.85,-0.818,-0.7891,0.0,0.0,0.0,0.0,0.0,0.0,-1.0546,-1.1368,-1.214,-1.3807,-1.4734,-1.494,-1.6055,-1.6734,-1.7102,-1.7801,-1.841,-1.8814,-1.7669,-1.7245,-1.7292,-1.6579,-1.6347,-1.6293,0.0,0.0,0.0,0.0,0.0,0.0,0.0,0.0,0.0,0.0,0.0,0.0,0.0,0.0,0.0,0.0,0.0,0.0,0.0,0.0,0.0,0.0,0.0,0.0,0.0,0.0,0.0,0.0,0.0,0.0,0.0,0.0,0.0,0.0,-1.0505,-1.1307,-1.2183,-1.3316,-1.4052,-1.4246,-1.4903,-1.5304,-1.5388,-1.5827,-1.6424,-1.7127,-1.7338,-1.8137,-1.9648,-1.9712,-2.0111,-2.0991,-2.1275,-2.1399,-2.1399,-2.184,-2.2061,-2.2077,-2.2237,-2.2349,-2.2409,-2.2409,-2.249,-2.2624,-2.273,-2.1993,-2.0823,-2.058,-2.0035,-1.9495,-2.0165,-2.0003,-1.9552,0.0,0.0,0.0,0.0,0.0,0.0,0.0,0.0,0.0,0.0,-0.3944,-0.6887,-0.7626,-0.8349,-0.9064,-0.9805,-0.8406,-0.7909,-0.8893,-0.6995,0.0,0.0,0.0,0.0,-1.0224,-1.0816,-1.1814,-1.3248,-1.4902,-1.6002,-1.6533,-1.7668,-1.8222,-1.8266,-1.8279,-1.8567,-1.899,-1.9002,-1.8914,-1.8672,-1.7309,-1.713,-1.7518,0.0,0.0,0.0,0.0,0.0,0.0,0.0,0.0,0.0,0.0,0.0,0.0,0.0,0.0,0.0,0.0,0.0,0.0,0.0,0.0,0.0,0.0,0.0,0.0,0.0,0.0,0.0,0.0,0.0,0.0,0.0,0.0,0.0,-1.1962,-1.1454,-1.2077,-1.4561,-1.4424,-1.4354,-1.4864,-1.5828,-1.6449,-1.6593,-1.7934,-1.8791,-1.8939,-1.9442,-1.9909,-2.0314,-2.0333,-2.0583,-2.1039,-2.1023,-2.1023,-2.1039,-2.143,-2.1612,-2.1658,-2.2106,-2.2453,-2.2695,-2.2695,-2.2898,-2.323,-2.3544,-2.3692,-2.3577,-2.2212,-2.1434,-2.1123,-2.1381,-2.1476,-2.1514,0.0,0.0,0.0,0.0,0.0,0.0,0.0,0.0,0.0,0.0,-0.5848,-0.6987,-0.8035,-0.7926,-0.8202,-0.9239,-0.8168,-0.7476,-0.7613,0.0,0.0,0.0,0.0,0.0,-1.1189,-1.2535,-1.3638,-1.4425,-1.5665,-1.6576,-1.7088,-1.7911,-1.8696,-1.9443,-1.9936,-2.0425,-2.0929,-2.0912,-2.0905,-2.0722,-1.8897,-1.7667,-1.695,0.0,0.0,0.0,0.0,0.0,0.0,0.0,0.0,0.0,0.0,0.0,0.0,0.0,0.0,0.0,0.0,0.0,0.0,0.0,0.0,0.0,0.0,0.0,0.0,0.0,0.0,0.0,0.0,0.0,0.0,0.0,-1.3436,-1.3477,-1.3296,-1.4237,-1.5244,-1.5943,-1.693,-1.759,-1.7748,-1.835,-1.8802,-1.8823,-1.9194,-1.9459,-1.9479,-1.9894,-2.0364,-2.0797,-2.1102,-2.1477,-2.1945,-2.1945,-2.1945,-2.1945,-2.2049,-2.2106,-2.2106,-2.2237,-2.2453,-2.2695,-2.2695,-2.2898,-2.3212,-2.33,-2.3477,-2.3696,-2.3539,-2.3262,-2.3001,-2.3302,-2.3282,-2.2829,0.0,0.0,0.0,0.0,0.0,0.0,0.0,0.0,0.0,0.0,-0.6599,-0.6849,-0.752,-0.7488,-0.7776,-0.8675,-0.7864,-0.7237,-0.7107,0.0,0.0,0.0,0.0,-1.124,-1.2266,-1.3707,-1.4702,-1.5255,-1.6332,-1.7118,-1.7639,-1.8557,-1.9432,-2.0275,-2.0937,-2.1394,-2.1686,-2.1719,-2.1695,-2.159,-2.0423,-1.9331,-1.828,-1.7443,-1.7101,-1.6967,-1.6682,-1.6652,-1.6652,-1.6308,0.0,0.0,0.0,0.0,0.0,0.0,0.0,0.0,0.0,0.0,0.0,0.0,0.0,0.0,0.0,0.0,0.0,0.0,0.0,0.0,0.0,0.0,0.0,0.0,-1.5577,-1.6214,-1.6256,-1.6411,-1.6846,-1.7726,-1.8483,-1.9006,-1.9207,-1.953,-1.969,-1.969,-1.9839,-1.9929,-1.9929,-2.0364,-2.0797,-2.1244,-2.1491,-2.1823,-2.2282,-2.231,-2.231,-2.231,-2.231,-2.231,-2.231,-2.231,-2.2453,-2.2695,-2.2695,-2.2972,-2.3414,-2.3414,-2.3628,-2.3917,0.0,0.0,0.0,0.0,-2.3855,-2.326,0.0,0.0,0.0,0.0,0.0,0.0,0.0,0.0,0.0,0.0,0.0,-0.6599,-0.6599,-0.7019,-0.7563,-0.8185,-0.7502,-0.7066,0.0,0.0,0.0,-0.8827,-1.0721,-1.2228,-1.3173,-1.4375,-1.5243,-1.5815,-1.679,-1.7626,-1.8198,-1.935,-2.0232,-2.0849,-2.1513,-2.1888,-2.2019,-2.1969,-2.1994,-2.2113,-2.1904,-2.1365,-2.0513,-1.8608,-1.8268,-1.8612,-1.7921,-1.7369,-1.6921,-1.6846,0.0,0.0,0.0,0.0,0.0,0.0,0.0,0.0,0.0,0.0,0.0,0.0,0.0,0.0,0.0,0.0,0.0,0.0,0.0,0.0,0.0,0.0,0.0,0.0,-1.8452,-1.9853,-1.999,-1.8345,-1.7841,-1.9692,-1.9515,-1.9359,-1.9758,-1.9794,-1.9801,-1.9747,-2.0089,-2.0314,-2.0382,-2.0829,0.0,0.0,0.0,-2.1899,-2.2282,-2.231,-2.231,-2.231,-2.231,-2.231,-2.231,-2.231,-2.248,-2.2772,-2.2772,-2.3141,-2.3774,-2.3774,-2.3917,-2.417,-2.3876,-2.3937,-2.419,-2.419,-2.3749,-2.3235,0.0,0.0,0.0,0.0,0.0,0.0,0.0,0.0,0.0,-0.6311,-0.6599,-0.6599,-0.6599,-0.6699,-0.7037,-0.7738,-0.7125,-0.6883,0.0,0.0,-0.9117,-0.9641,-1.1745,-1.2985,-1.3198,-1.4751,-1.5822,-1.6336,-1.6994,-1.7787,-1.8741,-1.9527,-2.0494,-2.1535,-2.2203,-2.3079,-2.4015,-2.3477,-2.3864,-2.4717,-2.3131,-2.1769,-2.0617,-1.9675,-1.9061,-1.8612,-1.7921,-1.7951,-1.8238,-1.7682,-1.7211,-1.674,-1.6217,0.0,0.0,0.0,0.0,0.0,0.0,0.0,0.0,0.0,0.0,0.0,0.0,0.0,0.0,0.0,0.0,0.0,0.0,0.0,0.0,-1.9256,-2.0671,-2.1702,-2.1879,-2.1504,-2.1272,-2.13,-2.1212,-2.098,-2.0572,-2.0513,-2.0421,-2.0204,-2.0246,-2.0483,-2.0829,-2.1275,-2.1521,-2.1582,-2.1974,-2.2209,-2.231,-2.231,-2.231,-2.231,-2.231,0.0,-2.231,-2.231,-2.2598,-2.3093,-2.3093,-2.3482,-2.4094,-2.4094,-2.4151,-2.419,-2.4132,-2.4151,-2.419,-2.419,-2.4098,-2.3896,0.0,0.0,0.0,0.0,0.0,0.0,0.0,0.0,0.0,0.0,-0.5637,-0.5373,-0.6474,-0.5624,-0.5248,-0.5985,-0.6386,0.0,0.0,-0.8462,-0.9453,-1.0282,-1.2159,-1.3461,-1.4048,-1.5128,-1.5942,-1.6496,-1.7057,-1.7706,-1.8511,-1.9807,-2.0874,-2.1754,-2.3071,-2.4014,-2.4582,-2.4612,-2.4807,-2.5031,-2.4044,-2.3056,-2.2009,-2.0707,-1.9989,-1.963,-1.8942,-1.8702,-1.8657,-1.8328,-1.79,-1.743,-1.6858,-1.5936,-1.4888,0.0,0.0,0.0,0.0,0.0,0.0,0.0,0.0,0.0,0.0,0.0,0.0,0.0,0.0,-1.7059,0.0,0.0,-2.0485,-2.1488,-2.2535,-2.3234,-2.3296,-2.3569,-2.3224,-2.1667,-2.1325,-2.1122,-2.0864,-2.0625,-2.0542,-2.0648,-2.0846,-2.1039,-2.1275,-2.1705,-2.1957,-2.1957,-2.218,-2.231,-2.231,-2.231,-2.231,-2.231,-2.231,-2.231,-2.231,-2.2453,-2.2652,-2.2972,-2.3117,-2.35,-2.3958,-2.4113,-2.419,-2.419,-2.419,-2.419,-2.419,-2.419,-2.419,-2.4135,0.0,0.0,0.0,0.0,0.0,0.0,0.0,0.0,0.0,0.0,-0.4407,-0.4141,-0.6361,-0.5009,-0.4181,0.0,0.0,0.0,0.0,-0.8637,-0.973,-1.0819,-1.2472,-1.376,-1.4538,-1.5304,-1.598,-1.6504,-1.7124,-1.7787,-1.8447,-2.0088,-2.1171,-2.1784,-2.361,-2.4522,-2.4852,-2.539,-2.5375,-2.4986,-2.4686,-2.4298,-2.358,-2.1635,-2.0902,-2.0782,-1.9839,-1.9076,-1.8508,-1.8508,-1.8164,-1.7623,-1.7219,-1.701,-1.6605,-1.5169,-1.4652,0.0,0.0,0.0,0.0,0.0,0.0,0.0,0.0,0.0,-1.6336,-1.71,-1.8343,-1.9645,-2.076,-2.1658,-2.2573,-2.35,-2.4246,-2.4664,-2.4555,-2.489,-2.4287,-2.2047,-2.1547,-2.1378,-2.1405,-2.0933,-2.0774,-2.1103,-2.143,-2.1658,-2.1718,-2.2106,-2.231,-2.231,-2.231,-2.231,-2.231,-2.231,-2.231,-2.231,-2.231,-2.2321,-2.2388,-2.2599,-2.2772,-2.2923,-2.3236,-2.3544,-2.3816,-2.4094,-2.419,-2.419,-2.419,-2.419,-2.419,-2.419,-2.419,-2.419,0.0,0.0,0.0,0.0,0.0,0.0,0.0,0.0,0.0,0.0,0.0,0.0,0.0,0.0,0.0,0.0,0.0,0.0,-0.8135,-0.9215,-1.032,-1.1437,-1.3116,-1.3833,-1.3386,-1.4915,-1.5971,-1.6504,-1.7504,-1.8535,-1.9545,-2.0355,-2.1048,-2.1754,-2.3116,-2.4373,-2.5495,-2.557,-2.5899,-2.6273,-2.5091,-2.4537,-2.4253,-2.2338,-2.159,-2.1335,-1.948,-1.8388,-1.7802,-1.7802,-1.7757,-1.7772,-1.8328,-1.8089,-1.7443,-1.6666,0.0,-1.3607,-1.4332,-1.5009,-1.5805,-1.704,-1.6797,-1.7027,0.0,0.0,-1.9358,-2.1639,-2.2775,-2.3499,-2.3947,-2.5141,-2.5916,-2.5411,-2.5933,-2.6267,-2.5845,-2.5264,-2.4488,-2.3554,-2.359,-2.3501,-2.2908,-2.2234,-2.1729,-2.154,-2.1582,-2.1794,-2.2209,-2.2282,-2.231,-2.231,-2.231,-2.231,-2.231,-2.231,-2.231,-2.231,-2.231,-2.2426,-2.266,-2.2695,-2.3021,-2.3628,-2.3937,-2.4113,-2.4151,-2.417,-2.419,-2.419,-2.419,-2.419,-2.419,-2.419,-2.419,-2.419,0.0,0.0,0.0,0.0,0.0,0.0,0.0,0.0,0.0,0.0,0.0,0.0,0.0,0.0,0.0,0.0,0.0,0.0,-0.7726,-0.8813,-0.978,-1.0571,-1.2203,-1.342,-1.4128,-1.4879,-1.5788,-1.6977,-1.7424,-1.8027,-1.8779,-1.9477,-2.0458,-2.1754,-2.2728,-2.3866,-2.5061,-2.545,-2.5555,-2.5405,-2.4852,-2.4178,-2.3355,-2.2158,-2.0961,-1.9794,-1.8568,-1.7682,0.0,0.0,-1.6832,-1.71,-1.7026,-1.7071,-1.6921,-1.5875,-1.5431,0.0,-1.5786,-1.6099,-1.6578,0.0,-1.861,-1.9878,-2.16,-2.2294,-2.2959,-2.4208,-2.5044,-2.563,-2.5761,-2.6268,-2.659,0.0,-2.6286,-2.6147,-2.5798,-2.5209,-2.4496,-2.3627,-2.3602,-2.3406,-2.2696,-2.2115,-2.1835,-2.1991,-2.2003,-2.2106,-2.2282,-2.231,-2.231,-2.231,-2.231,-2.231,-2.231,-2.2463,-2.2436,-2.231,-2.2677,-2.2781,-2.2721,-2.3093,-2.3544,-2.3996,-2.4151,-2.419,-2.419,-2.419,-2.419,-2.419,-2.419,-2.4266,-2.4375,-2.4375,-2.4375,-2.4375,0.0,0.0,0.0,0.0,0.0,0.0,0.0,0.0,0.0,0.0,0.0,0.0,0.0,0.0,0.0,0.0,0.0,0.0,0.0,-0.8379,-0.9149,-0.9742,-1.1316,0.0,-1.39,-1.4572,-1.5634,-1.7063,-1.7397,-1.7867,-1.8549,-1.9225,-2.0222,-2.1485,-2.2435,-2.3319,-2.4133,-2.4777,-2.4687,-2.4088,-2.4088,-2.331,-2.2039,-2.1201,-1.975,-1.8071,-1.7593,-1.6771,0.0,0.0,-1.5545,-1.586,-1.559,-1.5949,-1.6293,-1.556,-1.5965,-1.6667,-1.6502,-1.697,0.0,-1.8923,-2.091,-2.2753,-2.3518,-2.4811,-2.5983,-2.6455,-2.6793,-2.6945,-2.6725,-2.6522,-2.6319,-2.6116,-2.5983,-2.5747,-2.5357,-2.4962,-2.438,-2.3498,-2.3224,-2.2885,-2.2361,-2.2003,-2.1928,-2.2265,-2.231,-2.231,-2.231,-2.231,-2.231,-2.231,-2.231,-2.2349,-2.2398,-2.2599,-2.2652,-2.2544,-2.2989,-2.3117,-2.2996,-2.3566,-2.3976,-2.419,-2.419,-2.419,-2.419,-2.419,-2.4228,-2.4284,-2.4284,-2.441,-2.4575,-2.462,-2.4604,-2.4575,0.0,0.0,0.0,0.0,0.0,0.0,0.0,0.0,0.0,0.0,0.0,0.0,0.0,0.0,0.0,0.0,0.0,0.0,0.0,-0.8129,-0.8638,-0.939,-1.0847,-1.1656,-1.1693,-1.3808,-1.5423,-1.6529,-1.7564,-1.8612,-1.9654,-2.0356,-2.0684,-2.0797,-2.2113,-2.2712,-2.2787,-2.3385,-2.3295,-2.2783,-2.2783,-2.1949,-2.0632,-1.9301,-1.7936,-1.6771,-1.6756,0.0,0.0,0.0,-1.3885,-1.4004,-1.4633,-1.5304,0.0,-1.6488,-1.6682,-1.6577,-1.5979,0.0,-2.0067,-2.2431,-2.4011,-2.5463,-2.723,-2.7688,-2.7924,-2.8721,-2.8298,-2.7571,-2.6826,-2.6116,-2.5406,-2.4692,-2.5152,-2.534,-2.4659,-2.4509,-2.4239,-2.3477,-2.2784,-2.2327,0.0,-2.2282,-2.2282,-2.231,-2.231,-2.231,-2.231,-2.231,-2.231,-2.231,-2.231,-2.2426,-2.2695,-2.2695,-2.2873,-2.3165,-2.3189,-2.3369,-2.3692,-2.4016,-2.419,-2.419,-2.419,-2.419,-2.419,-2.419,-2.4321,-2.4495,-2.4495,-2.4607,-2.4818,-2.4937,-2.4904,-2.479,0.0,0.0,0.0,0.0,0.0,0.0,0.0,0.0,0.0,0.0,0.0,0.0,0.0,0.0,0.0,0.0,0.0,0.0,0.0,-0.7611,-0.7855,-0.756,-0.9213,-1.0586,-1.1492,-1.2321,-1.352,-1.5175,-1.5358,-1.5914,-1.6781,-1.6639,-1.7292,-1.8559,-1.8507,-1.917,-2.0323,-2.0529,-2.0655,-2.0647,-2.0213,-1.951,-1.8548,-1.7062,-1.5654,-1.4378,0.0,0.0,0.0,0.0,0.0,-1.3092,-1.2882,-1.328,-1.412,-1.565,-1.665,-1.759,-1.9213,0.0,-2.2692,-2.5389,-2.6651,-2.7753,-2.9712,-2.9738,-2.9262,-2.9042,-2.7182,-2.5389,-2.4644,-2.3511,-2.275,-2.3004,-2.3663,-2.4052,-2.3799,-2.4201,-2.3879,-2.2152,-2.2581,0.0,0.0,0.0,-2.231,-2.231,-2.275,-2.3038,-2.3038,-2.3038,-2.3038,-2.3038,-2.2564,-2.2426,-2.2695,-2.2923,-2.3093,-2.3189,-2.3414,-2.3714,-2.4054,-2.4151,-2.419,-2.419,-2.419,-2.419,-2.4209,-2.4339,-2.4426,-2.4512,-2.4639,-2.478,-2.4937,-2.4986,-2.5053,-2.5115,0.0,0.0,0.0,0.0,0.0,0.0,0.0,0.0,0.0,0.0,0.0,0.0,0.0,0.0,0.0,0.0,0.0,0.0,0.0,0.0,-0.7191,-0.6753,-0.8196,-0.9247,-0.9731,-1.0735,-1.2186,-1.4042,-1.3664,-1.3901,-1.4671,-1.431,-1.486,-1.6155,-1.5631,-1.6063,-1.7203,-1.7203,-1.7619,-1.8208,-1.7247,-1.647,-1.5758,-1.4423,-1.3301,0.0,0.0,0.0,0.0,0.0,0.0,-1.2251,-1.2186,-1.3092,-1.4375,-1.5376,-1.6864,-1.8746,-2.1158,-2.305,-2.4993,-2.7492,-2.8956,-2.9922,-3.0758,-3.0314,-2.9262,-2.7689,-2.5423,-2.3308,-2.2023,-2.0788,-2.0128,-2.0619,-2.1532,-2.2293,-2.2564,-2.3241,-2.3376,-2.2491,-2.297,-2.3122,0.0,0.0,0.0,-2.2327,-2.2987,-2.3393,-2.3393,-2.3646,-2.3663,-2.341,-2.3051,-2.2856,-2.2873,-2.3212,-2.3437,-2.3566,-2.3774,-2.3996,-2.419,-2.419,-2.419,-2.419,-2.419,-2.4247,-2.4321,-2.4444,-2.4575,-2.4693,-2.4809,-2.4968,-2.5099,-2.5099,-2.5192,-2.5274,0.0,0.0,0.0,0.0,0.0,0.0,0.0,0.0,0.0,0.0,0.0,0.0,0.0,0.0,0.0,0.0,0.0,0.0,0.0,0.0,0.0,-0.696,-0.7771,-0.7734,-0.6662,-0.9191,-1.1324,-1.2964,-1.2481,-1.2649,-1.3375,-1.3318,-1.3407,-1.3604,-1.3585,-1.36,-1.3629,-1.3629,-1.437,-1.5427,-1.3944,-1.3038,-1.2458,-1.1418,0.0,0.0,0.0,0.0,0.0,0.0,0.0,0.0,0.0,-1.4633,-1.6563,-1.584,-1.7546,-2.0114,-2.1969,-2.4443,-2.6981,-2.8969,-3.0821,-3.1799,-3.0429,-2.9397,-2.7961,-2.4997,-2.3139,-2.1397,0.0,0.0,-1.776,-1.7772,-1.9039,-2.0306,-2.1204,-2.1955,-2.2936,0.0,0.0,0.0,0.0,0.0,0.0,-2.2508,-2.3054,-2.349,-2.3541,-2.4232,-2.4282,-2.3587,-2.3794,-2.3728,-2.3283,-2.3584,-2.3896,-2.419,-2.419,-2.419,-2.419,-2.419,-2.419,-2.419,-2.4209,-2.4303,-2.4512,-2.4528,-2.4723,-2.501,-2.501,-2.5122,-2.5303,-2.5303,-2.5303,-2.5303,0.0,0.0,0.0,0.0,0.0,0.0,0.0,0.0,0.0,0.0,0.0,0.0,0.0,0.0,0.0,0.0,0.0,0.0,0.0,0.0,0.0,0.0,0.0,0.0,0.0,0.0,0.0,0.0,0.0,-1.0179,-1.0626,-1.0589,-1.0694,0.0,-1.0739,-1.0938,-1.1416,-1.1416,-1.1795,-1.2279,0.0,-1.0956,-1.0684,0.0,0.0,0.0,0.0,0.0,0.0,0.0,0.0,0.0,0.0,-1.4994,-1.6967,-1.8221,-2.0371,-2.2868,-2.5378,-2.758,-2.9522,-3.1116,-3.1095,-3.0565,-3.0192,-2.7791,-2.5101,-2.3241,-2.0771,-1.8437,0.0,0.0,0.0,-1.771,-1.9039,0.0,-2.2564,-2.346,0.0,-2.4472,0.0,-2.4898,-2.4557,-2.4589,0.0,-2.4395,-2.4296,-2.4594,-2.5441,-2.5678,-2.5813,-2.5918,-2.484,-2.4335,-2.4464,-2.4187,-2.4132,-2.419,-2.419,-2.419,-2.419,-2.419,-2.419,-2.4209,-2.4357,-2.4444,-2.4528,-2.4762,-2.4917,-2.5022,-2.5163,-2.5264,-2.5303,-2.5303,-2.5303,-2.5303,0.0,0.0,0.0,0.0,0.0,0.0,0.0,0.0,0.0,0.0,0.0,0.0,0.0,0.0,0.0,0.0,0.0,0.0,0.0,0.0,0.0,0.0,0.0,0.0,0.0,0.0,0.0,0.0,0.0,0.0,0.0,-0.8425,-0.8523,-0.8714,-0.8605,-0.8765,-0.9117,0.0,0.0,0.0,0.0,0.0,0.0,0.0,0.0,0.0,0.0,0.0,0.0,0.0,0.0,-1.5261,-1.5456,-1.6861,-1.8816,-2.0685,0.0,-2.4737,-2.7377,-2.9321,-3.0784,-3.1596,-3.0954,-2.9854,-2.8839,-2.5981,-2.2919,-2.0771,-1.8724,0.0,-1.4969,-1.524,0.0,0.0,0.0,0.0,-2.16,-2.2852,-2.3973,0.0,-2.5465,0.0,-2.6459,-2.5947,-2.6098,-2.7297,-2.6208,-2.5785,-2.6422,-2.6755,-2.6905,-2.6792,-2.6043,-2.5637,-2.5645,-2.5027,-2.4722,-2.4704,-2.4373,-2.419,-2.419,-2.4284,-2.4321,-2.4339,-2.4526,-2.4666,-2.4718,-2.4905,-2.5046,-2.5152,-2.5264,-2.5303,-2.5303,-2.5303,-2.5303,-2.5303,0.0,0.0,0.0,0.0,0.0,0.0,0.0,0.0,0.0,0.0,0.0,0.0,0.0,0.0,0.0,0.0,0.0,0.0,0.0,0.0,0.0,0.0,0.0,0.0,0.0,0.0,0.0,0.0,0.0,0.0,0.0,0.0,0.0,0.0,0.0,0.0,0.0,0.0,0.0,0.0,0.0,0.0,0.0,0.0,0.0,0.0,0.0,0.0,0.0,0.0,-1.4652,-1.6383,-1.749,-1.925,-2.1288,-2.2991,-2.4484,-2.6085,-2.8528,-3.0171,-3.1173,-3.1072,-3.0429,-2.9178,-2.6793,-2.4052,-2.1177,-1.8268,0.0,-1.5976,-1.3956,-1.4211,-1.4755,-1.4876,0.0,-1.7752,-2.0084,-2.1667,-2.3493,-2.5976,-2.6038,-2.6682,-2.8747,-2.7455,-2.749,-2.9876,-2.8208,-2.7121,-2.7157,-2.768,-2.7654,-2.6943,-2.7173,-2.7058,-2.6612,-2.5897,-2.5568,-2.555,-2.4779,-2.4412,-2.4394,-2.45,-2.4545,-2.4561,-2.4727,-2.4891,-2.501,-2.5034,-2.5152,-2.5303,-2.5303,-2.5303,-2.5303,-2.5303,-2.5303,-2.5303,0.0,0.0,0.0,0.0,0.0,0.0,0.0,0.0,0.0,0.0,0.0,0.0,0.0,0.0,0.0,0.0,0.0,0.0,0.0,0.0,0.0,0.0,0.0,0.0,0.0,0.0,0.0,0.0,0.0,0.0,0.0,0.0,0.0,0.0,0.0,0.0,0.0,0.0,0.0,0.0,0.0,0.0,0.0,0.0,0.0,0.0,0.0,0.0,0.0,0.0,-1.6039,-1.8238,-1.8463,-2.0288,-2.2727,-2.457,-2.6027,-2.7478,-2.9519,-3.0637,-3.1055,-3.0446,-2.9245,-2.7469,-2.4611,-2.2124,0.0,0.0,-1.645,-1.5725,-1.4745,-1.5297,-1.6116,-1.68,0.0,0.0,0.0,0.0,-2.4611,0.0,0.0,0.0,-2.8074,-2.8049,0.0,-2.8676,-2.8669,-2.8748,-2.9089,-2.8612,-2.8084,-2.7629,-2.7679,-2.7339,-2.6612,-2.6465,-2.6392,-2.6374,-2.5745,-2.543,-2.543,-2.4957,-2.4746,-2.476,-2.4904,-2.4986,-2.5022,-2.5173,-2.5264,-2.5303,-2.5303,-2.5303,-2.5303,-2.5303,-2.5303,-2.5303,0.0,0.0,0.0,0.0,0.0,0.0,0.0,0.0,0.0,0.0,0.0,0.0,0.0,0.0,0.0,0.0,0.0,0.0,0.0,0.0,0.0,0.0,0.0,0.0,0.0,0.0,0.0,0.0,0.0,0.0,0.0,0.0,0.0,0.0,0.0,0.0,0.0,0.0,0.0,0.0,0.0,0.0,0.0,0.0,0.0,0.0,0.0,0.0,0.0,0.0,-1.4587,-1.7013,-1.9091,-2.0857,-2.2601,-2.4742,-2.6094,-2.7365,-2.9596,-3.069,-3.1021,-3.0294,-2.8366,-2.6099,-2.39,0.0,0.0,0.0,-1.6203,-1.5548,-1.4917,0.0,0.0,0.0,0.0,0.0,0.0,0.0,0.0,0.0,0.0,0.0,0.0,-2.8673,-2.884,-2.9872,-2.9362,-2.9093,-2.9296,-2.8925,-2.8615,-2.8448,-2.8429,-2.8246,-2.786,-2.7532,-2.7169,-2.6742,-2.6131,-2.5633,-2.522,-2.4998,-2.4904,-2.4917,-2.5077,-2.5152,-2.5163,-2.5264,-2.5303,-2.5303,-2.5303,-2.5303,-2.5303,-2.5303,-2.5303,-2.5303,0.0,0.0,0.0,0.0,0.0,0.0,0.0,0.0,0.0,0.0,0.0,0.0,0.0,0.0,0.0,0.0,0.0,0.0,0.0,0.0,0.0,0.0,0.0,0.0,0.0,0.0,0.0,-0.6599,0.0,0.0,0.0,0.0,0.0,0.0,0.0,0.0,0.0,0.0,0.0,0.0,0.0,0.0,0.0,0.0,0.0,0.0,0.0,0.0,0.0,0.0,-1.249,-1.4615,-1.8137,-2.0295,-2.1948,-2.3904,-2.5518,-2.7104,-2.9273,-3.0514,-3.0987,-3.0091,-2.7723,-2.5135,-2.3325,-2.0382,0.0,0.0,-1.6262,-1.5801,-1.5419,0.0,0.0,0.0,0.0,0.0,0.0,0.0,0.0,0.0,0.0,0.0,-2.9813,-2.9089,0.0,-3.0754,-2.9714,-2.8994,-2.8994,-2.8994,-2.8994,-2.8994,-2.9062,-2.9089,-2.9089,-2.8665,-2.8129,-2.7494,-2.6701,-2.5996,-2.5371,-2.5158,-2.5057,-2.5057,-2.5224,-2.5303,-2.5303,-2.5303,-2.5303,-2.5303,-2.5303,-2.5303,-2.5303,-2.5303,-2.5303,-2.5293,0.0,0.0,0.0,0.0,0.0,0.0,0.0,0.0,0.0,0.0,0.0,0.0,0.0,0.0,0.0,0.0,0.0,0.0,0.0,0.0,0.0,0.0,0.0,0.0,0.0,0.0,0.0,-0.6599,-0.6599,0.0,0.0,0.0,0.0,0.0,0.0,-0.6599,0.0,0.0,0.0,0.0,0.0,0.0,0.0,0.0,0.0,0.0,0.0,0.0,0.0,0.0,0.0,-1.18,-1.38,-1.7545,-2.1239,-2.1698,0.0,0.0,-2.8787,-3.0125,-3.0852,-2.9431,-2.7334,-2.4864,-2.2023,0.0,0.0,-1.7004,-1.6795,-1.6943,-1.7134,-1.6705,0.0,0.0,0.0,0.0,0.0,0.0,0.0,0.0,0.0,0.0,-2.903,-2.9007,-2.9025,-2.9195,-2.9067,-2.8994,-2.8994,-2.8994,-2.8994,-2.8994,-2.9225,-2.9372,-2.9372,-2.9495,-2.9528,-2.9433,-2.8021,-2.7323,-2.7208,-2.5872,-2.5274,-2.5274,-2.5284,-2.5303,-2.5303,-2.5303,-2.5303,-2.5303,-2.5303,-2.5303,-2.5303,-2.5303,-2.5303,-2.5303,0.0,0.0,0.0,0.0,0.0,0.0,0.0,0.0,0.0,0.0,0.0,0.0,0.0,0.0,0.0,0.0,0.0,0.0,0.0,0.0,0.0,0.0,0.0,0.0,0.0,0.0,0.0,-0.6599,-0.6599,0.0,0.0,0.0,0.0,0.0,0.0,-0.6599,-0.6599,0.0,0.0,0.0,0.0,0.0,0.0,0.0,0.0,0.0,0.0,0.0,0.0,0.0,0.0,0.0,-1.0391,-1.3016,0.0,0.0,-2.1858,-2.4474,-2.696,-2.9042,-3.0074,-2.8095,-2.6251,-2.4272,-2.1779,0.0,-1.7946,-1.6919,-1.6504,-1.6426,-1.6694,-1.6232,-1.5918,0.0,0.0,0.0,0.0,0.0,0.0,0.0,0.0,0.0,0.0,0.0,-2.8994,-2.8994,-2.8994,-2.9067,-2.9225,-2.9246,-2.9246,-2.9246,-2.9455,-2.957,-2.957,-2.978,-2.963,-2.9152,-2.8689,-2.7934,-2.6945,-2.6359,-2.5813,-2.5303,-2.5303,-2.5303,-2.5303,-2.5303,-2.5303,-2.5303,-2.5303,-2.5303,-2.5293,-2.5357,-2.5363,-2.5371,0.0,0.0,0.0,0.0,0.0,0.0,0.0,0.0,0.0,0.0,0.0,0.0,0.0,0.0,0.0,0.0,0.0,0.0,0.0,0.0,0.0,0.0,0.0,0.0,0.0,0.0,0.0,-0.6599,-0.6599,-0.6599,0.0,0.0,-0.6599,-0.6599,0.0,0.0,0.0,0.0,0.0,0.0,0.0,0.0,0.0,0.0,0.0,0.0,0.0,0.0,0.0,0.0,0.0,0.0,0.0,0.0,0.0,0.0,-1.893,-2.154,-2.4315,-2.6877,-2.8383,-2.6776,-2.4932,-2.3134,0.0,0.0,-1.741,-1.7194,-1.6649,-1.6323,-1.6655,-1.6171,-1.5732,0.0,0.0,0.0,0.0,0.0,0.0,0.0,0.0,-2.6521,-2.8113,-2.8791,-2.9112,-2.9112,-2.9163,-2.9291,-2.9474,-2.9551,-2.9533,-2.9494,-2.9678,-2.978,-2.978,-3.0018,-2.9817,-2.9276,-2.8921,-2.8121,-2.6967,-2.6447,-2.589,-2.5303,-2.5303,-2.5303,-2.5303,-2.5303,-2.5303,-2.5293,-2.5331,-2.5321,-2.5339,-2.5394,-2.5428,-2.5434,0.0,0.0,0.0,0.0,0.0,0.0,0.0,0.0,0.0,0.0,0.0,0.0,0.0,0.0,0.0,0.0,0.0,0.0,0.0,0.0,0.0,0.0,0.0,0.0,0.0,0.0,0.0,-0.6599,-0.6599,-0.6599,-0.6599,-0.6599,-0.6599,-0.6599,0.0,0.0,0.0,0.0,0.0,0.0,0.0,0.0,0.0,0.0,0.0,0.0,0.0,0.0,0.0,0.0,0.0,0.0,0.0,0.0,0.0,0.0,-1.5733,-1.9679,-2.0928,-2.341,-2.5642,-2.5625,-2.341,-2.1237,0.0,-1.8883,-1.7003,-1.799,-1.7544,-1.7126,-1.7606,-1.7023,-1.6309,-1.5795,0.0,0.0,0.0,0.0,0.0,0.0,0.0,-2.485,-2.6484,-2.8301,-2.9392,-2.9392,-2.9589,-2.9696,-2.9696,-2.9893,-2.9908,-2.9713,-2.9893,-2.9999,-2.9999,-3.0254,-3.0379,-3.0359,-2.8698,-2.789,-2.7832,-2.6101,-2.5303,-2.5303,-2.5303,-2.5303,-2.5303,-2.5303,-2.5303,-2.5322,-2.5379,-2.5398,-2.5413,-2.5463,-2.5508,-2.5517,0.0,0.0,0.0,0.0,0.0,0.0,0.0,0.0,0.0,0.0,0.0,0.0,0.0,0.0,0.0,0.0,0.0,0.0,0.0,0.0,0.0,0.0,0.0,0.0,0.0,0.0,0.0,-0.6599,-0.6599,-0.6599,-0.6599,-0.6599,-0.6599,-0.6599,-0.6599,-0.6599,0.0,0.0,0.0,0.0,0.0,0.0,0.0,0.0,0.0,0.0,0.0,0.0,0.0,0.0,0.0,0.0,0.0,0.0,0.0,0.0,0.0,0.0,-1.7603,-1.9908,-2.1522,-2.0534,-1.9959,-1.9399,-1.8523,-1.7195,-1.6123,-1.6028,-1.5917,-1.5902,-1.6084,-1.6486,-1.6716,-1.6547,-1.7202,0.0,0.0,0.0,0.0,-2.3328,-2.6205,-2.8165,0.0,-2.9251,-2.9607,-2.9607,-2.9661,-2.9746,-2.9908,-2.9969,-2.9969,-2.9908,-3.0136,-3.0267,-3.0267,-3.0355,-3.0102,-2.9506,-2.8967,-2.8121,-2.6986,-2.6447,-2.587,-2.5303,-2.5303,-2.5303,-2.5293,-2.5346,-2.5371,-2.5379,-2.5441,-2.5477,-2.5482,-2.5547,-2.5564,-2.557,0.0,0.0,0.0,0.0,0.0,0.0,0.0,0.0,0.0,0.0,0.0,0.0,0.0,0.0,0.0,0.0,0.0,0.0,0.0,0.0,0.0,0.0,0.0,0.0,0.0,0.0,0.0,-0.6599,-0.6599,-0.6599,-0.6599,-0.6599,-0.6599,-0.6599,-0.6599,0.0,0.0,0.0,0.0,0.0,0.0,0.0,-0.7029,0.0,0.0,0.0,0.0,0.0,0.0,0.0,0.0,0.0,0.0,0.0,0.0,0.0,-1.0318,0.0,0.0,-1.6661,-1.8177,-1.754,-1.7572,0.0,0.0,-1.6251,-1.5556,-1.5573,-1.5425,-1.5328,-1.5488,-1.6031,-1.645,-1.645,-1.7381,0.0,0.0,0.0,0.0,-2.4242,0.0,0.0,-2.9204,-2.9593,-2.9813,-2.9813,-2.9912,-3.0022,-3.0136,-3.015,-3.015,-3.015,-3.0311,-3.0398,-3.0398,-3.0398,-2.9967,-2.9102,-2.8794,-2.7928,-2.6582,-2.6255,-2.5813,-2.5313,-2.5321,-2.5339,0.0,-2.5401,-2.5441,-2.5447,-2.5503,-2.5543,-2.5551,-2.5607,-2.5636,-2.5637,0.0,0.0,0.0,0.0,0.0,0.0,0.0,0.0,0.0,0.0,0.0,0.0,0.0,0.0,0.0,0.0,0.0,0.0,0.0,0.0,0.0,0.0,0.0,0.0,0.0,-0.6599,-0.6599,-0.6599,-0.6599,-0.6599,-0.6599,-0.6599,-0.6599,-0.6599,-0.6599,-0.6616,-0.6633,-0.6807,-0.6894,-0.6944,-0.7098,-0.718,0.0,0.0,0.0,0.0,0.0,0.0,0.0,0.0,0.0,0.0,0.0,0.0,0.0,0.0,0.0,0.0,0.0,0.0,0.0,0.0,0.0,0.0,0.0,-1.5836,0.0,-1.6166,-1.5746,-1.5329,-1.5649,-1.5747,-1.5802,-1.5857,0.0,0.0,0.0,-1.9954,0.0,0.0,-2.6446,-2.779,-2.8474,-2.9444,-3.0028,-3.0028,-3.0254,-3.0398,-3.0398,-3.0398,-3.0398,-3.0398,-3.034,-3.034,-3.0398,-3.034,-2.9871,-2.8986,-2.8179,-2.7362,-2.6496,-2.5688,-2.5303,-2.5322,-2.5376,-2.5401,-2.5408,-2.5468,-2.5517,-2.5503,-2.5573,-2.5605,-2.5607,-2.5682,-2.5703,-2.5703,0.0,0.0,0.0,0.0,0.0,0.0,0.0,0.0,0.0,0.0,0.0,0.0,0.0,0.0,0.0,0.0,0.0,0.0,0.0,0.0,0.0,0.0,0.0,0.0,0.0,-0.6599,-0.6599,-0.6599,-0.6599,-0.6599,-0.6599,-0.6599,-0.6599,-0.6599,-0.6599,-0.6685,-0.6824,-0.6706,-0.6861,-0.7114,-0.7012,-0.7064,0.0,0.0,0.0,0.0,-0.7753,-0.7982,0.0,0.0,0.0,0.0,0.0,0.0,0.0,0.0,-0.9088,-0.9369,-1.0598,0.0,-1.2585,-1.276,-1.359,-1.4455,0.0,0.0,0.0,0.0,0.0,0.0,0.0,0.0,0.0,0.0,0.0,0.0,-1.9934,0.0,0.0,-2.5863,-2.8147,-2.9475,-2.8995,-2.9768,-3.0311,-3.0311,-3.0367,-3.0398,-3.0398,-3.0398,-3.0398,-3.0398,-2.9756,-2.9737,-3.0379,-2.9737,-2.8986,-2.8159,-2.7313,-2.6477,-2.5669,-2.5476,-2.5406,-2.5459,-2.5477,-2.5488,-2.5473,-2.5551,-2.559,-2.5573,-2.5658,-2.5682,-2.5683,-2.5683,-2.5703,-2.5703,0.0,0.0,0.0,0.0,0.0,0.0,0.0,0.0,0.0,0.0,0.0,0.0,0.0,0.0,0.0,0.0,0.0,0.0,0.0,0.0,0.0,0.0,0.0,0.0,0.0,-0.6517,-0.6535,-0.6418,-0.6535,-0.6599,-0.6599,-0.6599,-0.6599,-0.6599,-0.6599,-0.6706,-0.6891,-0.6791,-0.6914,-0.7209,-0.7221,0.0,0.0,0.0,0.0,0.0,-0.7938,-0.8147,0.0,-0.8645,-0.8738,-0.8824,0.0,0.0,0.0,0.0,-0.9293,-0.941,-0.9978,-1.0841,-1.1783,-1.2517,-1.3374,-1.4154,0.0,0.0,0.0,0.0,0.0,0.0,0.0,0.0,0.0,0.0,-1.9261,0.0,0.0,0.0,-2.4981,-2.6278,-2.8096,-2.9371,-2.9679,-2.9756,-2.9967,-3.0359,-2.9698,-2.941,-2.9775,-2.9448,-2.9256,-2.9256,-2.8794,-2.8948,-2.9794,-2.8967,-2.8121,-2.7294,-2.6832,-2.6178,-2.5398,-2.5406,-2.5434,-2.5493,-2.5539,-2.5551,-2.5554,-2.5629,-2.5657,-2.5658,-2.5683,-2.5703,-2.5703,-2.5703,-2.5703,-2.5703,0.0,0.0,0.0,0.0,0.0,0.0,0.0,0.0,0.0,0.0,0.0,0.0,0.0,0.0,0.0,0.0,0.0,0.0,0.0,0.0,0.0,0.0,0.0,0.0,0.0,0.0,-0.65,-0.6254,-0.65,-0.6599,-0.6599,-0.6599,-0.6616,-0.6651,-0.6672,-0.6774,-0.6908,-0.6908,-0.7012,-0.7225,-0.7408,0.0,0.0,0.0,0.0,0.0,0.0,0.0,0.0,-0.8677,-0.8807,-0.8921,-0.9068,0.0,0.0,0.0,0.0,0.0,-0.9968,-1.0856,-1.1996,-1.3372,-1.4072,-1.4601,0.0,0.0,0.0,0.0,0.0,0.0,0.0,0.0,0.0,0.0,0.0,0.0,-2.2782,-2.3239,-2.4151,-2.631,-2.7456,-2.8544,-2.9717,-2.9275,-2.9217,-2.9967,-2.8698,-2.8198,-2.8871,-2.8275,-2.789,-2.789,-2.7775,-2.8025,-2.8698,-2.8044,-2.7343,-2.6612,-2.6477,-2.6069,-2.5421,-2.5428,-2.5477,-2.552,-2.5595,-2.5627,-2.5629,-2.5682,-2.5703,-2.5703,-2.5703,-2.5703,-2.5703,-2.5703,-2.5703,-2.5703,0.0,0.0,0.0,0.0,0.0,0.0,0.0,0.0,0.0,0.0,0.0,0.0,0.0,0.0,0.0,0.0,0.0,0.0,0.0,0.0,0.0,0.0,0.0,0.0,0.0,0.0,0.0,0.0,0.0,0.0,-0.6599,-0.6599,-0.6702,-0.6874,-0.7031,-0.7031,-0.6908,-0.6908,-0.7012,-0.7193,-0.7061,0.0,0.0,0.0,0.0,0.0,0.0,0.0,0.0,-0.8891,-0.9099,-0.935,-0.9159,0.0,0.0,0.0,0.0,0.0,-1.1333,-1.1864,-1.2073,-1.2328,-1.394,-1.549,0.0,0.0,0.0,0.0,0.0,0.0,0.0,0.0,0.0,0.0,0.0,-2.3738,0.0,0.0,-2.6702,-2.6371,-2.7881,-2.8448,-2.7294,-2.7736,-2.814,-2.8275,-2.8044,-2.7948,-2.8082,-2.7967,-2.789,-2.789,-2.7178,-2.6851,-2.6986,-2.6851,-2.6766,-2.6691,-2.5944,-2.557,-2.5564,-2.5564,-2.5603,-2.5662,-2.5683,-2.5683,-2.5683,-2.5703,-2.5703,-2.5703,-2.5703,-2.5703,-2.5703,-2.5703,-2.5703,-2.5703,0.0,0.0,0.0,0.0,0.0,0.0,0.0,0.0,0.0,0.0,0.0,0.0,0.0,0.0,0.0,0.0,0.0,0.0,0.0,0.0,0.0,0.0,0.0,0.0,0.0,0.0,0.0,0.0,0.0,-0.6811,-0.6599,-0.6706,-0.6807,-0.6911,-0.7098,-0.7239,-0.7282,-0.7253,-0.7334,-0.7532,0.0,0.0,0.0,0.0,0.0,0.0,0.0,0.0,0.0,0.0,-0.9218,-0.9483,-0.9358,0.0,0.0,0.0,0.0,0.0,-1.0581,-1.1434,-1.2095,-1.2095,-1.3581,-1.5288,0.0,0.0,0.0,0.0,0.0,0.0,0.0,0.0,-1.9195,-2.0982,0.0,-2.435,-2.5842,-2.5855,-2.5891,-2.6408,-2.6809,-2.7101,-2.7294,-2.7236,-2.739,-2.7852,-2.7024,-2.6697,-2.7178,-2.6755,-2.6505,-2.6505,-2.614,-2.5944,-2.5953,-2.5991,-2.5994,-2.5987,-2.5635,-2.5517,-2.5601,-2.5601,-2.5636,-2.5703,-2.5703,-2.5703,-2.5703,-2.5703,-2.5703,-2.5703,-2.5703,-2.5703,-2.5703,-2.5703,-2.5703,-2.5703,0.0,0.0,0.0,0.0,0.0,0.0,0.0,0.0,0.0,0.0,0.0,0.0,0.0,0.0,0.0,0.0,0.0,0.0,0.0,0.0,0.0,0.0,0.0,0.0,0.0,0.0,-0.6956,-0.6438,-0.7039,-0.7162,-0.6794,-0.6911,-0.6993,-0.7042,-0.727,-0.7471,-0.765,-0.7591,-0.768,-0.7882,0.0,0.0,0.0,0.0,0.0,0.0,0.0,0.0,0.0,0.0,0.0,0.0,0.0,0.0,0.0,-0.9698,-0.9698,-0.9735,-0.9937,-1.1012,-1.215,-1.2333,0.0,-1.5244,-1.6877,0.0,0.0,0.0,0.0,0.0,0.0,-1.8802,0.0,-2.2467,-2.3726,-2.4687,-2.5558,-2.5118,-2.5159,-2.6447,-2.6005,-2.6063,-2.7178,-2.6697,-2.6563,-2.7236,-2.6063,-2.5591,-2.6255,-2.5678,-2.5312,-2.5312,-2.5383,-2.5415,-2.5421,-2.5484,-2.5508,-2.5453,-2.5508,-2.5558,-2.5611,-2.5611,-2.5658,-2.5703,-2.5703,-2.5703,-2.5703,-2.5703,-2.5703,-2.5703,-2.5703,-2.5703,-2.5703,-2.5703,-2.5703,-2.5703,0.0,0.0,0.0,0.0,0.0,0.0,0.0,0.0,0.0,0.0,0.0,0.0,0.0,0.0,0.0,0.0,0.0,0.0,0.0,0.0,0.0,0.0,0.0,0.0,0.0,-0.6983,-0.718,-0.7132,-0.7548,-0.7607,-0.7349,-0.7241,-0.7286,-0.7469,-0.7739,-0.7826,-0.7782,-0.7782,-0.7896,-0.8061,-0.7894,0.0,0.0,0.0,0.0,0.0,0.0,0.0,0.0,0.0,0.0,0.0,0.0,0.0,-0.9698,-0.9698,-0.9698,-0.9864,-1.06,-1.1452,-1.2278,-1.3023,0.0,0.0,-1.7912,0.0,0.0,0.0,0.0,0.0,0.0,-1.9049,-2.1015,-2.3572,-2.4668,-2.5783,-2.7456,-2.6967,-2.6467,-2.6582,-2.6544,-2.6236,-2.5553,-2.5418,-2.5418,-2.5476,-2.536,-2.5322,-2.538,-2.5393,-2.5391,-2.5379,-2.5465,-2.5484,-2.5484,-2.5558,-2.5595,-2.5593,-2.5595,-2.5633,-2.5683,-2.5683,-2.5703,-2.5703,-2.5703,-2.5703,-2.5703,-2.5703,-2.5703,-2.5703,-2.5703,-2.5703,-2.5703,-2.5703,-2.5703,-2.5703,0.0,0.0,0.0,0.0,0.0,0.0,0.0,0.0,0.0,0.0,0.0,0.0,0.0,0.0,0.0,0.0,0.0,0.0,0.0,0.0,0.0,0.0,0.0,-0.7736,-0.7112,-0.7256,-0.7162,-0.6815,-0.7473,-0.7577,-0.713,-0.616,0.0,-0.7575,-0.7883,-0.8008,-0.7993,-0.8253,-0.8396,-0.8476,-0.8477,-0.8518,0.0,0.0,0.0,0.0,0.0,0.0,0.0,0.0,-0.9612,-0.9768,0.0,0.0,0.0,0.0,-0.9791,-0.9835,-1.0124,-1.1203,-1.2297,-1.2594,0.0,0.0,0.0,0.0,0.0,0.0,0.0,0.0,0.0,0.0,-2.2975,-2.3937,-2.5236,-2.6351,-2.7005,-2.6813,-2.6601,-2.6601,-2.612,-2.5649,-2.5322,-2.5303,-2.5303,-2.5303,-2.5303,-2.5322,-2.5363,-2.5383,-2.5415,-2.5451,-2.5535,-2.5561,-2.5561,-2.5633,-2.5661,-2.5661,-2.5661,-2.5682,-2.5703,-2.5703,-2.5703,-2.5703,-2.5703,-2.5703,-2.5703,-2.5703,-2.5703,-2.5703,-2.5703,-2.5703,-2.5683,-2.5659,-2.5636,-2.5634,0.0,0.0,0.0,0.0,0.0,0.0,0.0,0.0,0.0,0.0,0.0,0.0,0.0,0.0,0.0,0.0,0.0,0.0,0.0,0.0,0.0,0.0,0.0,-0.8136,-0.6523,-0.6926,-0.7114,-0.7082,-0.6867,-0.6987,-0.7412,0.0,0.0,-0.7797,-0.8008,-0.8171,-0.8303,-0.8592,-0.8729,-0.8771,-0.8858,-0.8869,0.0,0.0,0.0,0.0,0.0,0.0,0.0,0.0,-0.9766,0.0,0.0,0.0,0.0,0.0,-0.9875,-0.9894,-1.0162,-1.1262,-1.2383,0.0,0.0,0.0,0.0,0.0,0.0,0.0,0.0,0.0,0.0,0.0,0.0,0.0,-2.5274,-2.6197,-2.6197,-2.6197,-2.6197,-2.6197,-2.5669,-2.5215,-2.4946,-2.4943,-2.4852,-2.4593,-2.4574,-2.4594,-2.4646,-2.4651,-2.469,-2.4732,-2.4798,-2.4813,-2.4813,-2.4881,-2.4902,-2.4902,-2.4902,-2.5195,-2.5703,-2.5703,-2.5703,-2.5703,-2.5703,-2.5703,-2.5703,-2.5703,-2.5683,-2.5662,-2.5662,-2.5659,-2.5633,-2.5593,-2.5564,-2.5561,0.0,0.0,0.0,0.0,0.0,0.0,0.0,0.0,0.0,0.0,0.0,0.0,0.0,0.0,0.0,0.0,0.0,0.0,0.0,-0.0051,-0.0085,0.0,0.0,-0.7536,-0.4601,-0.5915,-0.7087,-0.8018,-0.5692,-0.5864,-0.8355,-0.7767,0.0,0.0,-0.8144,-0.8332,-0.8705,-0.8705,-0.8771,-0.8902,-0.8902,-0.899,-0.9099,0.0,0.0,0.0,0.0,0.0,0.0,0.0,-0.9893,0.0,0.0,0.0,0.0,0.0,-0.9893,-1.0087,-1.0942,-1.1786,0.0,0.0,0.0,0.0,0.0,0.0,0.0,0.0,0.0,-2.2043,-2.3783,-2.2697,0.0,-2.3821,-2.4774,-2.5303,-2.5303,-2.5313,-2.5313,-2.5293,-2.5343,-2.5057,-2.4176,-2.4152,-2.3864,-2.3057,-2.2999,-2.2999,-2.2999,-2.3056,-2.3098,-2.3098,-2.3102,-2.3105,-2.3105,-2.3164,-2.3203,-2.3203,-2.3203,-2.4082,-2.5684,-2.5684,-2.5684,-2.5684,-2.5703,-2.5703,-2.5703,-2.5703,-2.566,-2.5601,-2.5601,-2.5558,-2.5493,-2.5489,-2.5489,-2.5508,0.0,0.0,0.0,0.0,0.0,0.0,0.0,0.0,0.0,0.0,0.0,0.0,0.0,0.0,0.0,0.0,0.0,0.0,0.0,0.0,-0.6249,-0.6249,0.0,0.0,0.0,0.0,-0.6305,-0.2402,-0.5884,-0.6933,0.0,0.0,0.0,-0.8348,0.0,0.0,-0.8705,-0.8806,-0.8913,-0.9054,-0.9054,-0.9119,-0.9237,0.0,0.0,0.0,0.0,0.0,0.0,0.0,0.0,0.0,0.0,0.0,0.0,-1.0044,-1.0016,-1.0038,-1.029,-1.1399,0.0,0.0,0.0,0.0,0.0,0.0,0.0,0.0,0.0,-2.2754,-2.3898,-2.4139,-2.4159,-2.411,-2.4774,-2.5322,-2.5352,-2.536,-2.5151,-2.4587,-2.4541,-2.4222,-2.3415,-2.3339,-2.3257,-2.3018,-2.2999,-2.3022,-2.3079,-2.3093,-2.3129,-2.3161,-2.3125,-2.3105,-2.3105,-2.3164,-2.3203,-2.3203,-2.3769,-2.3984,-2.3887,-2.4512,-2.4785,-2.4824,-2.543,-2.5703,-2.5703,-2.5658,-2.5595,-2.5535,-2.5535,-2.5526,-2.5484,-2.5453,-2.5434,-2.5421,0.0,0.0,0.0,0.0,0.0,0.0,0.0,0.0,0.0,0.0,0.0,0.0,0.0,0.0,0.0,0.0,0.0,0.0,0.0,0.0,-0.9455,-0.9455,-0.9304,-0.8618,-0.7294,-0.8661,-0.6971,0.0,0.0,0.0,0.0,0.0,0.0,-0.8555,0.0,-0.8721,-0.8858,-0.8985,-0.9054,-0.9099,-0.9149,-0.9275,-0.9429,0.0,0.0,0.0,0.0,0.0,0.0,0.0,0.0,0.0,0.0,0.0,0.0,-1.0094,-1.0074,-1.0125,-1.0455,0.0,0.0,0.0,0.0,0.0,0.0,0.0,0.0,0.0,0.0,-2.3571,-2.4409,-2.4716,-2.4774,-2.4645,-2.502,-2.5363,-2.5434,-2.513,-2.4735,-2.4253,-2.3945,-2.3451,-2.2606,-2.2549,-2.2422,-2.2068,-2.2049,-2.206,-2.2099,-2.2119,-2.2124,-2.2168,-2.2129,-2.2109,-2.2109,-2.2148,-2.2168,-2.2168,-2.2656,-2.2617,-2.2168,-2.3709,-2.4392,-2.4431,-2.4933,-2.4949,-2.4676,-2.5297,-2.5122,-2.4524,-2.5199,-2.5259,-2.4988,-2.5252,-2.5363,-2.5354,0.0,0.0,0.0,0.0,0.0,0.0,0.0,0.0,0.0,0.0,0.0,0.0,0.0,0.0,0.0,0.0,0.0,0.0,0.0,0.0,-0.9648,-1.0273,-0.9862,-0.8103,-0.4838,-0.8276,-0.861,-0.5548,-0.7826,0.0,0.0,0.0,-0.8591,-0.8824,0.0,-0.8638,-0.8848,-0.9097,-0.9184,-0.9139,-0.9275,-0.9491,-0.9732,-0.9739,0.0,0.0,0.0,0.0,0.0,0.0,0.0,0.0,0.0,0.0,-1.0102,-1.0102,-1.0102,-1.0275,0.0,0.0,0.0,0.0,0.0,0.0,0.0,0.0,0.0,-2.4928,0.0,-2.4436,-2.5187,-2.4657,-2.4364,-2.5166,-2.5239,-2.5189,-2.5274,-2.4598,-2.4073,-2.3999,-2.3394,-2.2654,-2.1774,-2.1754,-2.1445,-2.0664,-2.0527,-2.0527,-2.0605,-2.0527,-2.0527,-2.0605,-2.0605,-2.0605,-2.0605,-2.0605,-2.0605,-2.0605,-2.0664,-2.0703,-2.0781,-2.3116,-2.42,-2.4276,-2.4218,-2.3727,-2.3104,-2.4632,-2.4339,-2.3043,-2.4566,-2.4725,-2.4187,-2.4928,-2.5245,-2.5303,0.0,0.0,0.0,0.0,0.0,0.0,0.0,0.0,0.0,0.0,0.0,0.0,0.0,0.0,0.0,0.0,0.0,0.0,0.0,0.0,-0.4629,-1.0059,-0.9505,-0.7657,-0.4622,-0.8196,-0.972,-0.894,-0.9128,0.0,0.0,0.0,0.0,-0.9116,0.0,-0.8448,-0.6931,-0.8585,-0.9331,-0.9421,-0.9506,-1.0034,-1.0789,-1.0833,-1.0917,0.0,0.0,0.0,0.0,0.0,0.0,0.0,-1.0177,-1.0177,-1.0177,-1.0177,-1.0177,-1.0215,0.0,0.0,0.0,0.0,0.0,0.0,0.0,0.0,-2.3275,-2.3378,-2.4339,-2.5193,-2.5414,-2.476,-2.4236,-2.4427,-2.3936,-2.3529,-2.3608,-2.3458,-2.3098,-2.2474,-2.2243,-2.1815,-2.0936,-2.0879,-2.0801,-2.0605,-1.9961,-1.9883,-2.0566,-1.9941,-1.9883,-2.0586,-2.0605,-2.0605,-2.0605,-2.0605,-2.0605,-2.0605,-2.1245,-2.1531,-2.1551,-2.2114,-2.2706,-2.3302,-2.3291,-2.314,-2.2951,-2.332,-2.3204,-2.2855,-2.3221,-2.3666,-2.4129,-2.4302,-2.4755,-2.5303,0.0,0.0,0.0,0.0,0.0,0.0,0.0,0.0,0.0,0.0,0.0,0.0,0.0,0.0,0.0,0.0,0.0,0.0,0.0,0.0,0.0,0.0,-0.8062,-0.8307,-0.561,-0.6974,-0.8472,0.0,0.0,0.0,0.0,0.0,0.0,-0.9287,0.0,-0.7512,-0.7853,-0.9032,-0.9536,-0.9591,-1.0146,-1.0702,-1.1245,-1.1655,-1.1885,-1.193,-1.1503,0.0,0.0,0.0,0.0,0.0,0.0,0.0,-1.0193,-1.0193,-1.0193,-1.0193,0.0,0.0,0.0,0.0,0.0,0.0,0.0,0.0,-2.1993,-2.2819,-2.3664,-2.4385,-2.4798,-2.4195,-2.3757,-2.4175,-2.3575,-2.3062,-2.3096,-2.2766,-2.2378,-2.1953,-2.1152,-2.0644,-2.0605,-2.0215,-2.0156,-2.0566,-2.0176,-2.0117,-2.0586,-2.0176,-2.0137,-2.0586,-2.0605,-2.0605,-2.0605,-2.0605,-2.0585,-2.0561,-2.0983,-2.1138,-2.1099,-2.1512,-2.1716,-2.1731,-2.2119,-2.203,-2.1712,-2.2523,-2.235,-2.1716,-2.2947,-2.3456,-2.3571,-2.437,-2.4947,-2.5303,0.0,0.0,0.0,0.0,0.0,0.0,0.0,0.0,0.0,0.0,0.0,0.0,0.0,0.0,0.0,0.0,0.0,0.0,0.0,0.0,0.0,0.0,-0.5469,-0.8138,-0.7337,-0.6456,-0.7342,0.0,0.0,0.0,0.0,0.0,0.0,-0.9679,0.0,-0.7214,-0.982,-0.9808,-0.9828,-0.9957,-1.0854,-1.1426,-1.1807,-1.2481,-1.2807,-1.2815,-1.2097,-1.1654,-1.1292,-1.0631,0.0,0.0,0.0,0.0,-1.0419,-1.0424,-1.0323,-1.0203,0.0,0.0,0.0,0.0,0.0,0.0,0.0,0.0,-2.0412,-2.1911,-2.2647,-2.3216,-2.3895,-2.3365,-2.3049,-2.3769,-2.3205,-2.2665,-2.2676,-2.1973,-2.1445,-2.1445,-2.0059,-1.9355,-2.0078,-1.9492,-1.9375,-2.0098,-2.0019,-1.998,-2.0137,-2.0156,-2.0215,-2.0371,-2.0527,-2.0605,-2.0605,-2.0586,-2.0543,-2.0508,-2.0477,-2.041,-2.0328,-2.1056,-2.0978,-2.035,-2.1004,-2.0927,-2.0408,-2.1793,-2.1543,-2.0523,-2.2774,-2.3302,-2.2985,-2.4524,-2.5158,-2.5253,0.0,0.0,0.0,0.0,0.0,0.0,0.0,0.0,0.0,0.0,0.0,0.0,0.0,0.0,0.0,0.0,0.0,0.0,0.0,0.0,0.0,0.0,-0.0879,-0.4023,-0.9706,-0.9687,-0.9795,0.0,0.0,0.0,0.0,0.0,0.0,-1.1003,0.0,0.0,-1.1094,-1.0189,-1.0262,-1.0999,-1.1203,-1.2164,-1.3481,-1.3643,-1.3717,-1.3739,-1.3666,-1.2672,-1.1395,-1.1332,-1.1322,0.0,0.0,0.0,-1.1321,-1.1328,-1.0799,-1.0204,0.0,0.0,0.0,0.0,0.0,0.0,0.0,0.0,-1.8397,0.0,-2.1022,-2.314,-2.3297,-2.2635,-2.2088,-2.2207,-2.1503,-2.0937,-2.0937,-2.0195,-1.9648,-1.9648,-1.8789,-1.8223,-1.834,-1.8242,-1.8223,-1.834,-1.7656,-1.7559,-1.8301,-1.8359,-1.8691,-1.9453,-2.0215,-2.0605,-2.0605,-2.054,-2.0511,-2.0508,-2.0374,-2.0314,-2.0308,-2.0431,-2.0404,-2.0312,-2.0408,-2.0408,-2.0331,-2.0542,-2.0504,-2.0408,-2.1446,-2.2235,-2.2908,-2.3898,-2.4589,-2.5034,0.0,0.0,0.0,0.0,0.0,0.0,0.0,0.0,0.0,0.0,0.0,0.0,0.0,0.0,0.0,0.0,0.0,0.0,0.0,0.0,-0.1719,-0.5605,-0.5762,-0.7187,-1.0234,-1.0293,0.0,0.0,0.0,0.0,0.0,-1.1403,-1.1301,0.0,0.0,0.0,0.0,0.0,-1.1547,-1.1989,-1.2536,-1.3196,-1.3906,-1.4428,-1.4632,-1.4566,-1.4158,-1.352,-1.2791,-1.2372,-1.2221,-1.2227,-1.2221,0.0,0.0,0.0,-1.0886,0.0,0.0,0.0,0.0,0.0,0.0,0.0,0.0,0.0,-1.7402,-1.7891,-1.9588,-2.113,-2.1641,-2.1426,-2.1328,-2.1816,-2.0762,-2.0039,-2.0527,-1.9434,-1.875,-1.9238,-1.8105,-1.7461,-1.7949,-1.7559,-1.7461,-1.7969,-1.7637,-1.7598,-1.7988,-1.8008,-1.8184,-1.8555,-1.8945,-1.9375,-1.9863,-1.9815,-1.9982,-2.0398,-2.034,-2.0292,-2.0312,-2.0312,-2.0312,-2.0312,-2.0312,-2.0312,-2.0312,-2.0312,-2.0493,-2.0881,-2.1732,-2.2533,-2.3293,-2.4174,-2.4658,-2.4891,0.0,0.0,0.0,0.0,0.0,0.0,0.0,0.0,0.0,0.0,0.0,0.0,0.0,0.0,0.0,0.0,-0.1602,-0.2617,-0.2617,-0.0977,-0.2695,-0.8711,-0.98,-1.0405,-1.0723,-1.0722,0.0,0.0,0.0,0.0,-1.2818,-1.3183,-1.2848,0.0,-1.2262,0.0,0.0,0.0,0.0,0.0,0.0,-1.4047,0.0,-1.4973,-1.5355,-1.5458,-1.4644,-1.4354,-1.4231,-1.3411,-1.3125,-1.3138,-1.3104,-1.2662,0.0,0.0,0.0,0.0,0.0,0.0,0.0,0.0,0.0,0.0,0.0,0.0,-1.6543,-1.7207,-1.8027,-1.8848,-1.9492,-1.9961,-2.0547,-2.1426,-2.0293,-1.9609,-2.0488,-1.9297,-1.8574,-1.9219,-1.7754,-1.6953,-1.7617,-1.6875,-1.6641,-1.7285,-1.7344,-1.7344,-1.7344,-1.7559,-1.7676,-1.7676,-1.7871,-1.8418,-1.9276,-1.9409,-1.9752,-2.0296,-2.0304,-2.0312,-2.0312,-2.0312,-2.0312,-2.0312,-2.0312,-2.0277,-2.0233,-2.0436,-2.0766,-2.1271,-2.2334,-2.307,-2.3611,-2.4469,-2.4775,-2.4731,0.0,0.0,0.0,0.0,0.0,0.0,0.0,0.0,0.0,0.0,0.0,0.0,0.0,0.0,0.0,0.0,-0.5977,-0.9766,-0.9766,-0.3633,-0.1602,-0.5215,-0.8406,0.0,-1.1894,-1.1908,0.0,0.0,0.0,0.0,-1.2838,-1.4418,-1.4697,-1.3818,-1.2895,-1.2947,-1.3659,0.0,0.0,0.0,0.0,0.0,0.0,0.0,-1.58,0.0,0.0,-1.5332,-1.5182,-1.4332,-1.4028,-1.4024,-1.3958,-1.3948,0.0,0.0,0.0,0.0,0.0,0.0,0.0,0.0,0.0,0.0,0.0,0.0,-1.5488,-1.5527,-1.623,-1.6855,-1.6894,-1.8242,-1.9648,-2.0527,-1.9902,-1.9609,-2.0488,-1.9805,-1.9258,-1.9297,-1.7754,-1.6719,-1.6758,-1.5977,-1.5488,-1.5527,-1.5547,-1.5547,-1.5547,-1.6328,-1.6777,-1.6777,-1.7578,-1.8396,-1.92,-1.9899,-2.0257,-2.03,-2.0292,-2.0312,-2.0312,-2.0312,-2.0312,-2.0312,-2.0312,-2.0197,-2.0069,-2.084,-2.1096,-2.1174,-2.2814,-2.3474,-2.3611,-2.4469,-2.4685,-2.4528,0.0,0.0,0.0,0.0,0.0,0.0,0.0,0.0,0.0,0.0,0.0,0.0,0.0,0.0,0.0,0.0,-0.6309,-1.0293,-1.0293,-0.7988,-0.7148,-0.8331,-1.0213,-1.1395,-1.1677,-1.2191,0.0,0.0,0.0,-1.4237,-1.4472,-1.5079,-1.516,-1.4824,-1.44,-1.4405,-1.4686,-1.4372,0.0,0.0,0.0,0.0,0.0,0.0,0.0,0.0,0.0,0.0,0.0,0.0,0.0,0.0,0.0,0.0,0.0,0.0,0.0,0.0,0.0,0.0,0.0,0.0,0.0,0.0,-1.4076,-1.4862,-1.5391,-1.5391,-1.6094,-1.6699,-1.6699,-1.7676,-1.8574,-1.8887,-1.8203,-1.8125,-1.9551,-1.8047,-1.7207,-1.832,-1.6934,-1.5879,-1.5873,-1.558,-1.5404,-1.5404,-1.5404,-1.5404,-1.5404,-1.5697,-1.585,-1.5799,-1.6091,-1.6642,-1.7455,-1.8271,-1.8948,-1.9473,-1.9473,-1.9754,-2.0304,-2.0161,-2.0115,-2.0106,-2.0021,-2.0287,-2.0792,-2.0979,-2.1606,-2.2469,-2.3067,-2.3582,-2.3985,-2.4299,-2.4375,-2.4303,0.0,0.0,0.0,0.0,0.0,0.0,0.0,0.0,0.0,0.0,0.0,0.0,0.0,0.0,-0.3409,-0.3457,-0.8184,-1.0918,-1.0308,-1.0621,-1.0772,-1.0638,-1.1796,-1.2409,-1.2348,-1.2587,0.0,0.0,0.0,0.0,0.0,-1.5371,-1.5355,-1.5329,-1.5255,-1.5218,0.0,0.0,0.0,-1.524,0.0,0.0,-1.5827,0.0,0.0,0.0,0.0,0.0,0.0,0.0,0.0,0.0,0.0,0.0,0.0,0.0,0.0,0.0,0.0,0.0,0.0,0.0,0.0,-1.2156,-0.9675,-1.2379,-1.5408,-1.5407,-1.5857,-1.6267,-1.6225,-1.6693,-1.7282,-1.7891,-1.7265,-1.7304,-1.9043,-1.7793,-1.7108,-1.828,-1.7127,-1.6127,-1.5836,-1.5539,-1.5364,-1.5364,-1.5364,-1.5364,-1.5364,-1.5635,-1.5779,-1.5741,-1.5705,-1.5955,-1.6493,-1.7335,-1.819,-1.8992,-1.8992,-1.9412,-2.0197,-2.0069,-1.9983,-1.9933,-1.9778,-2.0245,-2.1091,-2.126,-2.2062,-2.3154,-2.3432,-2.3805,-2.419,-2.419,-2.419,-2.419,0.0,0.0,0.0,0.0,0.0,0.0,0.0,0.0,0.0,0.0,0.0,0.0,0.0,0.0,0.0,-1.0428,-1.1992,-1.2222,-1.0472,-1.133,-1.1815,-1.1548,-1.2803,-1.3676,-1.3998,-1.3193,0.0,0.0,0.0,0.0,0.0,0.0,-1.535,0.0,-1.5329,-1.527,-1.5201,0.0,-1.5214,-1.5303,0.0,-1.6553,-1.6731,0.0,0.0,0.0,-1.7344,-1.7266,0.0,-1.5986,0.0,0.0,0.0,0.0,0.0,0.0,0.0,0.0,0.0,0.0,0.0,0.0,0.0,0.0,-0.2274,0.0,-1.5391,-1.5405,-1.5409,-1.5387,-1.5302,-1.5296,-1.5886,-1.7636,-1.7202,-1.7276,-1.9003,-1.9156,-1.9108,-1.9166,-1.8365,-1.7497,-1.6631,-1.5805,-1.5296,-1.5296,-1.5296,-1.5296,-1.5296,-1.6101,-1.656,-1.656,-1.6497,-1.6455,-1.6455,-1.7253,-1.8107,-1.8972,-1.8992,-1.9353,-1.9984,-1.9984,-1.9922,-1.9797,-1.9643,-2.0066,-2.0889,-2.1674,-2.2416,-2.3125,-2.3896,-2.419,-2.419,-2.419,-2.419,-2.419,0.0,0.0,0.0,0.0,0.0,0.0,0.0,0.0,0.0,0.0,0.0,0.0,0.0,0.0,-1.3793,-1.3844,-1.4282,-1.4369,-1.3912,-1.2992,-1.2451,-1.2377,-1.3337,-1.3879,-1.3933,-1.4304,0.0,0.0,0.0,0.0,0.0,0.0,0.0,0.0,-1.5381,-1.5335,-1.5276,-1.5274,0.0,-1.6169,-1.6506,-1.7004,0.0,0.0,0.0,0.0,0.0,-1.7383,-1.6894,0.0,-1.5392,-1.5385,0.0,0.0,0.0,0.0,0.0,0.0,-1.2764,0.0,0.0,0.0,0.0,0.0,-0.974,-1.2652,-1.5323,-1.5321,-1.5326,-1.5321,-1.5306,-1.53,-1.546,-1.5966,-1.5845,-1.6308,-1.805,-1.719,-1.6853,-1.8114,-1.6929,-1.5922,-1.5684,-1.5443,-1.5303,-1.5303,-1.5303,-1.5303,-1.5303,-1.5473,-1.5598,-1.5598,-1.5562,-1.5551,-1.5551,-1.6419,-1.72,-1.792,-1.8559,-1.9202,-1.9847,-1.975,-1.9695,-1.9662,-1.9452,-2.0209,-2.1555,-2.176,-2.2646,-2.3896,-2.4116,-2.419,-2.419,-2.419,-2.419,-2.419,0.0,0.0,0.0,0.0,0.0,0.0,0.0,0.0,0.0,0.0,0.0,0.0,0.0,0.0,0.0,-1.5189,-1.5189,-1.521,-1.5252,-1.4341,-1.3454,-1.2721,-1.3856,-1.4472,-1.444,-1.4574,-1.4843,0.0,0.0,0.0,0.0,0.0,0.0,0.0,0.0,0.0,0.0,0.0,0.0,0.0,-1.7023,0.0,0.0,-1.9472,-1.9531,0.0,0.0,0.0,-1.7109,-1.6241,-1.5676,0.0,0.0,0.0,0.0,0.0,0.0,0.0,0.0,0.0,0.0,0.0,0.0,0.0,-1.367,-1.4767,-1.5284,-1.5256,-1.3592,-1.2768,-1.4867,-1.5259,-1.5256,-1.5256,-1.5256,-1.5757,-1.7161,-1.6451,-1.6188,-1.7194,-1.6421,-1.566,-1.5284,-1.526,-1.526,-1.526,-1.526,-1.5415,-1.5782,-1.5411,-1.5368,-1.5734,-1.5388,-1.5189,-1.5189,-1.6061,-1.6833,-1.7517,-1.8392,-1.9113,-1.9701,-1.9636,-1.9555,-1.9471,-1.935,-2.0042,-2.129,-2.1639,-2.274,-2.419,-2.419,-2.419,-2.419,-2.419,-2.419,-2.419,0.0,0.0,0.0,0.0,0.0,0.0,0.0,0.0,0.0,0.0,0.0,0.0,0.0,0.0,0.0,0.0,-1.5189,-1.5189,-1.5189,-1.5251,-1.4646,-1.3224,-1.4464,-1.5247,-1.5349,-1.4497,-1.442,0.0,0.0,0.0,0.0,0.0,0.0,0.0,0.0,0.0,0.0,0.0,0.0,-1.6936,-1.7737,-1.8584,0.0,0.0,-2.0605,-2.0488,-1.9609,-1.8809,-1.7987,-1.7017,-1.6052,0.0,0.0,0.0,0.0,0.0,-1.5132,0.0,0.0,0.0,0.0,0.0,-1.4613,0.0,-1.501,-1.5236,-1.5153,-1.4714,-1.1376,-0.9888,-1.4324,-1.5177,-1.5209,-1.5183,-1.5189,-1.5534,-1.6467,-1.6441,-1.6391,-1.6488,-1.6411,-1.6053,-1.5278,-1.5189,-1.5189,-1.5189,-1.5189,-1.5541,-1.6311,-1.5618,-1.5561,-1.633,-1.5599,-1.5247,-1.5349,-1.6183,-1.6946,-1.7632,-1.8488,-1.9122,-1.9555,-1.9555,-1.9471,-1.9305,-1.9305,-1.9767,-2.0558,-2.1437,-2.2685,-2.408,-2.4171,-2.419,-2.419,-2.419,-2.419,-2.419,-0.8703,0.0,0.0,0.0,0.0,0.0,0.0,0.0,0.0,0.0,0.0,0.0,0.0,0.0,0.0,0.0,-1.5189,-1.5189,-1.5189,-1.5212,-1.5482,-1.6061,-1.5522,-1.5541,-1.6234,-1.5388,-1.5036,0.0,0.0,0.0,0.0,0.0,0.0,0.0,0.0,0.0,0.0,0.0,0.0,-1.8475,-1.8866,-1.955,-2.0351,-2.0527,-2.0605,-2.0488,-1.9609,-1.9158,-1.8711,-1.7089,-1.5942,-1.5212,0.0,0.0,0.0,-1.5189,0.0,0.0,0.0,0.0,0.0,0.0,-1.5074,0.0,-1.5017,-1.5127,-1.4401,-1.1527,-1.2424,-1.3948,-1.4665,-1.5026,-1.5152,-1.5068,-1.5133,-1.5515,-1.6397,-1.5904,-1.5705,-1.6418,-1.5879,-1.5386,-1.5214,-1.5189,-1.5189,-1.5189,-1.5189,-1.5266,-1.5445,-1.5285,-1.5285,-1.5445,-1.5285,-1.5541,-1.6234,-1.695,-1.7642,-1.83,-1.9082,-1.9415,-1.935,-1.935,-1.9335,-1.9305,-1.9305,-1.9767,-2.0558,-2.1437,-2.2373,-2.3309,-2.3951,-2.419,-2.419,-2.419,-2.419,-2.419,-0.8891,0.0,0.0,0.0,0.0,0.0,0.0,0.0,0.0,0.0,0.0,0.0,0.0,0.0,0.0,0.0,0.0,0.0,0.0,0.0,0.0,0.0,-1.6311,-1.6253,-1.5868,-1.6234,0.0,0.0,0.0,0.0,0.0,0.0,0.0,0.0,0.0,0.0,0.0,0.0,-1.9062,-1.9727,-1.9414,0.0,-2.0605,-2.0605,-2.0605,-2.0547,-2.0117,-1.9621,-1.8958,-1.7295,-1.6612,0.0,-1.6138,-1.6234,-1.6369,0.0,-1.5541,-1.5183,0.0,0.0,0.0,-1.4957,-1.5045,0.0,0.0,-1.497,-1.4464,-1.2742,-1.3688,-1.483,-1.4813,-1.484,-1.4847,-1.4854,-1.4954,-1.5197,-1.5643,-1.5408,-1.5368,-1.5792,-1.5465,-1.5189,-1.5189,-1.5189,-1.5189,-1.5189,-1.5189,-1.5189,-1.5189,-1.5189,-1.5189,-1.5189,-1.5133,-1.549,-1.6338,-1.7043,-1.7744,-1.8415,-1.9231,-1.9499,-1.9305,-1.9305,-1.9305,-1.9305,-1.9305,-1.9465,-1.986,-2.1061,-2.1714,-2.209,-2.3599,-2.419,-2.417,-2.4016,-2.3937,-2.3917,-0.8925,0.0,0.0,0.0,0.0,0.0,0.0,0.0,0.0,0.0,0.0,0.0,0.0,0.0,0.0,0.0,0.0,0.0,0.0,0.0,0.0,0.0,-1.7157,-1.7215,-1.6189,-1.708,0.0,0.0,0.0,0.0,0.0,0.0,0.0,0.0,0.0,0.0,0.0,0.0,0.0,-2.0547,0.0,-1.9961,-2.0605,-2.0605,-2.0605,-2.0605,-2.0565,-1.9977,-1.8994,-1.7791,-1.7534,-1.7619,-1.7196,-1.735,0.0,0.0,0.0,0.0,0.0,0.0,0.0,-1.4949,-1.4904,-1.4913,0.0,0.0,0.0,-1.4813,-1.4687,-1.4632,-1.4785,-1.4677,-1.4548,-1.4475,-1.4568,-1.4611,-1.4441,-1.463,-1.4871,-1.5108,-1.4307,-1.4107,-1.5069,-1.5165,-1.5171,-1.5189,-1.5177,-1.5177,-1.5189,-1.5189,-1.5189,-1.5189,-1.5221,-1.5621,-1.6434,-1.7131,-1.7851,-1.8564,-1.9207,-1.9471,-1.9305,-1.9305,-1.9305,-1.9305,-1.9305,-1.9198,-1.911,-2.066,-2.1064,-2.0898,-2.3146,-2.4016,-2.3958,-2.3692,-2.3588,-2.3566,-0.9001,0.0,0.0,0.0,0.0,0.0,0.0,0.0,0.0,0.0,0.0,0.0,0.0,0.0,0.0,0.0,0.0,0.0,-1.9976,0.0,0.0,0.0,0.0,-1.833,-1.9696,0.0,0.0,0.0,0.0,0.0,0.0,0.0,0.0,0.0,-1.8288,0.0,0.0,0.0,-2.0508,0.0,-2.0488,-2.0508,0.0,-2.0605,-2.0605,-2.0585,-2.0472,-1.9865,-1.9079,-1.8847,-1.8287,-1.7702,-1.7619,-1.7638,-1.7663,-1.7461,0.0,0.0,0.0,0.0,-1.5791,-1.5074,-1.4904,-1.4877,-1.4766,0.0,-1.4813,-1.46,0.0,-1.4785,-1.4589,0.0,0.0,-1.3766,-1.3704,-1.3509,-1.2778,-1.3063,-1.3745,-1.4806,-1.1103,-1.0181,-1.4599,-1.503,-1.5073,-1.5183,-1.5088,-1.5062,-1.5189,-1.5189,-1.5189,-1.5189,-1.5754,-1.6481,-1.7346,-1.79,-1.8596,-1.9452,-1.9372,-1.932,-1.9305,-1.9305,-1.9305,-1.9305,-1.9305,-1.9198,-1.911,-2.066,-2.0759,-2.0152,-2.2429,-2.3305,-2.3323,-2.3259,-2.3277,-2.3236,-1.2183,0.0,0.0,0.0,0.0,0.0,0.0,0.0,0.0,0.0,0.0,0.0,0.0,0.0,0.0,0.0,0.0,-1.7114,0.0,0.0,0.0,0.0,-1.7086,-1.6522,-1.9254,0.0,0.0,0.0,-1.8126,0.0,0.0,0.0,0.0,0.0,-1.8695,0.0,-2.0028,0.0,-2.0605,0.0,0.0,-2.054,-2.0541,-2.0585,-2.0585,-2.0516,-2.0383,-2.0103,-1.9798,-1.9771,-1.9504,-1.9215,-1.9215,-1.9215,-1.9077,-1.8446,0.0,0.0,0.0,-1.6728,-1.6675,-1.6176,-1.6153,-1.6065,-1.5429,-1.5318,-1.5199,-1.4614,0.0,0.0,0.0,0.0,0.0,0.0,-1.3068,-1.2424,-1.2871,-1.1878,-1.1341,-1.1921,-1.1282,-1.1908,-1.4741,-1.5008,-1.5008,-1.5015,-1.5004,-1.5026,-1.508,-1.508,-1.5066,-1.5042,-1.5687,-1.6419,-1.7256,-1.7888,-1.8615,-1.9409,-1.9335,-1.9305,-1.9305,-1.9305,-1.9305,-1.9289,-1.9182,-1.9235,-1.9482,-2.0403,-2.0428,-2.0114,-2.1961,-2.2621,-2.2587,-2.2821,-2.2923,-2.2898,0.0,0.0,0.0,0.0,0.0,0.0,0.0,0.0,0.0,0.0,0.0,0.0,-2.0312,-2.0424,0.0,0.0,-2.0523,-1.6293,0.0,0.0,-2.0474,-2.0388,-1.7155,-1.6535,0.0,0.0,0.0,0.0,0.0,0.0,0.0,0.0,0.0,0.0,0.0,-1.9692,-2.0483,0.0,-2.0558,-2.054,-2.0484,-2.0475,-2.0477,-2.0536,-2.051,-2.0432,-2.0327,-2.0295,-2.0302,-2.0296,-2.0312,-2.0312,-2.0312,-2.0312,-2.0153,-1.9353,0.0,0.0,-1.7795,-1.7517,-1.7419,-1.7058,-1.7046,-1.6935,-1.6207,-1.6022,-1.5802,-1.4995,-1.4829,0.0,0.0,0.0,0.0,0.0,0.0,-1.2104,-1.2876,-1.1462,-1.0481,-1.0789,-1.2132,-1.3426,-1.4395,-1.4447,-1.4562,-1.49,-1.4917,-1.4535,-1.3648,-1.4449,-1.4909,-1.4904,-1.5756,-1.6518,-1.7083,-1.7983,-1.872,-1.9305,-1.9305,-1.9305,-1.9305,-1.9305,-1.9259,-1.9214,-1.9069,-1.9217,-1.9626,-1.9946,-2.0052,-2.0103,-2.1218,-2.161,-2.161,-2.2315,-2.2599,-2.2563,-1.4488,-1.4488,0.0,0.0,0.0,0.0,0.0,0.0,0.0,0.0,0.0,0.0,0.0,0.0,0.0,0.0,0.0,-2.02,-1.996,-2.0172,-2.0399,-2.0585,-2.026,-2.0139,0.0,0.0,0.0,0.0,0.0,0.0,0.0,0.0,0.0,0.0,0.0,-2.0376,-2.041,-2.041,-2.04,-2.0414,-2.0391,-2.0391,-2.0391,-2.0414,-2.0361,-2.0319,-2.0294,-2.0295,-2.0292,-2.0312,-2.0312,-2.0312,-2.0312,-2.0312,-2.0269,-2.0021,-1.9874,-1.9594,-1.8763,-1.8317,-1.7932,-1.7337,-1.7046,-1.689,-1.6872,-1.6853,-1.6633,-1.5821,-1.5655,-1.5417,-1.4634,0.0,0.0,0.0,0.0,0.0,0.0,-1.2076,-1.2306,-1.3107,-1.3023,-1.2974,-1.3136,-1.303,-1.3542,-1.4889,-1.483,-1.3351,-1.0232,-1.3021,-1.4766,-1.4904,-1.6317,-1.7064,-1.7101,-1.855,-1.9271,-1.9305,-1.9305,-1.9305,-1.9305,-1.9305,-1.9198,-1.9001,-1.9001,-1.9123,-1.9295,-1.9329,-1.9613,-2.0002,-2.0052,-2.0078,-2.0255,-2.1752,-2.2293,-2.231,0.0,0.0,0.0,0.0,0.0,0.0,0.0,-2.0312,0.0,0.0,-2.0312,0.0,0.0,-2.0312,-2.0312,0.0,0.0,-2.0325,-2.0404,-2.0346,-2.0332,-2.0404,-2.0339,-2.0312,0.0,0.0,0.0,0.0,0.0,0.0,0.0,0.0,0.0,0.0,0.0,-2.0321,0.0,0.0,0.0,0.0,0.0,-2.0648,-2.1069,-2.0543,-2.0311,-2.0301,-2.0301,-2.0296,-2.0312,-2.0312,-2.0312,-2.0312,-2.0312,-2.0312,-2.0233,-1.9952,-1.9836,-1.9687,-1.921,-1.9087,-1.9003,-1.867,-1.8643,-1.8508,-1.7849,-1.7679,-1.7307,-1.5986,-1.5692,-1.5454,-1.4664,0.0,0.0,0.0,0.0,0.0,0.0,-1.2585,-1.2395,-1.2139,-1.2575,-1.2933,-1.2965,-1.3569,-1.4169,-1.4629,-1.4614,-1.1272,-0.376,-1.0483,-1.4907,-1.567,-1.6516,-1.7209,-1.7762,-1.8635,-1.9166,-1.9289,-1.9166,-1.9084,-1.9084,-1.9084,-1.8966,-1.8734,-1.8547,-1.8808,-1.929,-1.911,-1.9141,-1.9333,-1.9799,-1.9697,-1.9469,-2.0991,-2.1566,-2.1634,-1.661,0.0,0.0,0.0,0.0,0.0,0.0,0.0,0.0,0.0,-2.0312,0.0,-2.0312,0.0,-2.0312,0.0,-2.0312,-2.0312,-2.0312,-2.0312,-2.0312,-2.0312,-2.0312,-2.0312,0.0,0.0,0.0,0.0,0.0,-2.0446,0.0,0.0,0.0,0.0,0.0,-2.0727,-2.0727,-2.0766,-2.0797,0.0,0.0,-2.1039,-2.1435,-2.0918,-2.0553,-2.0295,-2.0296,-2.0485,-2.0677,-2.0408,-2.0696,-2.1081,-2.0485,-2.0452,-2.0603,-2.0367,-2.0035,-1.9745,-1.9866,-1.9699,-1.9485,-1.9409,-1.9456,-1.9323,-1.8676,-1.8537,-1.8151,-1.683,-1.6555,-1.6316,-1.5496,0.0,0.0,0.0,0.0,0.0,0.0,-1.321,-1.2922,-1.2415,-1.2627,-1.2814,-1.2768,-1.3482,-1.4112,-1.4469,-1.3435,-1.0553,-0.5428,-1.1095,-1.4946,-1.5918,-1.6578,-1.7247,-1.7942,-1.8636,-1.9035,-1.9048,-1.8931,-1.8861,-1.8861,-1.8861,-1.8715,-1.845,-1.827,-1.856,-1.9121,-1.8699,-1.8826,-1.9299,-1.9224,-1.9096,-1.9046,-2.0314,-2.094,-2.1322,-1.935,0.0,0.0,0.0,-1.9877,0.0,-2.0312,-2.0312,-2.0312,0.0,-2.0312,-2.0312,-2.0312,-2.0312,-2.0312,-2.0312,-2.0312,-2.0312,-2.0312,-2.0312,-2.0312,-2.0312,-2.0312,-2.0312,-2.0312,0.0,0.0,0.0,0.0,0.0,0.0,0.0,0.0,0.0,-2.1504,0.0,-2.1523,-2.1466,-2.1466,-2.1523,-2.1504,-2.1523,-2.1562,-2.1562,-2.11,-2.0427,-2.0427,-2.0927,-2.1446,-2.0669,-2.1438,-2.2457,-2.0834,-2.0775,-2.127,-2.1189,-2.0483,-1.9902,-2.0809,-2.0252,-1.9464,-1.9671,-1.9571,-1.9418,-1.9418,-1.9381,-1.9124,-1.8335,-1.8119,-1.7844,-1.7055,-1.6266,0.0,0.0,0.0,0.0,0.0,0.0,-1.3976,-1.3976,-1.3278,-1.2723,-1.2579,-1.2729,-1.3297,-1.4433,-1.1645,-1.126,-1.4341,-1.4524,-1.4928,-1.5753,-1.6528,-1.7198,-1.7742,-1.8535,-1.8825,-1.8585,-1.8585,-1.8566,-1.8566,-1.8566,-1.843,-1.8166,-1.8166,-1.843,-1.8792,-1.8099,-1.8616,-1.9748,-1.8369,-1.8234,-1.8944,-1.9697,-2.0517,-2.1322,-2.0031,-2.0031,-2.0031,0.0,-2.0199,-2.0312,-2.0312,-2.0312,-2.0312,-2.0312,-2.0312,-2.0312,-2.0312,-2.0312,-2.0312,-2.0312,-2.0312,-2.0312,-2.0312,-2.0312,-2.0312,-2.0312,-2.0312,-2.0312,-2.0312,-2.0312,-2.0446,-2.0735,0.0,0.0,-2.0619,0.0,0.0,0.0,0.0,0.0,-2.1831,-2.0966,-2.11,-2.185,-2.16,-2.1889,-2.2466,-2.2466,-2.2331,-2.2158,-2.2158,-2.2293,-2.2419,-2.2058,-2.1817,-2.1588,-2.1005,-2.0948,-2.1041,-2.0952,-2.1129,-2.1399,-2.1562,-2.1373,-2.116,-2.1209,-2.1211,-2.116,-2.116,-2.0666,-1.9968,-1.9161,-1.8362,-1.763,-1.7009,-1.6583,-1.6273,0.0,0.0,0.0,0.0,0.0,-1.5153,-1.5153,-1.4503,-1.3917,-1.3577,-1.1718,-1.1653,-1.4304,-1.3545,-1.3431,-1.4451,-1.4939,-1.5682,-1.6769,-1.7263,-1.7779,-1.8359,-1.8383,-1.8469,-1.8585,-1.8391,-1.831,-1.831,-1.831,-1.8146,-1.7905,-1.7905,-1.798,-1.8082,-1.7896,-1.8031,-1.8312,-1.7941,-1.7929,-1.8251,-1.9529,-2.0517,-2.1322,-2.0312,-2.0312,0.0,-2.0312,-2.0312,-2.0312,-2.0312,-2.0312,-2.0312,-2.0312,-2.0312,-2.0312,-2.0312,-2.0312,-2.0312,-2.0312,-2.0312,-2.0312,-2.0312,-2.0312,-2.0312,-2.0312,-2.0312,-2.0312,-2.0312,-2.0312,-2.0312,-2.0312,0.0,0.0,-2.2496,0.0,0.0,0.0,0.0,-2.2177,-2.2312,-2.1677,-2.1754,-2.237,-2.2562,-2.2928,0.0,-2.3379,-2.3379,-2.3417,-2.3774,-2.3602,-2.316,-2.2664,-2.2654,-2.2678,-2.179,-2.1749,-2.1981,-2.1868,-2.1888,-2.1957,-2.2261,-2.2061,-2.1803,-2.1803,-2.1803,-2.1803,-2.1803,-2.1314,-2.0624,-1.9857,-1.9109,-1.8377,-1.7758,-1.7245,-1.6757,0.0,0.0,0.0,0.0,0.0,-1.5477,-1.5155,-1.5037,-1.4637,-1.3771,-1.2325,-1.2191,-1.4005,-1.4123,-1.4149,-1.4227,-1.4872,-1.5714,-1.6774,-1.7306,-1.7844,-1.843,-1.827,-1.8208,-1.8249,-1.81,-1.8035,-1.8035,-1.8035,-1.7949,-1.7789,-1.7658,-1.7572,-1.7572,-1.7572,-1.7572,-1.7572,-1.7572,-1.7572,-1.7683,-1.8709,-1.9762,-2.0839,-2.0869,-2.06,0.0,0.0,-2.0312,-2.0446,-2.0889,-2.0581,-2.0312,-2.0312,-2.0312,-2.0312,-2.0312,-2.0312,-2.0312,-2.0312,-2.0312,-2.0312,-2.0312,-2.0312,-2.0312,-2.0312,-2.0312,-2.0312,-2.0312,-2.0312,-2.0312,0.0,0.0,0.0,0.0,0.0,0.0,0.0,0.0,0.0,0.0,-2.2822,-2.2899,-2.2939,-2.3774,-2.411,-2.411,-2.4225,-2.4264,-2.436,-2.5063,-2.4722,-2.3843,-2.3046,-2.36,-2.4331,-2.2792,-2.2731,-2.3252,-2.3184,-2.2678,-2.2263,-2.2978,-2.2648,-2.2115,-2.2115,-2.2115,-2.2115,-2.2115,-2.1771,-2.1273,-2.0643,-2.0036,-1.9462,-1.8868,-1.807,-1.7221,0.0,0.0,-1.5883,-1.5883,-1.5883,0.0,-1.4885,-1.5274,0.0,-1.3684,-1.3727,-1.3798,-1.3693,-1.3913,-1.405,-1.404,-1.4753,-1.5531,-1.6359,-1.7117,-1.7708,-1.8146,-1.8146,-1.8035,-1.7811,-1.7811,-1.7811,-1.7811,-1.7749,-1.7766,-1.7789,-1.7392,-1.7272,-1.7296,-1.7248,-1.7231,-1.7231,-1.7231,-1.7231,-1.7298,-1.7839,-1.8805,-2.0058,-2.388,0.0,0.0,0.0,-2.0312,-2.1227,-2.3995,-2.2073,-2.0312,-2.0312,-2.0312,-2.0312,-2.0312,-2.0312,-2.0312,-2.0312,-2.0312,-2.0312,-2.0312,-2.0312,-2.0312,-2.0312,-2.0312,-2.0312,-2.0312,-2.0312,-2.0312,-2.0312,-2.0312,0.0,0.0,0.0,0.0,0.0,0.0,0.0,-2.1885,-2.2997,-2.3361,-2.326,-2.3861,-2.411,-2.4168,-2.4832,-2.5101,-2.512,-2.5245,-2.5086,-2.4758,-2.449,-2.402,-2.3484,-2.3026,-2.294,-2.3051,-2.3051,-2.3382,-2.3804,-2.3951,-2.3896,-2.3768,-2.3768,-2.3768,-2.3768,-2.3768,-2.3008,-2.2265,-2.2121,-2.064,-1.9412,-1.948,-1.8708,-1.8006,-1.7844,-1.7578,-1.7422,-1.7422,-1.7422,-1.7151,0.0,-1.5883,-1.5257,-1.4394,-1.4504,-1.4326,-1.3667,-1.3661,-1.4016,-1.477,-1.545,-1.6149,-1.6858,-1.7659,-1.7987,-1.7861,-1.7861,-1.7856,-1.7811,-1.7811,-1.7811,-1.7789,-1.7526,-1.7526,-1.7766,-1.715,-1.7052,-1.7296,-1.7002,-1.6892,-1.6892,-1.6892,-1.6892,-1.7036,-1.8267,-1.8897,-1.9208,-2.463,0.0,0.0,0.0,-2.0312,-2.085,-2.2457,-2.1342,-2.0312,-2.0312,-2.0312,-2.0312,-2.0312,-2.0312,-2.0312,-2.0312,-2.0312,-2.0312,-2.0312,-2.0312,-2.0312,-2.0312,-2.0312,-2.0312,-2.0312,-2.0312,-2.0312,-2.0312,-2.0312,0.0,0.0,0.0,0.0,0.0,0.0,-2.2849,0.0,-2.3343,-2.3803,-2.3771,-2.4457,-2.4716,-2.4755,-2.5149,-2.5243,-2.5152,-2.5152,-2.4981,-2.4752,-2.4804,-2.4329,-2.3748,-2.3658,-2.3621,-2.3621,-2.3621,-2.3896,-2.419,-2.419,-2.419,-2.419,-2.419,-2.419,-2.419,-2.419,-2.3506,-2.2754,-2.2382,-2.1225,-2.0093,-1.9406,-1.8577,-1.7992,-1.7992,-1.7883,-1.7811,-1.7811,-1.7473,-1.6948,-1.6224,0.0,-1.5155,-1.4039,-1.4562,-1.4548,-1.3563,-1.3973,-1.447,-1.4917,-1.5844,-1.6507,-1.6846,-1.7599,-1.7927,-1.7811,-1.7811,-1.7811,-1.7811,-1.7811,-1.7704,-1.7526,-1.7368,-1.7296,-1.7264,-1.6763,-1.6633,-1.6773,-1.6607,-1.6633,-1.6789,-1.6607,-1.6528,-1.6627,-1.7475,-1.7975,-1.8486,-2.4784,-2.3169,0.0,-2.0427,-2.0889,-2.1361,-2.1361,-2.0773,-2.0312,-2.0312,-2.0312,-2.0312,-2.0312,-2.0312,-2.0312,-2.0312,-2.0312,-2.0312,-2.0312,-2.0312,-2.0312,-2.0312,-2.0312,-2.0312,-2.0312,-2.0658,-2.0658,-2.0312,-2.0862,-2.1128,-2.1175,0.0,0.0,0.0,0.0,-2.3423,-2.2852,-2.3909,-2.4322,-2.4361,-2.5034,-2.5274,-2.5243,-2.5243,-2.513,-2.4949,-2.4949,-2.4766,-2.4528,-2.4685,-2.4495,-2.419,-2.419,-2.419,-2.419,-2.419,-2.419,-2.419,-2.419,-2.419,-2.419,-2.419,-2.419,-2.419,-2.419,-2.3692,-2.3053,-2.245,-2.1604,-2.0517,-1.9147,-1.8302,-1.7811,-1.7811,-1.7811,-1.7811,-1.7811,-1.7168,-1.6407,-1.562,-1.5499,-1.4939,-1.3577,-1.438,-1.4665,-1.3802,-1.4379,-1.4908,-1.5257,-1.6058,-1.6588,-1.6812,-1.7401,-1.7681,-1.7681,-1.7749,-1.7749,-1.7681,-1.7681,-1.7526,-1.7199,-1.7109,-1.6977,-1.6789,-1.6367,-1.6191,-1.6191,-1.6191,-1.6355,-1.657,-1.6428,-1.6379,-1.6458,-1.6939,-1.7458,-1.8188,-2.5245,0.0,-2.3861,-2.0831,-2.2803,-2.4822,-2.4822,-2.2246,-2.0312,-2.0312,-2.0312,-2.0312,-2.0312,-2.0312,-2.0312,-2.0312,-2.0312,-2.0312,-2.0312,-2.0312,-2.0312,-2.0312,-2.0312,-2.0312,-2.0312,-2.1793,-2.1812,-2.0312,-2.2664,-2.3823,-2.3842,0.0,0.0,-2.486,-2.4124,-2.3747,-2.374,-2.4753,-2.5088,-2.495,-2.5205,-2.5203,-2.5022,-2.5022,-2.4943,-2.4832,-2.4832,-2.4685,-2.4512,-2.4528,-2.4375,-2.419,-2.419,-2.419,-2.419,-2.419,-2.419,-2.419,-2.419,-2.419,-2.419,-2.419,-2.419,-2.419,-2.419,-2.3692,-2.3171,-2.31,-2.1492,-1.9849,-1.9046,-1.8302,-1.7811,-1.7811,-1.7811,-1.7811,-1.7811,-1.7168,-1.6345,-1.5359,-1.5197,-1.4742,-1.3677,-1.4233,-1.471,-1.4828,-1.4485,-1.4924,-1.6458,-1.605,-1.6239,-1.7212,-1.7311,-1.7344,-1.7344,-1.7658,-1.7658,-1.7344,-1.7344,-1.7175,-1.6841,-1.6528,-1.6554,-1.6763,-1.6108,-1.5856,-1.5856,-1.5856,-1.5885,-1.593,-1.6473,-1.6652,-1.6802,-1.8059,-1.8553,-1.8717,-2.5303,-2.5303,-2.488,-2.3534,-2.4399,-2.5303,-2.5303,-2.2438,-2.0312,-2.0312,-2.0312,-2.0312,-2.0312,-2.0312,-2.0312,-2.0312,-2.0312,-2.0312,-2.0312,-2.0312,-2.0312,-2.0312,-2.1254,-2.1793,-2.1793,-2.2139,-2.2537,-2.3004,-2.4061,-2.4445,-2.419,-2.419,-2.4303,-2.4472,-2.4343,-2.427,-2.4241,-2.4777,-2.4949,-2.4896,-2.4962,-2.4949,-2.4877,-2.4877,-2.4771,-2.4623,-2.4623,-2.4495,-2.4321,-2.4321,-2.4284,-2.419,-2.419,-2.419,-2.419,-2.419,-2.419,-2.419,-2.419,-2.419,-2.4151,-2.3937,-2.3896,-2.3896,-2.3896,-2.3392,-2.2972,-2.3165,-2.1898,-2.0483,-1.9705,-1.8961,-1.8318,-1.7879,-1.7811,-1.7811,-1.7811,-1.6998,-1.626,-1.5846,-1.52,-1.4652,-1.4231,-1.4648,-1.5258,-1.5981,-1.5448,-1.5533,-1.6459,-1.641,-1.6749,-1.7565,-1.7203,-1.7187,-1.7581,-1.7313,-1.7126,-1.7002,-1.7002,-1.6825,-1.6517,-1.6367,-1.6274,-1.6191,-1.5913,-1.5799,-1.5799,-1.5799,-1.5994,-1.6353,-1.6622,-1.695,-1.7413,-1.8358,-1.8702,-1.8807,-2.5303,-2.5303,-2.5303,-2.5303,-2.5303,-2.5303,-2.5303,-2.3284,-2.1427,-2.0427,-2.0312,-2.0312,-2.0312,-2.0312,-2.0312,-2.0312,-2.0312,-2.0312,-2.0312,-2.0312,-2.026,-2.0153,-2.1627,-2.2384,-2.2269,-2.2383,-2.308,-2.4355,-2.4624,-2.4561,-2.419,-2.419,-2.419,-2.4209,-2.4393,-2.4495,-2.4545,-2.4716,-2.4804,-2.4804,-2.4804,-2.476,-2.4716,-2.4716,-2.4594,-2.441,-2.441,-2.4321,-2.419,-2.419,-2.419,-2.419,-2.419,-2.419,-2.417,-2.4074,-2.4036,-2.4016,-2.3937,-2.3917,-2.3837,-2.361,-2.3544,-2.3544,-2.3544,-2.3117,-2.2746,-2.289,-2.2005,-2.094,-2.0137,-1.9401,-1.8657,-1.7929,-1.7811,-1.7811,-1.7811,-1.6886,-1.6157,-1.6089,-1.5304,-1.4758,-1.4662,-1.5109,-1.5668,-1.6374,-1.5994,-1.6061,-1.6775,-1.6622,-1.6775,-1.7345,-1.6886,-1.6966,-1.7634,-1.7088,-1.6849,-1.6934,-1.6755,-1.6474,-1.6136,-1.6136,-1.6011,-1.5799,-1.5799,-1.5799,-1.5799,-1.5799,-1.6159,-1.6726,-1.6921,-1.7399,-1.8089,-1.8747,-1.8986,-1.9061,-2.5303,-2.5303,-2.5303,-2.5303,-2.5303,-2.5303,-2.5303,-2.5264,-2.4053,-2.0735,-2.0312,-2.0312,-2.0312,-2.0312,-2.0312,-2.0312,-2.0312,-2.0312,-2.0312,-2.0312,-2.0153,-1.9832,-2.0967,-2.1441,-2.1023,-2.2644,-2.3434,-2.3322,-2.4174,-2.4462,-2.419,-2.419,-2.419,-2.419,-2.419,-2.4358,-2.461,-2.4746,-2.4804,-2.4804,-2.4804,-2.4685,-2.4512,-2.4512,-2.4375,-2.419,-2.419,-2.419,-2.419,-2.419,-2.419,-2.419,-2.419,-2.419,-2.4133,-2.3795,-2.3714,-2.3631,-2.33,-2.3212,-2.3212,-2.3212,-2.3212,-2.3212,-2.3212,-2.2947,-2.2634,-2.236,-2.1701,-2.094,-2.0137,-1.9401,-1.8657,-1.7929,-1.7811,-1.7811,-1.7811,-1.6886,-1.6112,-1.5846,-1.5433,-1.5082,-1.4821,-1.5409,-1.5784,-1.5799,-1.5784,-1.6371,-1.7697,-1.6532,-1.5955,-1.6316,-1.6301,-1.6626,-1.7308,-1.6981,-1.6981,-1.7293,-1.6611,-1.6136,-1.5799,-1.5799,-1.5799,-1.5799,-1.5799,-1.5799,-1.5799,-1.5799,-1.6159,-1.6771,-1.7428,-1.8119,-1.8777,-1.9435,-1.9675,-1.9675,-2.5303,-2.5303,-2.5303,-2.5303,-2.5303,-2.5303,-2.5303,-2.3361,-2.1515,-2.0446,-2.0312,-2.0312,-2.0312,-2.0312,-2.0312,-2.0312,-2.0312,-2.0312,-2.0312,-2.0312,-2.0555,-2.1146,-2.1532,-2.2044,-2.2688,-2.3813,-2.4312,-2.4114,-2.4409,-2.4428,-2.419,-2.419,-2.419,-2.419,-2.419,-2.4247,-2.4339,-2.4375,-2.4393,-2.4393,-2.4393,-2.4339,-2.4303,-2.4303,-2.4266,-2.419,-2.419,-2.419,-2.419,-2.419,-2.419,-2.419,-2.419,-2.419,-2.417,-2.4074,-2.3876,-2.3671,-2.3566,-2.3369,-2.3141,-2.2923,-2.2873,-2.2873,-2.2873,-2.2772,-2.2608,-2.2349,-2.1701,-2.094,-2.0137,-1.9401,-1.8657,-1.7929,-1.7811,-1.7811,-1.7811,-1.7115,-1.6579,-1.6488,-1.5975,-1.5581,-1.5484,-1.5679,-1.6173,-1.7041,-1.6652,-1.6413,-1.6445,-1.6019,-1.6023,-1.6562,-1.6153,-1.6244,-1.6879,-1.6374,-1.6174,-1.6273,-1.6061,-1.5898,-1.5799,-1.5799,-1.5799,-1.5799,-1.5799,-1.6024,-1.6398,-1.6398,-1.7055,-1.8071,-1.8313,-1.8569,-1.8892,-1.9492,-1.9479,-1.9207,-2.5303,-2.5303,-2.5303,-2.5303,-2.5303,-2.488,-2.3611,-2.165,-2.0312,-2.0312,-2.0079,-1.992,-1.992,-1.992,-2.0021,-2.0277,-2.0069,-2.0021,-2.0277,-2.0069,-2.0759,-2.2629,-2.2685,-2.2844,-2.316,-2.4092,-2.4512,-2.4393,-2.4393,-2.4321,-2.419,-2.419,-2.419,-2.419,-2.419,-2.419,-2.419,-2.419,-2.419,-2.419,-2.419,-2.419,-2.419,-2.419,-2.419,-2.419,-2.419,-2.419,-2.419,-2.419,-2.419,-2.419,-2.419,-2.4113,-2.3996,-2.3858,-2.3671,-2.3477,-2.3242,-2.3007,-2.2807,-2.2616,-2.2563,-2.2563,-2.2563,-2.2563,-2.25,-2.2321,-2.1701,-2.094,-2.0137,-1.9302,-1.8497,-1.7907,-1.7589,-1.7455,-1.7595,-1.7027,-1.6607,-1.6607,-1.6136,-1.5799,-1.5799,-1.5799,-1.6143,-1.6937,-1.6608,-1.6204,-1.5829,-1.5994,-1.6219,-1.6353,-1.5994,-1.6084,-1.6697,-1.6099,-1.5918,-1.6144,-1.6144,-1.6009,-1.5814,-1.6024,-1.5994,-1.5799,-1.5799,-1.6144,-1.6712,-1.6712,-1.7376,-1.8396,-1.8396,-1.8491,-1.8622,-1.8745,-1.8728,-1.8622,-2.5303,-2.5303,-2.5303,-2.5303,-2.5253,-2.4177,-2.1041,-2.0378,-2.0225,-2.0225,-1.9682,-1.9305,-1.9305,-1.9305,-1.954,-2.019,-1.9657,-1.9553,-2.0199,-1.9869,-2.0996,-2.4061,-2.419,-2.3731,-2.2721,-2.3694,-2.419,-2.419,-2.419,-2.419,-2.419,-2.419,-2.419,-2.419,-2.419,-2.419,-2.419,-2.419,-2.419,-2.419,-2.419,-2.419,-2.419,-2.419,-2.419,-2.419,-2.419,-2.419,-2.4208,-2.417,-2.417,-2.417,-2.4151,-2.3917,-2.361,-2.3323,-2.3206,-2.3038,-2.248,-2.2293,-2.231,-2.231,-2.231,-2.231,-2.231,-2.231,-2.231,-2.231,-2.1701,-2.094,-2.0111,-1.9127,-1.8253,-1.7799,-1.7216,-1.6917,-1.7224,-1.6722,-1.6301,-1.6301,-1.6011,-1.5799,-1.5799,-1.5799,-1.5829,-1.5858,-1.5858,-1.5858,-1.5858,-1.6383,-1.6413,-1.5829,-1.5799,-1.6069,-1.6637,-1.6069,-1.6069,-1.6652,-1.6652,-1.6353,-1.5829,-1.6368,-1.6338,-1.5799,-1.577,-1.6129,-1.6709,-1.6678,-1.7159,-1.7906,-1.7906,-1.7923,-1.7942,-1.7495,-1.7633,-1.7928,-2.5303,-2.5303,-2.5303,-2.5303,-2.4836,-2.4182,-2.3405,-2.115,-1.9545,-1.9545,-1.939,-1.9305,-1.9305,-1.9305,-1.9361,-1.9513,-1.939,-1.938,-1.9532,-2.1756,-2.3382,-2.4171,-2.419,-2.408,-2.3823,-2.4061,-2.419,-2.419,-2.419,-2.419,-2.419,-2.419,-2.419,-2.419,-2.419,-2.419,-2.419,-2.419,-2.419,-2.419,-2.419,-2.419,-2.419,-2.419,-2.419,-2.419,-2.419,-2.419,-2.417,-2.3896,-2.3816,-2.3774,-2.3522,-2.3392,-2.3346,-2.3522,-2.3248,-2.2849,-2.2652,-2.2463,-2.231,-2.231,-2.231,-2.231,-2.231,-2.231,-2.231,-2.231,-2.1701,-2.0887,-1.9817,-1.8956,-1.8102,-1.7182,-1.6917,-1.6815,-1.6917,-1.6554,-1.6301,-1.6301,-1.6011,-1.5799,-1.5799,-1.5799,-1.5979,-1.6443,-1.6488,-1.6488,-1.6488,-1.6622,-1.6413,-1.5829,-1.5799,-1.5873,-1.5994,-1.5873,-1.5873,-1.5994,-1.5994,-1.5948,-1.5799,-1.5963,-1.5948,-1.577,-1.5418,-1.5862,-1.6824,-1.6505,-1.7062,-1.804,-1.804,-1.7575,-1.6955,-1.7658,-1.7458,-1.6968,-2.5303,-2.5303,-2.5303,-2.5303,-2.4678,-2.419,-2.419,-2.2685,-2.0996,-1.9507,-1.9305,-1.9305,-1.9305,-1.9305,-1.9305,-1.9305,-2.0666,-2.0886,-1.9415,-2.2373,-2.419,-2.419,-2.419,-2.419,-2.419,-2.419,-2.419,-2.419,-2.419,-2.419,-2.419,-2.419,-2.419,-2.419,-2.419,-2.419,-2.419,-2.419,-2.419,-2.419,-2.419,-2.419,-2.419,-2.419,-2.419,-2.417,-2.4016,-2.3976,-2.3917,-2.3588,-2.3459,-2.3437,-2.3277,-2.3093,-2.3021,-2.3189,-2.3014,-2.2704,-2.2563,-2.2398,-2.231,-2.231,-2.231,-2.231,-2.231,-2.231,-2.231,-2.231,-2.1701,-2.0844,-1.9694,-1.8782,-1.7854,-1.6953,-1.6528,-1.6409,-1.6554,-1.6301,-1.6067,-1.6067,-1.5898,-1.5799,-1.5799,-1.5799,-1.5948,-1.6263,-1.6547,-1.6712,-1.6712,-1.6712,-1.6413,-1.5829,-1.5799,-1.5799,-1.5799,-1.5799,-1.5799,-1.5799,-1.6069,-1.6069,-1.5814,-1.5891,-1.5757,-1.5463,-1.5281,-1.574,-1.6642,-1.6673,-1.7074,-1.7747,-1.7747,-1.7236,-1.654,-1.6903,-1.6809,-1.654,-2.5303,-2.5303,-2.5264,-2.516,-2.462,-2.419,-2.419,-2.419,-2.3015,-1.973,-1.9305,-1.9305,-1.9305,-1.9305,-1.9305,-1.9305,-2.184,-2.2483,-2.0189,-2.2648,-2.419,-2.419,-2.419,-2.419,-2.419,-2.419,-2.419,-2.419,-2.419,-2.419,-2.419,-2.419,-2.419,-2.419,-2.419,-2.419,-2.419,-2.419,-2.419,-2.419,-2.419,-2.419,-2.419,-2.4151,-2.4113,-2.4074,-2.3735,-2.361,-2.3566,-2.3236,-2.3117,-2.3117,-2.3087,-2.2865,-2.2634,-2.2634,-2.2634,-2.2599,-2.236,-2.231,-2.231,-2.231,-2.231,-2.231,-2.231,-2.231,-2.231,-2.231,-2.1748,-2.0881,-1.9657,-1.8648,-1.772,-1.6929,-1.6225,-1.5943,-1.6302,-1.6044,-1.5799,-1.5799,-1.5799,-1.5799,-1.5799,-1.5799,-1.5844,-1.5933,-1.6398,-1.6756,-1.6861,-1.6756,-1.6458,-1.5963,-1.5858,-1.5799,-1.5799,-1.5799,-1.5799,-1.5814,-1.6338,-1.6293,-1.5846,-1.5997,-1.5762,-1.525,-1.5316,-1.5708,-1.6332,-1.6726,-1.7022,-1.7188,-1.7188,-1.6857,-1.6346,-1.5957,-1.607,-1.6333,-2.5303,-2.5303,-2.5096,-2.4476,-2.4284,-2.419,-2.419,-2.419,-2.3015,-1.973,-1.9305,-1.9305,-1.9305,-1.9305,-1.9305,-1.9305,-1.9782,-2.1015,-2.329,-2.3914,-2.419,-2.419,-2.419,-2.419,-2.419,-2.419,-2.419,-2.419,-2.419,-2.419,-2.419,-2.419,-2.419,-2.419,-2.419,-2.419,-2.419,-2.419,-2.419,-2.419,-2.419,-2.419,-2.417,-2.3896,-2.3774,-2.3735,-2.3392,-2.3277,-2.323,-2.2898,-2.2772,-2.2738,-2.2517,-2.2388,-2.236,-2.236,-2.236,-2.2332,-2.231,-2.231,-2.231,-2.231,-2.231,-2.231,-2.231,-2.231,-2.231,-2.231,-2.1903,-2.1035,-1.939,-1.8654,-1.7989,-1.6894,-1.6217,-1.5993,-1.6563,-1.6143,-1.5799,-1.5799,-1.5799,-1.5799,-1.5799,-1.5799,-1.5994,-1.6517,-1.6652,-1.695,-1.7503,-1.701,-1.6667,-1.6562,-1.6069,-1.5799,-1.5799,-1.5799,-1.5799,-1.5799,-1.5903,-1.5965,-1.5958,-1.5995,-1.6004,-1.5915,-1.5631,-1.5781,-1.6283,-1.6033,-1.6214,-1.6637,-1.6637,-1.6317,-1.5869,-1.6245,-1.6145,-1.5881,-2.5303,-2.5303,-2.5192,-2.485,-2.4795,-2.4666,-2.4247,-2.419,-2.3015,-1.973,-1.9305,-1.9305,-1.9305,-1.9305,-1.9305,-1.9305,-2.0904,-2.2575,-2.4098,-2.419,-2.419,-2.419,-2.419,-2.419,-2.419,-2.419,-2.419,-2.419,-2.419,-2.419,-2.419,-2.419,-2.419,-2.419,-2.419,-2.419,-2.419,-2.419,-2.419,-2.417,-2.3996,-2.3917,-2.3896,-2.3566,-2.3414,-2.3392,-2.3045,-2.2923,-2.2873,-2.259,-2.2473,-2.2463,-2.2349,-2.231,-2.231,-2.231,-2.231,-2.231,-2.231,-2.231,-2.231,-2.231,-2.231,-2.231,-2.231,-2.231,-2.231,-2.231,-2.1928,-2.1078,-1.9321,-1.8661,-1.8022,-1.6878,-1.6458,-1.6518,-1.7145,-1.7012,-1.6817,-1.6817,-1.6817,-1.6817,-1.6817,-1.6817,-1.6952,-1.7219,-1.7563,-1.7742,-1.7697,-1.7413,-1.7234,-1.7234,-1.6293,-1.5799,-1.5799,-1.5799,-1.5978,-1.6293,-1.6038,-1.5954,-1.6053,-1.5833,-1.5589,-1.5376,-1.5529,-1.5581,-1.5594,-1.5964,-1.612,-1.6107,-1.6409,-1.6358,-1.617,-1.6421,-1.6358,-1.617,-2.5303,-2.5303,-2.5303,-2.5303,-2.516,-2.485,-2.4284,-2.419,-2.3015,-1.973,-1.9305,-1.9583,-2.0354,-1.9748,-1.9305,-1.9305,-2.2299,-2.419,-2.419,-2.419,-2.419,-2.419,-2.419,-2.419,-2.419,-2.419,-2.419,-2.419,-2.419,-2.419,-2.419,-2.419,-2.419,-2.4208,-2.4113,-2.4094,-2.4074,-2.3996,-2.3976,-2.3955,-2.3692,-2.3588,-2.3544,-2.3212,-2.3093,-2.3045,-2.2712,-2.2599,-2.259,-2.236,-2.231,-2.231,-2.231,-2.231,-2.231,-2.231,-2.231,-2.231,-2.231,-2.231,-2.231,-2.231,-2.231,-2.231,-2.231,-2.2209,-2.2135,-2.2135,-2.1705,-2.0839,-1.9372,-1.8763,-1.819,-1.7312,-1.704,-1.7174,-1.7832,-1.7787,-1.7697,-1.7697,-1.7697,-1.7697,-1.7697,-1.7697,-1.7757,-1.7906,-1.8418,-1.8553,-1.816,-1.8029,-1.7739,-1.7329,-1.6488,-1.589,-1.5639,-1.5787,-1.6024,-1.6371,-1.6247,-1.626,-1.6317,-1.601,-1.5647,-1.5349,-1.5705,-1.5643,-1.5356,-1.617,-1.6271,-1.5932,-1.6358,-1.6522,-1.6522,-1.6522,-1.6522,-1.6522,-2.5303,-2.5303,-2.5303,-2.5303,-2.4737,-2.4266,-2.4209,-2.419,-2.3015,-1.973,-1.9305,-2.0446,-2.3511,-2.1106,-1.9305,-1.9305,-2.2299,-2.419,-2.419,-2.419,-2.419,-2.419,-2.419,-2.419,-2.419,-2.419,-2.419,-2.419,-2.419,-2.419,-2.419,-2.419,-2.419,-2.419,-2.3876,-2.3753,-2.3714,-2.3414,-2.3259,-2.3259,-2.3253,-2.3253,-2.3189,-2.2873,-2.2746,-2.2695,-2.2426,-2.2321,-2.2338,-2.231,-2.231,-2.231,-2.231,-2.231,-2.231,-2.231,-2.231,-2.231,-2.231,-2.231,-2.231,-2.231,-2.231,-2.231,-2.231,-2.1957,-2.1658,-2.1658,-2.0959,-2.0198,-1.9497,-1.8982,-1.8646,-1.8568,-1.8011,-1.7847,-1.8538,-1.8104,-1.7697,-1.7697,-1.7697,-1.7697,-1.7697,-1.7697,-1.7951,-1.8583,-1.8672,-1.8957,-1.951,-1.8957,-1.7892,-1.6282,-1.6496,-1.6157,-1.5165,-1.571,-1.5787,-1.5399,-1.6392,-1.6888,-1.7033,-1.6999,-1.7031,-1.7086,-1.6663,-1.6434,-1.6409,-1.6484,-1.6497,-1.6459,-1.6497,-1.6522,-1.6522,-1.6522,-1.6522,-1.6522,-2.462,-2.5,-2.516,-2.4693,-2.4392,-2.419,-2.419,-2.419,-2.3749,-2.2501,-2.2336,-2.2813,-2.4061,-2.3088,-2.2336,-2.2336,-2.3474,-2.419,-2.419,-2.419,-2.419,-2.419,-2.419,-2.419,-2.419,-2.419,-2.419,-2.419,-2.419,-2.419,-2.419,-2.419,-2.419,-2.419,-2.3837,-2.3692,-2.3671,-2.3346,-2.3189,-2.3165,-2.2972,-2.2898,-2.2848,-2.2563,-2.2436,-2.2453,-2.2349,-2.231,-2.231,-2.231,-2.231,-2.231,-2.231,-2.231,-2.231,-2.231,-2.231,-2.231,-2.231,-2.231,-2.231,-2.231,-2.231,-2.2209,-2.1928,-2.1735,-2.1521,-2.1275,-2.0748,-2.0128,-1.951,-1.9025,-1.8702,-1.8702,-1.8493,-1.8553,-1.9226,-1.9091,-1.8942,-1.8942,-1.8942,-1.8942,-1.8942,-1.8942,-1.9046,-1.9286,-1.9316,-1.9241,-1.9091,-1.8448,-1.7619,-1.6642,-1.676,-1.6456,-1.5725,-1.6278,-1.6848,-1.7423,-1.7149,-1.7084,-1.7208,-1.6904,-1.655,-1.6296,-1.6443,-1.6321,-1.6032,-1.6371,-1.6308,-1.6045,-1.6384,-1.6522,-1.6522,-1.6522,-1.6522,-1.6522,-2.419,-2.4604,-2.4795,-2.4284,-2.419,-2.419,-2.419,-2.419,-2.419,-2.419,-2.419,-2.419,-2.419,-2.419,-2.419,-2.419,-2.419,-2.419,-2.419,-2.419,-2.419,-2.419,-2.419,-2.419,-2.419,-2.419,-2.419,-2.419,-2.419,-2.419,-2.419,-2.419,-2.4151,-2.4016,-2.3692,-2.3482,-2.3369,-2.3038,-2.2908,-2.2908,-2.2652,-2.2573,-2.2563,-2.236,-2.231,-2.231,-2.231,-2.231,-2.231,-2.231,-2.231,-2.231,-2.231,-2.231,-2.231,-2.231,-2.231,-2.231,-2.231,-2.231,-2.231,-2.231,-2.218,-2.2003,-2.1658,-2.1383,-2.1102,-2.0829,-2.0416,-2.0001,-1.9556,-1.9243,-1.9016,-1.9016,-1.9016,-1.9166,-1.963,-1.969,-1.969,-1.969,-1.969,-1.969,-1.969,-1.969,-1.969,-1.969,-1.969,-1.9495,-1.9031,-1.8388,-1.7781,-1.7309,-1.7085,-1.6817,-1.6493,-1.6803,-1.7299,-1.7993,-1.7614,-1.7369,-1.7268,-1.6935,-1.6548,-1.6204,-1.6388,-1.6308,-1.5982,-1.6358,-1.6296,-1.5994,-1.6371,-1.6522,-1.6522,-1.6522,-1.6522,-1.6522,-2.419,-2.419,-2.419,-2.419,-2.419,-2.419,-2.419,-2.419,-2.419,-2.419,-2.419,-2.419,-2.419,-2.419,-2.419,-2.419,-2.419,-2.419,-2.419,-2.419,-2.419,-2.419,-2.419,-2.419,-2.419,-2.419,-2.419,-2.419,-2.419,-2.419,-2.419,-2.4208,-2.4016,-2.3692,-2.3346,-2.3021,-2.2669,-2.2398,-2.231,-2.231,-2.231,-2.231,-2.231,-2.231,-2.231,-2.231,-2.231,-2.231,-2.231,-2.231,-2.231,-2.231,-2.231,-2.231,-2.231,-2.231,-2.231,-2.231,-2.231,-2.231,-2.2282,-2.2282,-2.1928,-2.1582,-2.1582,-2.0927,-2.0314,-2.0314,-1.9965,-1.969,-1.969,-1.969,-1.969,-1.969,-1.969,-1.969,-1.969,-1.969,-1.969,-1.969,-1.969,-1.969,-1.969,-1.969,-1.969,-1.969,-1.969,-1.969,-1.969,-1.9061,-1.8515,-1.8114,-1.7432,-1.717,-1.7283,-1.717,-1.6905,-1.6532,-1.7581,-1.7827,-1.7312,-1.7312,-1.7312,-1.7271,-1.671,-1.6522,-1.6522,-1.6522,-1.6522,-1.6522,-1.6522,-1.6522,-1.6522,-1.6522,-1.6522,-1.6522,-2.419,-2.419,-2.419,-2.419,-2.419,-2.419,-2.419,-2.419,-2.419,-2.419,-2.419,-2.419,-2.419,-2.419,-2.419,-2.419,-2.419,-2.419,-2.419,-2.419,-2.419,-2.419,-2.419,-2.419,-2.419,-2.419,-2.419,-2.419,-2.419,-2.419,-2.419,-2.3976,-2.3795,-2.3671,-2.3093,-2.2797,-2.2669,-2.2398,-2.231,-2.231,-2.231,-2.231,-2.231,-2.231,-2.231,-2.231,-2.231,-2.231,-2.231,-2.231,-2.231,-2.231,-2.231,-2.231,-2.231,-2.231,-2.231,-2.231,-2.231,-2.2061,-2.1794,-2.1794,-2.1688,-2.146,-2.083,-2.0483,-2.0212,-1.9929,-1.9782,-1.969,-1.969,-1.969,-1.969,-1.969,-1.969,-1.969,-1.969,-1.969,-1.969,-1.969,-1.969,-1.969,-1.969,-1.969,-1.969,-1.969,-1.969,-1.953,-1.9169,-1.8943,-1.8455,-1.7569,-1.733,-1.725,-1.729,-1.725,-1.7357,-1.7595,-1.7585,-1.7463,-1.7312,-1.6909,-1.6752,-1.671,-1.6552,-1.6522,-1.6522,-1.6522,-1.6522,-1.6522,-1.6522,-1.6522,-1.6522,-1.6522,-1.6522,-1.6522,-2.419,-2.419,-2.419,-2.419,-2.419,-2.419,-2.419,-2.419,-2.419,-2.419,-2.419,-2.419,-2.419,-2.419,-2.419,-2.419,-2.419,-2.419,-2.419,-2.419,-2.4132,-2.3917,-2.3855,-2.3917,-2.419,-2.419,-2.419,-2.419,-2.419,-2.4094,-2.3917,-2.3714,-2.3522,-2.33,-2.2873,-2.2634,-2.2537,-2.236,-2.231,-2.231,-2.231,-2.231,-2.231,-2.231,-2.231,-2.231,-2.231,-2.231,-2.231,-2.231,-2.231,-2.231,-2.231,-2.231,-2.2254,-2.2077,-2.2032,-2.2003,-2.1827,-2.1584,-2.1337,-2.1134,-2.1102,-2.0959,-2.04,-2.0193,-2.0,-1.9747,-1.969,-1.969,-1.969,-1.9914,-2.0094,-2.0094,-2.0094,-2.0094,-2.0094,-1.9854,-1.969,-1.969,-1.969,-1.969,-1.969,-1.969,-1.9603,-1.9406,-1.9369,-1.9169,-1.8612,-1.8574,-1.8302,-1.7626,-1.7435,-1.7312,-1.7312,-1.7353,-1.7508,-1.7787,-1.7463,-1.7188,-1.6951,-1.6637,-1.6522,-1.6522,-1.6522,-1.6522,-1.6522,-1.6522,-1.6522,-1.6522,-1.6522,-1.6522,-1.6522,-1.6522,-1.6522,-1.6522,-2.419,-2.419,-2.419,-2.419,-2.419,-2.419,-2.419,-2.419,-2.419,-2.419,-2.419,-2.419,-2.419,-2.419,-2.419,-2.419,-2.4112,-2.4034,-2.4034,-2.4034,-2.3834,-2.341,-2.323,-2.3432,-2.4074,-2.4054,-2.4034,-2.4034,-2.4034,-2.3813,-2.3392,-2.3432,-2.3165,-2.2695,-2.2669,-2.2527,-2.231,-2.231,-2.231,-2.231,-2.231,-2.231,-2.231,-2.231,-2.231,-2.231,-2.231,-2.231,-2.231,-2.231,-2.2282,-2.2237,-2.2237,-2.2209,-2.2106,-2.1658,-2.1552,-2.146,-2.1086,-2.0959,-2.0829,-2.0416,-2.028,-2.0246,-2.0246,-1.9965,-1.9705,-1.9765,-1.9779,-1.9794,-1.9854,-2.0378,-2.0797,-2.0797,-2.0797,-2.0797,-2.0797,-2.0206,-1.9818,-1.9869,-1.9818,-1.9781,-1.9781,-1.9745,-1.9509,-1.9027,-1.8932,-1.8659,-1.8149,-1.8054,-1.8027,-1.7947,-1.7463,-1.7229,-1.7229,-1.7339,-1.7364,-1.7308,-1.7361,-1.7122,-1.6597,-1.6647,-1.6609,-1.6522,-1.6572,-1.6572,-1.6522,-1.6522,-1.6522,-1.6522,-1.6522,-1.6522,-1.6522,-1.6522,-1.6522,-1.6522,-2.419,-2.419,-2.419,-2.419,-2.419,-2.419,-2.419,-2.419,-2.419,-2.419,-2.419,-2.419,-2.419,-2.419,-2.419,-2.419,-2.3283,-2.2703,-2.2703,-2.2703,-2.2668,-2.2561,-2.2508,-2.2712,-2.3177,-2.2867,-2.2703,-2.2703,-2.2703,-2.2668,-2.2561,-2.2883,-2.2915,-2.2695,-2.2473,-2.2332,-2.231,-2.231,-2.231,-2.231,-2.231,-2.231,-2.231,-2.231,-2.231,-2.231,-2.231,-2.231,-2.231,-2.231,-2.2061,-2.1748,-2.1748,-2.1538,-2.126,-2.115,-2.1118,-2.1118,-2.1023,-2.0715,-2.0416,-2.0314,-2.0054,-1.9839,-1.9839,-1.9747,-1.9839,-2.0378,-2.0483,-2.0647,-2.1156,-2.138,-2.1485,-2.1485,-2.1485,-2.1485,-2.1485,-2.0896,-2.0673,-2.1207,-2.0808,-2.0483,-2.0483,-2.0047,-1.9726,-1.9627,-1.9169,-1.8687,-1.8182,-1.7729,-1.7271,-1.6879,-1.671,-1.668,-1.668,-1.7175,-1.7402,-1.7365,-1.7796,-1.7738,-1.7212,-1.7639,-1.735,-1.6547,-1.6999,-1.6936,-1.6522,-1.6522,-1.6522,-1.6522,-1.6522,-1.6522,-1.6522,-1.6522,-1.6522,-1.6522,-2.419,-2.419,-2.419,-2.419,-2.419,-2.419,-2.419,-2.419,-2.419,-2.419,-2.419,-2.419,-2.419,-2.3664,-2.3307,-2.3307,-2.2677,-2.231,-2.231,-2.231,-2.231,-2.231,-2.231,-2.2405,-2.2624,-2.2405,-2.231,-2.231,-2.231,-2.231,-2.231,-2.2508,-2.2598,-2.25,-2.236,-2.231,-2.231,-2.231,-2.231,-2.231,-2.231,-2.231,-2.231,-2.231,-2.231,-2.231,-2.231,-2.231,-2.231,-2.231,-2.2003,-2.1582,-2.1582,-2.1337,-2.0975,-2.0715,-2.0665,-2.0695,-2.0817,-2.0681,-2.0579,-2.0898,-2.0805,-2.0557,-2.0243,-2.0183,-2.0363,-2.1036,-2.1186,-2.1291,-2.1635,-2.1949,-2.2158,-2.2158,-2.1898,-2.1718,-2.1718,-2.0869,-2.0401,-2.0724,-2.05,-2.0274,-2.0274,-1.9986,-1.9693,-1.9427,-1.9131,-1.8738,-1.8242,-1.7913,-1.7613,-1.7325,-1.7325,-1.7325,-1.7325,-1.789,-1.8166,-1.8166,-1.8191,-1.8053,-1.779,-1.8078,-1.7877,-1.7338,-1.7639,-1.7451,-1.6936,-1.6936,-1.6773,-1.6522,-1.6522,-1.6522,-1.6547,-1.6823,-1.6936,-1.6886,-2.419,-2.419,-2.419,-2.419,-2.419,-2.419,-2.419,-2.419,-2.419,-2.419,-2.419,-2.4132,-2.3894,-2.2917,-2.231,-2.231,-2.231,-2.231,-2.231,-2.231,-2.231,-2.231,-2.231,-2.231,-2.231,-2.231,-2.231,-2.231,-2.231,-2.231,-2.231,-2.231,-2.231,-2.231,-2.231,-2.231,-2.231,-2.231,-2.231,-2.231,-2.231,-2.231,-2.2282,-2.2209,-2.218,-2.218,-2.2106,-2.2077,-2.2077,-2.2077,-2.1781,-2.1399,-2.1399,-2.1102,-2.0698,-2.033,-2.027,-2.043,-2.0618,-2.0797,-2.1006,-2.156,-2.1695,-2.1575,-2.1141,-2.0961,-2.1066,-2.1724,-2.1949,-2.2054,-2.2173,-2.2742,-2.3176,-2.3176,-2.2615,-2.2189,-2.2189,-2.1063,-2.0252,-2.0292,-2.0093,-1.9989,-2.0084,-1.9913,-1.9632,-1.9185,-1.906,-1.8835,-1.8342,-1.8254,-1.8204,-1.8204,-1.8204,-1.8204,-1.8204,-1.8744,-1.907,-1.9108,-1.8794,-1.853,-1.8342,-1.8442,-1.838,-1.8216,-1.8304,-1.8028,-1.7526,-1.7526,-1.7187,-1.6672,-1.6773,-1.6748,-1.6679,-1.7097,-1.7136,-1.6971,-2.419,-2.419,-2.419,-2.419,-2.419,-2.419,-2.419,-2.419,-2.419,-2.419,-2.419,-2.3771,-2.2694,-2.2405,-2.231,-2.231,-2.231,-2.231,-2.231,-2.231,-2.231,-2.231,-2.231,-2.231,-2.231,-2.231,-2.231,-2.231,-2.231,-2.231,-2.231,-2.231,-2.231,-2.231,-2.231,-2.231,-2.231,-2.231,-2.231,-2.231,-2.231,-2.231,-2.2254,-2.1853,-2.1688,-2.1658,-2.1291,-2.1166,-2.1166,-2.1166,-2.0846,-2.0483,-2.0483,-2.0193,-1.9839,-1.9818,-2.0204,-2.0663,-2.0692,-2.1126,-2.159,-2.168,-2.1695,-2.1814,-2.2308,-2.1964,-2.1739,-2.2413,-2.2966,-2.352,-2.4074,-2.4777,-2.5211,-2.5211,-2.4604,-2.4095,-2.4095,-2.2903,-2.2072,-2.2199,-2.1304,-2.0868,-2.1308,-2.041,-1.9775,-1.9674,-1.9257,-1.8956,-1.892,-1.8468,-1.8204,-1.8204,-1.8204,-1.8204,-1.8204,-1.8744,-1.9246,-1.9698,-2.0125,-1.9836,-1.8932,-1.9384,-1.9083,-1.8229,-1.8706,-1.8606,-1.8091,-1.8091,-1.7765,-1.7313,-1.779,-1.7689,-1.7217,-1.6742,-1.6139,-1.5559,-2.419,-2.419,-2.419,-2.419,-2.419,-2.419,-2.419,-2.419,-2.3935,-2.3236,-2.314,-2.2917,-2.2349,-2.231,-2.231,-2.231,-2.231,-2.231,-2.231,-2.231,-2.231,-2.231,-2.231,-2.231,-2.231,-2.231,-2.231,-2.231,-2.231,-2.231,-2.231,-2.231,-2.231,-2.231,-2.231,-2.231,-2.231,-2.231,-2.231,-2.2282,-2.2003,-2.1899,-2.1869,-2.1446,-2.1275,-2.1244,-2.1055,-2.0991,-2.0991,-2.0991,-2.0682,-2.0314,-2.0314,-2.0274,-2.0258,-2.0258,-2.0737,-2.1335,-2.171,-2.2278,-2.2847,-2.3236,-2.334,-2.3415,-2.3699,-2.355,-2.331,-2.3206,-2.3415,-2.3804,-2.4462,-2.4821,-2.5181,-2.5555,-2.4693,-2.3997,-2.3997,-2.2791,-2.1918,-2.1969,-2.1237,-2.0849,-2.1093,-2.0294,-1.9798,-1.9798,-1.9886,-1.9936,-1.9936,-1.971,-1.9723,-2.0024,-1.9736,-1.9723,-2.0037,-2.0275,-2.0514,-2.074,-2.1004,-2.0865,-2.0413,-2.0639,-2.0489,-2.0037,-1.9974,-1.9623,-1.9083,-1.8781,-1.8078,-1.7253,-1.7484,-1.7363,-1.6982,-1.6385,-1.6158,-1.6109]},{"header":{"parameterUnit":"m.s-1","parameterCategory":1,"la1":30.6,"la2":28.766,"lo1":-90.7593,"lo2":-88.6598,"dy":0.0162,"dx":0.0183,"nx":116,"ny":114,"refTime":"2023-07-26T06:00:00:Z","depth":0,"parameterNumber":3,"parameterNumberName":"V-component_of_WINDS"},"data":[0.0,0.0,0.0,0.0,0.0,0.0,0.0,0.0,0.0,0.0,0.0,0.0,0.0,0.0,0.0,0.0,0.0,0.0,0.0,0.0,0.0,0.0,0.0,0.0,0.0,0.0,0.0,0.0,0.0,0.0,0.0,0.0,0.0,0.0,0.0,0.0,0.0,0.0,0.0,0.0,0.0,0.0,0.0,0.0,0.0,0.0,0.0,0.0,0.0,0.0,0.0,0.0,0.0,0.0,0.0,0.0,0.0,0.0,0.0,0.0,0.0,0.0,0.0,0.0,0.0,0.0,0.0,0.0,0.0,0.0,0.0,0.0,0.0,0.0,0.0,0.0,0.0,0.0,0.0,0.0,0.0,0.0,0.0,0.0,0.0,0.0,0.0,0.0,0.0,0.0,0.0,0.0,0.0,0.0,0.0,0.0,0.0,0.0,0.0,0.0,0.0,0.0,0.0,0.0,0.0,0.0,0.0,0.0,0.0,0.0,0.0,0.0,0.0,0.0,0.0,0.0,0.0,0.0,0.0,0.0,0.0,0.0,0.0,0.0,0.0,0.0,0.0,0.0,0.0,0.0,0.0,0.0,0.0,0.0,0.0,0.0,0.0,0.0,0.0,0.0,0.0,0.0,0.0,0.0,0.0,0.0,0.0,0.0,0.0,0.0,0.0,0.0,0.0,0.0,0.0,0.0,0.0,0.0,0.0,0.0,0.0,0.0,0.0,0.0,0.0,0.0,0.0,0.0,0.0,0.0,0.0,0.0,0.0,0.0,0.0,0.0,0.0,0.0,0.0,0.0,0.0,0.0,0.0,0.0,0.0,0.0,0.0,0.0,0.0,0.0,0.0,0.0,0.0,0.0,0.0,0.0,0.0,0.0,0.0,0.0,0.0,0.0,0.0,0.0,0.0,0.0,0.0,0.0,0.0,0.0,0.0,0.0,0.0,0.0,0.0,0.0,0.0,0.0,0.0,0.0,0.0,0.0,0.0,0.0,0.0,0.0,0.0,0.0,0.0,0.0,0.0,0.0,0.0,0.0,0.0,0.0,0.0,0.0,0.0,0.0,0.0,0.0,0.0,0.0,0.0,0.0,0.0,0.0,0.0,0.0,0.0,0.0,0.0,0.0,0.0,0.0,0.0,0.0,0.0,0.0,0.0,0.0,0.0,0.0,0.0,0.0,0.0,0.0,0.0,0.0,0.0,0.0,0.0,0.0,0.0,0.0,0.0,0.0,0.0,0.0,0.0,0.0,0.0,0.0,0.0,0.0,0.0,0.0,0.0,0.0,0.0,0.0,0.0,0.0,0.0,0.0,0.0,0.0,0.0,0.0,0.0,0.0,0.0,0.0,0.0,0.0,0.0,0.0,0.0,0.0,0.0,0.0,0.0,0.0,0.0,0.0,0.0,0.0,0.0,0.0,0.0,0.0,0.0,0.0,0.0,0.0,0.0,0.0,0.0,0.0,0.0,0.0,0.0,0.0,0.0,0.0,0.0,0.0,0.0,0.0,0.0,0.0,0.0,0.0,0.0,0.0,0.0,0.0,0.0,0.0,0.0,0.0,0.0,0.0,0.0,0.0,0.0,0.0,0.0,0.0,0.0,0.0,0.0,0.0,0.0,0.0,0.0,0.0,0.0,0.0,0.0,0.0,0.0,0.0,0.0,0.0,0.0,0.0,0.0,0.0,0.0,0.0,0.0,0.0,0.0,0.0,0.0,0.0,0.0,0.0,0.0,0.0,0.0,0.0,0.0,0.0,0.0,0.0,0.0,0.0,0.0,0.0,0.0,0.0,0.0,0.0,0.0,0.0,0.0,0.0,0.0,0.0,0.0,0.0,0.0,0.0,0.0,0.0,0.0,0.0,0.0,0.0,0.0,0.0,0.0,0.0,0.0,0.0,0.0,0.0,0.0,0.0,0.0,0.0,0.0,0.0,0.0,0.0,0.0,0.0,0.0,0.0,0.0,0.0,0.0,0.0,0.0,0.0,0.0,0.0,0.0,0.0,0.0,0.0,0.0,0.0,0.0,0.0,0.0,0.0,0.0,0.0,0.0,0.0,0.0,0.0,0.0,0.0,0.0,0.0,0.0,0.0,0.0,0.0,0.0,0.0,0.0,0.0,0.0,0.0,0.0,0.0,0.0,0.0,0.0,0.0,0.0,0.0,0.0,0.0,0.0,0.0,0.0,0.0,0.0,0.0,0.0,0.0,0.0,0.0,0.0,0.0,0.0,0.0,0.0,0.0,0.0,0.0,0.0,0.0,0.0,0.0,0.0,0.0,0.0,0.0,0.0,0.0,0.0,0.0,0.0,0.0,0.0,0.0,0.0,0.0,0.0,0.0,0.0,0.0,0.0,0.0,0.0,0.0,0.0,0.0,0.0,0.0,0.0,0.0,0.0,0.0,0.0,0.0,0.0,0.0,0.0,0.0,0.0,0.0,0.0,0.0,0.0,0.0,0.0,0.0,0.0,0.0,0.0,0.0,0.0,0.0,0.0,0.0,0.0,0.0,0.0,0.0,0.0,0.0,0.0,0.0,0.0,0.0,0.0,0.0,0.0,0.0,0.0,0.0,0.0,0.0,0.0,0.0,0.0,0.0,0.0,0.0,0.0,0.0,0.0,0.0,0.0,0.0,0.0,0.0,0.0,0.0,0.0,0.0,0.0,0.0,0.0,0.0,0.0,0.0,0.0,0.0,0.0,0.0,0.0,0.0,0.0,0.0,0.0,0.0,0.0,0.0,0.0,0.0,0.0,0.0,0.0,0.0,0.0,0.0,0.0,0.0,0.0,0.0,0.0,0.0,0.0,0.0,0.0,0.0,0.0,0.0,0.0,0.0,0.0,0.0,0.0,0.0,0.0,0.0,0.0,0.0,0.0,0.0,0.0,0.0,0.0,0.0,0.0,0.0,0.0,0.0,0.0,0.0,0.0,0.0,0.0,0.0,0.0,0.0,0.0,0.0,0.0,0.0,0.0,0.0,0.0,0.0,0.0,0.0,0.0,0.0,0.0,0.0,0.0,0.0,0.0,0.0,0.0,0.0,0.0,0.0,0.0,0.0,0.0,0.0,0.0,0.0,0.0,0.0,0.0,0.0,0.0,0.0,0.0,0.0,0.0,0.0,0.0,0.0,0.0,0.0,0.0,0.0,0.0,0.0,0.0,0.0,0.0,0.0,0.0,0.0,0.0,0.0,0.0,0.0,0.0,0.0,0.0,0.0,0.0,0.0,0.0,0.0,0.0,0.0,0.0,0.0,0.0,0.0,0.0,0.0,0.0,0.0,0.0,0.0,0.0,0.0,0.0,0.0,0.0,0.0,0.0,0.0,0.0,0.0,0.0,0.0,0.0,0.0,0.0,0.0,0.0,0.0,0.0,0.0,0.0,0.0,0.0,0.0,0.0,0.0,0.0,0.0,0.0,0.0,0.0,0.0,0.0,0.0,0.0,0.0,0.0,0.0,0.0,0.0,0.0,0.0,0.0,0.0,0.0,0.0,0.0,0.0,0.0,0.0,0.0,0.0,0.0,0.0,0.0,0.0,0.0,0.0,0.0,0.0,0.0,0.0,0.0,0.0,0.0,0.0,0.0,0.0,0.0,0.0,0.0,0.0,0.0,0.0,0.0,0.0,0.0,0.0,0.0,0.0,0.0,0.0,0.0,0.0,0.0,0.0,0.0,0.0,0.0,0.0,0.0,0.0,0.0,0.0,0.0,0.0,0.0,0.0,0.0,0.0,0.0,0.0,0.0,0.0,0.0,0.0,0.0,0.0,0.0,0.0,0.0,0.0,0.0,0.0,0.0,0.0,0.0,0.0,0.0,0.0,0.0,0.0,0.0,0.0,0.0,0.0,0.0,0.0,0.0,0.0,0.0,0.0,0.0,0.0,0.0,0.0,0.0,0.0,0.0,0.0,0.0,0.0,0.0,0.0,0.0,0.0,0.0,0.0,0.0,0.0,0.0,0.0,0.0,0.0,0.0,0.0,0.0,0.0,0.0,0.0,0.0,0.0,0.0,0.0,0.0,0.0,0.0,0.0,0.0,0.0,0.0,0.0,0.0,0.0,0.0,0.0,0.0,0.0,0.0,0.0,0.0,0.0,0.0,0.0,0.0,0.0,0.0,0.0,0.0,0.0,0.0,0.0,0.0,0.0,0.0,0.0,0.0,0.0,0.0,0.0,0.0,0.0,0.0,0.0,0.0,0.0,0.0,0.0,0.0,0.0,0.0,0.0,0.0,0.0,0.0,0.0,0.0,0.0,0.0,0.0,0.0,0.0,0.0,0.0,0.0,0.0,0.0,0.0,0.0,0.0,0.0,0.0,0.0,0.0,0.0,0.0,0.0,0.0,0.0,0.0,0.0,0.0,0.0,0.0,0.0,0.0,0.0,0.0,0.0,0.0,0.0,0.0,0.0,0.0,0.0,0.0,0.0,0.0,0.0,0.0,0.0,0.0,0.0,0.0,0.0,0.0,0.0,0.0,0.0,0.0,0.0,0.0,0.0,0.0,0.0,0.0,0.0,0.0,0.0,0.0,0.0,0.0,0.0,0.0,0.0,0.0,0.0,0.0,0.0,0.0,0.0,0.0,0.0,0.0,0.0,0.0,0.0,0.0,0.0,0.0,0.0,0.0,0.0,0.0,0.0,0.0,0.0,0.0,0.0,0.0,0.0,0.0,0.0,0.0,0.0,0.0,0.0,0.0,0.0,0.0,0.0,0.0,0.0,0.0,0.0,0.0,0.0,0.0,0.0,0.0,0.0,0.0,0.0,0.0,0.0,0.0,0.0,0.0,0.0,0.0,0.0,0.0,0.0,0.0,0.0,0.0,0.0,0.0,0.0,0.0,0.0,0.0,0.0,0.0,0.0,0.0,0.0,0.0,0.0,0.0,0.0,0.0,0.0,0.0,0.0,0.0,0.0,0.0,0.0,0.0,0.0,0.0,0.0,0.0,0.0,0.0,0.0,0.0,0.0,0.0,0.0,0.0,0.0,0.0,0.0,0.0,0.0,0.0,0.0,0.0,0.0,0.0,0.0,0.0,0.0,0.0,0.0,0.0,0.0,0.0,0.0,0.0,0.0,0.0,0.0,0.0,0.0,0.0,0.0,0.0,0.0,0.0,0.0,0.0,0.0,0.0,0.0,0.0,0.0,0.0,0.0,0.0,0.0,0.0,0.0,0.0,0.0,0.0,0.0,0.0,0.0,0.0,0.0,0.0,0.0,0.0,0.0,0.0,0.0,0.0,0.0,0.0,0.0,0.0,0.0,0.0,0.0,0.0,0.0,0.0,0.0,0.0,0.0,0.0,0.0,0.0,0.0,0.0,0.0,0.0,0.0,0.0,0.0,0.0,0.0,0.0,0.0,0.0,0.0,0.0,0.0,0.0,0.0,0.0,0.0,0.0,0.0,0.0,0.0,0.0,0.0,0.0,0.0,0.0,0.0,0.0,0.0,0.0,0.0,0.0,0.0,0.0,0.0,0.0,0.0,0.0,0.0,0.0,0.0,0.0,0.0,0.0,0.0,0.0,0.0,0.0,0.0,0.0,0.0,0.0,0.0,0.0,0.0,0.0,0.0,0.0,0.0,0.0,0.0,0.0,0.0,0.0,0.0,0.0,0.0,0.0,0.0,0.0,0.0,0.0,0.0,0.0,0.0,0.0,0.0,0.0,0.0,0.0,0.0,0.0,0.0,0.0,0.0,0.0,0.0,0.0,0.0,0.0,0.0,0.0,0.0,0.0,0.0,0.0,0.0,0.0,0.0,0.0,0.0,0.0,0.0,0.0,0.0,0.0,0.0,0.0,0.0,0.0,0.0,0.0,0.0,0.0,0.0,0.0,0.0,0.0,0.0,0.0,0.0,0.0,0.0,0.0,0.0,0.0,0.0,0.0,0.0,0.0,0.0,0.0,0.0,0.0,0.0,0.0,0.0,0.0,0.0,0.0,0.0,0.0,0.0,0.0,0.0,0.0,0.0,0.0,0.0,0.0,0.0,0.0,0.0,0.0,0.0,0.0,0.0,0.0,0.0,0.0,0.0,0.0,0.0,0.0,0.0,0.0,0.0,0.0,0.0,0.0,0.0,0.0,0.0,0.0,0.0,0.0,0.0,0.0,0.0,0.0,-1.1195,-1.1378,0.0,0.0,0.0,0.0,0.0,0.0,0.0,0.0,0.0,0.0,0.0,0.0,0.0,0.0,0.0,0.0,0.0,0.0,0.0,0.0,0.0,0.0,0.0,0.0,0.0,0.0,0.0,0.0,0.0,0.0,0.0,0.0,0.0,0.0,0.0,0.0,0.0,0.0,0.0,0.0,0.0,0.0,0.0,0.0,0.0,0.0,0.0,0.0,0.0,0.0,0.0,0.0,0.0,0.0,0.0,0.0,0.0,0.0,0.0,0.0,0.0,0.0,0.0,0.0,0.0,0.0,0.0,0.0,0.0,0.0,0.0,0.0,0.0,0.0,0.0,0.0,0.0,0.0,0.0,0.0,0.0,0.0,0.0,0.0,0.0,0.0,0.0,0.0,0.0,0.0,0.0,0.0,0.0,0.0,0.0,0.0,0.0,0.0,0.0,0.0,0.0,0.0,0.0,0.0,0.0,0.0,0.0,0.0,0.0,0.0,0.0,0.0,0.0,0.0,-1.1154,-1.1164,0.0,0.0,0.0,0.0,0.0,0.0,0.0,0.0,0.0,0.0,0.0,0.0,0.0,0.0,0.0,0.0,0.0,0.0,0.0,0.0,0.0,0.0,0.0,0.0,0.0,0.0,0.0,0.0,0.0,0.0,0.0,0.0,0.0,0.0,0.0,0.0,0.0,0.0,0.0,0.0,0.0,0.0,0.0,0.0,0.0,0.0,0.0,0.0,0.0,0.0,0.0,0.0,0.0,0.0,0.0,0.0,0.0,0.0,0.0,0.0,0.0,0.0,0.0,0.0,0.0,0.0,0.0,0.0,0.0,0.0,0.0,0.0,0.0,0.0,0.0,0.0,0.0,0.0,0.0,0.0,0.0,0.0,0.0,0.0,0.0,0.0,0.0,0.0,0.0,0.0,0.0,0.0,0.0,0.0,0.0,0.0,0.0,0.0,0.0,0.0,0.0,0.0,0.0,0.0,0.0,0.0,0.0,0.0,-1.3246,-1.3234,-1.2969,-1.2684,-1.2113,-1.1394,-1.1128,-1.069,-1.0238,-1.0097,0.0,0.0,0.0,0.0,0.0,0.0,0.0,0.0,0.0,0.0,0.0,0.0,0.0,0.0,0.0,0.0,0.0,0.0,0.0,0.0,0.0,0.0,0.0,0.0,0.0,0.0,0.0,0.0,0.0,0.0,0.0,0.0,0.0,0.0,0.0,0.0,0.0,0.0,-1.3969,-1.4832,-1.5787,-1.6758,0.0,0.0,0.0,0.0,0.0,0.0,0.0,0.0,0.0,0.0,0.0,0.0,0.0,0.0,0.0,0.0,0.0,0.0,0.0,0.0,0.0,0.0,0.0,0.0,0.0,0.0,0.0,0.0,0.0,0.0,0.0,0.0,0.0,0.0,0.0,0.0,0.0,0.0,0.0,0.0,0.0,0.0,0.0,0.0,-0.8546,-1.3013,0.0,0.0,0.0,0.0,0.0,0.0,0.0,0.0,0.0,0.0,0.0,0.0,0.0,-1.3069,-1.3347,-1.3561,-1.3558,-1.3341,-1.384,-1.3797,-1.3238,-1.2906,-1.2418,-1.179,-1.1464,0.0,-0.9602,-0.9237,0.0,0.0,0.0,0.0,0.0,0.0,0.0,0.0,0.0,0.0,0.0,0.0,0.0,0.0,0.0,0.0,0.0,0.0,0.0,0.0,0.0,0.0,0.0,0.0,0.0,0.0,0.0,0.0,0.0,0.0,0.0,0.0,0.0,0.0,0.0,0.0,-1.2681,-1.2983,-1.3433,-1.4901,-1.5805,-1.6219,-1.6668,-1.6864,-1.6774,-1.5979,0.0,0.0,0.0,0.0,0.0,0.0,0.0,0.0,0.0,0.0,0.0,0.0,0.0,0.0,0.0,0.0,0.0,0.0,0.0,0.0,0.0,0.0,0.0,0.0,0.0,0.0,0.0,0.0,0.0,0.0,0.0,0.0,0.0,0.0,0.0,0.0,0.0,0.0,0.0,-0.8522,-1.0654,-1.2891,-1.3074,-1.2989,0.0,0.0,0.0,0.0,0.0,0.0,0.0,0.0,0.0,-1.3472,-1.3277,-1.3402,-1.3895,-1.3961,-1.3835,-1.3518,-1.3772,-1.363,-1.3115,-1.2962,-1.2625,-1.2124,-1.1975,-1.1292,-1.0247,-0.9801,-0.934,-0.8824,0.0,0.0,0.0,0.0,-0.8656,-0.8497,0.0,0.0,0.0,0.0,0.0,0.0,0.0,0.0,0.0,0.0,0.0,0.0,0.0,0.0,0.0,-0.9055,0.0,0.0,0.0,0.0,0.0,0.0,0.0,0.0,0.0,0.0,0.0,0.0,-1.306,-1.3426,-1.361,-1.5439,-1.6398,-1.6563,-1.7115,-1.706,-1.6502,-1.5538,-1.5075,0.0,0.0,0.0,0.0,0.0,0.0,0.0,0.0,0.0,0.0,0.0,0.0,0.0,0.0,0.0,0.0,0.0,0.0,0.0,0.0,0.0,0.0,0.0,0.0,0.0,0.0,0.0,0.0,0.0,0.0,0.0,0.0,0.0,0.0,0.0,0.0,0.0,0.0,-1.0878,-1.2754,-1.2716,-1.2588,-1.2494,0.0,0.0,0.0,0.0,0.0,0.0,-1.3187,-1.3089,-1.3261,-1.3847,-1.3749,-1.395,-1.4527,-1.4569,-1.4437,-1.4136,-1.4177,-1.3933,-1.3419,-1.3291,-1.2914,-1.2453,-1.2453,-1.1981,-1.1182,-1.0613,-0.9868,-0.9062,-0.8822,-0.8258,-0.7648,-0.8143,-0.8169,-0.7939,0.0,0.0,0.0,0.0,0.0,0.0,0.0,0.0,0.0,0.0,0.0,0.0,0.0,0.0,-0.9703,-1.0256,-0.9913,-1.021,0.0,0.0,0.0,0.0,0.0,0.0,0.0,0.0,0.0,-1.3142,-1.3567,-1.442,-1.5679,-1.6997,-1.7921,-1.8568,-1.8593,-1.8302,-1.7698,-1.5992,-1.5655,-1.6103,0.0,0.0,0.0,0.0,0.0,0.0,0.0,0.0,0.0,0.0,0.0,0.0,0.0,0.0,0.0,0.0,0.0,0.0,0.0,0.0,0.0,0.0,0.0,0.0,0.0,0.0,0.0,0.0,0.0,0.0,0.0,0.0,0.0,0.0,0.0,0.0,0.0,0.0,0.0,-1.2231,-1.2226,0.0,0.0,0.0,0.0,-1.4038,-1.3638,-1.3803,-1.4827,-1.4394,-1.4428,-1.5087,-1.4681,-1.4745,-1.543,-1.5554,-1.5605,-1.5605,-1.5526,-1.5194,-1.4585,-1.4032,-1.3433,-1.2861,-1.2861,-1.2616,-1.2044,-1.1211,-1.0342,-0.957,-0.9534,-0.9271,-0.8834,-0.8374,-0.8201,-0.8096,0.0,0.0,0.0,0.0,0.0,0.0,0.0,0.0,0.0,0.0,0.0,0.0,0.0,-0.917,-0.9609,-1.0045,-1.0385,-1.0666,-1.0913,0.0,0.0,0.0,0.0,0.0,0.0,0.0,-1.3628,-1.3582,-1.4989,-1.5905,-1.6428,-1.7745,-1.8293,-1.8185,-1.8264,-1.8019,-1.7433,-1.6382,-1.5532,-1.4859,-1.4684,-1.4232,0.0,0.0,0.0,0.0,0.0,0.0,0.0,0.0,0.0,0.0,0.0,0.0,0.0,0.0,0.0,0.0,0.0,0.0,0.0,0.0,0.0,0.0,0.0,0.0,0.0,0.0,0.0,0.0,0.0,0.0,0.0,0.0,0.0,0.0,0.0,0.0,0.0,-1.3505,-1.3795,0.0,-1.3984,-1.3785,-1.3796,-1.4167,-1.4015,-1.4127,-1.4654,-1.4491,-1.4572,-1.491,-1.4802,-1.4776,-1.4974,-1.465,-1.4474,-1.4474,-1.4068,-1.3742,-1.3515,-1.3334,-1.3104,-1.2881,-1.2881,-1.2793,-1.2627,-1.2305,-1.1223,-0.9762,-0.9316,-0.901,-0.8784,-0.8671,-0.8644,-0.8678,0.0,0.0,0.0,0.0,0.0,0.0,0.0,0.0,0.0,0.0,0.0,-0.8214,-0.9048,-0.9513,-0.9973,-1.0492,-1.0734,-1.0955,-1.1165,0.0,0.0,0.0,0.0,0.0,0.0,-1.3621,-1.4292,-1.4468,-1.6024,-1.6875,-1.7111,-1.847,-1.8914,-1.8582,-1.8676,-1.841,-1.7854,-1.6989,-1.5872,-1.4639,-1.4539,-1.421,-1.3732,0.0,0.0,0.0,0.0,0.0,0.0,0.0,0.0,0.0,0.0,0.0,0.0,0.0,0.0,0.0,0.0,0.0,0.0,0.0,0.0,0.0,0.0,0.0,0.0,0.0,0.0,0.0,0.0,0.0,0.0,0.0,0.0,0.0,0.0,-1.3628,-1.4215,-1.4201,-1.466,-1.4937,-1.4752,-1.4455,-1.446,-1.4796,-1.4759,-1.4918,-1.5421,-1.5272,-1.5151,-1.5076,-1.5057,-1.4949,-1.4698,-1.4283,-1.4097,-1.4097,-1.3515,-1.319,-1.32,-1.2968,-1.2774,-1.255,-1.255,-1.2403,-1.2157,-1.1959,-1.1085,-0.9877,-0.9706,-0.9396,-0.8936,-0.8873,-0.8854,-0.8859,0.0,0.0,0.0,0.0,0.0,0.0,0.0,0.0,0.0,0.0,-0.4722,-0.8244,-0.9128,-0.995,-1.0802,-1.1685,-1.0906,-1.0936,-1.2297,-1.0874,0.0,0.0,0.0,0.0,-1.3204,-1.3906,-1.4786,-1.5858,-1.6623,-1.7311,-1.7964,-1.9281,-1.9886,-1.9846,-1.9861,-1.9565,-1.899,-1.7797,-1.6734,-1.5668,-1.4588,-1.4437,-1.4765,0.0,0.0,0.0,0.0,0.0,0.0,0.0,0.0,0.0,0.0,0.0,0.0,0.0,0.0,0.0,0.0,0.0,0.0,0.0,0.0,0.0,0.0,0.0,0.0,0.0,0.0,0.0,0.0,0.0,0.0,0.0,0.0,0.0,-1.3461,-1.3895,-1.4266,-1.4247,-1.4742,-1.4864,-1.4354,-1.4441,-1.5007,-1.6023,-1.5867,-1.6191,-1.7203,-1.6752,-1.6194,-1.5588,-1.5531,-1.5231,-1.4663,-1.4652,-1.4652,-1.4663,-1.405,-1.3768,-1.3732,-1.3152,-1.251,-1.1814,-1.1814,-1.1416,-1.0771,-1.0115,-0.9814,-0.9887,-1.0774,-1.0454,-0.946,-0.8911,-0.8732,-0.8638,0.0,0.0,0.0,0.0,0.0,0.0,0.0,0.0,0.0,0.0,-0.7,-0.8364,-0.9576,-0.9488,-0.9818,-1.0962,-0.9998,-0.9526,-1.0012,0.0,0.0,0.0,0.0,0.0,-1.3633,-1.5206,-1.6398,-1.7191,-1.8342,-1.8819,-1.8648,-1.9376,-1.936,-1.8694,-1.9084,-1.8963,-1.8435,-1.8099,-1.7776,-1.7388,-1.5856,-1.489,-1.4286,0.0,0.0,0.0,0.0,0.0,0.0,0.0,0.0,0.0,0.0,0.0,0.0,0.0,0.0,0.0,0.0,0.0,0.0,0.0,0.0,0.0,0.0,0.0,0.0,0.0,0.0,0.0,0.0,0.0,0.0,0.0,-1.3495,-1.3536,-1.3413,-1.4679,-1.558,-1.5599,-1.6207,-1.6619,-1.6478,-1.6163,-1.6059,-1.6363,-1.6321,-1.6401,-1.671,-1.6182,-1.5555,-1.4971,-1.4503,-1.4014,-1.3382,-1.3382,-1.3382,-1.3382,-1.3248,-1.3152,-1.3152,-1.2968,-1.251,-1.1814,-1.1814,-1.1416,-1.0762,-1.0618,-1.0269,-0.9755,-0.957,-0.9576,-0.9645,-0.9003,-0.9054,-0.9398,0.0,0.0,0.0,0.0,0.0,0.0,0.0,0.0,0.0,0.0,-0.7899,-0.8199,-0.8962,-0.8963,-0.9308,-1.0339,-0.954,-0.9017,-0.9096,0.0,0.0,0.0,0.0,-1.3818,-1.4618,-1.6264,-1.7443,-1.81,-1.8954,-1.9095,-1.8588,-1.9385,-1.9348,-1.8579,-1.9186,-1.9264,-1.8935,-1.8387,-1.8204,-1.8116,-1.7137,-1.622,-1.5407,-1.4702,-1.435,-1.4237,-1.3998,-1.3973,-1.4035,-1.3684,0.0,0.0,0.0,0.0,0.0,0.0,0.0,0.0,0.0,0.0,0.0,0.0,0.0,0.0,0.0,0.0,0.0,0.0,0.0,0.0,0.0,0.0,0.0,0.0,-1.3903,-1.4095,-1.4637,-1.5506,-1.6126,-1.6243,-1.6863,-1.7188,-1.6993,-1.668,-1.6522,-1.6522,-1.6281,-1.6139,-1.6139,-1.5555,-1.4971,-1.4329,-1.3956,-1.3505,-1.2929,-1.2881,-1.2881,-1.2881,-1.2881,-1.2881,-1.2881,-1.2881,-1.251,-1.1814,-1.1814,-1.1266,-1.0364,-1.0364,-0.9969,-0.9361,0.0,0.0,0.0,0.0,-0.8978,-0.9163,0.0,0.0,0.0,0.0,0.0,0.0,0.0,0.0,0.0,0.0,0.0,-0.7899,-0.7899,-0.8439,-0.9053,-0.9755,-0.9306,-0.9004,0.0,0.0,0.0,-1.1147,-1.3006,-1.4573,-1.5769,-1.7131,-1.8085,-1.8599,-1.8812,-1.8574,-1.804,-1.9182,-1.9452,-1.9021,-1.9627,-1.9969,-2.0,-1.8846,-1.8455,-1.8555,-1.838,-1.7928,-1.7212,-1.5683,-1.5329,-1.5618,-1.5104,-1.4639,-1.4261,-1.4198,0.0,0.0,0.0,0.0,0.0,0.0,0.0,0.0,0.0,0.0,0.0,0.0,0.0,0.0,0.0,0.0,0.0,0.0,0.0,0.0,0.0,0.0,0.0,0.0,-1.4546,-1.5097,-1.6405,-1.6374,-1.6349,-1.667,-1.7115,-1.7203,-1.6653,-1.6609,-1.6541,-1.6423,-1.5908,-1.5588,-1.5499,-1.4926,0.0,0.0,0.0,-1.342,-1.2929,-1.2881,-1.2881,-1.2881,-1.2881,-1.2881,-1.2881,-1.2881,-1.2461,-1.1665,-1.1665,-1.0914,-0.9666,-0.9666,-0.9361,-0.8857,-0.9465,-0.9309,-0.8804,-0.8804,-0.8644,-0.8457,0.0,0.0,0.0,0.0,0.0,0.0,0.0,0.0,0.0,-0.7555,-0.7899,-0.7899,-0.7899,-0.8019,-0.8424,-0.9263,-0.8605,-0.8349,0.0,0.0,-1.0962,-1.1644,-1.406,-1.5544,-1.5799,-1.758,-1.8362,-1.8064,-1.8627,-1.8419,-1.7476,-1.8209,-1.8453,-1.8393,-1.8963,-1.9712,-2.0511,-1.9787,-2.0024,-2.074,-1.9409,-1.8267,-1.73,-1.6509,-1.5994,-1.5618,-1.5104,-1.513,-1.5304,-1.4903,-1.4764,-1.4681,-1.3912,0.0,0.0,0.0,0.0,0.0,0.0,0.0,0.0,0.0,0.0,0.0,0.0,0.0,0.0,0.0,0.0,0.0,0.0,0.0,0.0,-1.3735,-1.4541,-1.5552,-1.6788,-1.6952,-1.7149,-1.7793,-1.7958,-1.7839,-1.7262,-1.7212,-1.6834,-1.5856,-1.5676,-1.5365,-1.4926,-1.4283,-1.3909,-1.3815,-1.3334,-1.3017,-1.2881,-1.2881,-1.2881,-1.2881,-1.2881,0.0,-1.2881,-1.2881,-1.2206,-1.1015,-1.1015,-1.021,-0.9008,-0.9008,-0.891,-0.8804,-0.8962,-0.891,-0.8804,-0.8804,-0.8771,-0.8697,0.0,0.0,0.0,0.0,0.0,0.0,0.0,0.0,0.0,0.0,-0.6718,-0.6404,-0.7749,-0.6703,-0.6254,-0.7165,-0.7644,0.0,0.0,-1.0084,-1.1266,-1.2254,-1.4554,-1.6113,-1.6742,-1.8029,-1.8748,-1.8811,-1.8861,-1.8496,-1.772,-1.8309,-1.8468,-1.8254,-1.9359,-2.015,-2.0718,-2.0652,-2.0815,-2.1004,-2.0175,-1.9346,-1.8468,-1.7375,-1.6773,-1.6471,-1.5894,-1.5693,-1.5655,-1.5379,-1.522,-1.5019,-1.4335,-1.361,-1.2942,0.0,0.0,0.0,0.0,0.0,0.0,0.0,0.0,0.0,0.0,0.0,0.0,0.0,0.0,-1.1834,0.0,0.0,-1.3883,-1.47,-1.5488,-1.6193,-1.6848,-1.7203,-1.7342,-1.7312,-1.7579,-1.7334,-1.6154,-1.6332,-1.6122,-1.5209,-1.4869,-1.4595,-1.4283,-1.3695,-1.3324,-1.3324,-1.3065,-1.2881,-1.2881,-1.2881,-1.2881,-1.2881,-1.2881,-1.2881,-1.2881,-1.251,-1.1981,-1.1266,-1.0965,-1.0218,-0.9256,-0.8956,-0.8804,-0.8804,-0.8804,-0.8804,-0.8804,-0.8804,-0.8804,-0.8784,0.0,0.0,0.0,0.0,0.0,0.0,0.0,0.0,0.0,0.0,-0.5252,-0.4913,-0.7614,-0.597,-0.4982,0.0,0.0,0.0,0.0,-1.0294,-1.1595,-1.2951,-1.4929,-1.6398,-1.7326,-1.8238,-1.8793,-1.8986,-1.8852,-1.8419,-1.7814,-1.8407,-1.8485,-1.8279,-1.9811,-2.0668,-2.0853,-2.1305,-2.1292,-2.0966,-2.0806,-2.0388,-1.9786,-1.8154,-1.7539,-1.7438,-1.6647,-1.6007,-1.553,-1.553,-1.5241,-1.4853,-1.4513,-1.4337,-1.412,-1.3362,-1.2737,0.0,0.0,0.0,0.0,0.0,0.0,0.0,0.0,0.0,-1.1706,-1.1426,-1.2026,-1.2818,-1.3611,-1.42,-1.48,-1.5628,-1.62,-1.6558,-1.6719,-1.7026,-1.7006,-1.624,-1.6834,-1.6702,-1.5127,-1.5349,-1.5302,-1.4571,-1.405,-1.3732,-1.3637,-1.3152,-1.2881,-1.2881,-1.2881,-1.2881,-1.2881,-1.2881,-1.2881,-1.2881,-1.2881,-1.2822,-1.2666,-1.208,-1.1665,-1.1366,-1.0712,-1.0115,-0.9562,-0.9008,-0.8804,-0.8804,-0.8804,-0.8804,-0.8804,-0.8804,-0.8804,-0.8804,0.0,0.0,0.0,0.0,0.0,0.0,0.0,0.0,0.0,0.0,0.0,0.0,0.0,0.0,0.0,0.0,0.0,0.0,-0.9695,-1.0982,-1.2299,-1.363,-1.5562,-1.6413,-1.6023,-1.7775,-1.7972,-1.6504,-1.7657,-1.7666,-1.6693,-1.7308,-1.7819,-1.8254,-1.9397,-2.0451,-2.1393,-2.1455,-2.1732,-2.2046,-2.1054,-2.068,-2.0441,-1.8744,-1.8116,-1.7903,-1.6346,-1.5429,-1.5004,-1.5004,-1.4966,-1.4979,-1.5379,-1.5178,-1.4702,-1.4109,0.0,-1.2091,-1.2241,-1.265,-1.2914,-1.2267,-1.2203,-1.2484,0.0,0.0,-1.2934,-1.3653,-1.4231,-1.4471,-1.4106,-1.4735,-1.5189,-1.4968,-1.5276,-1.5783,-1.6465,-1.625,-1.5903,-1.5369,-1.6365,-1.6763,-1.6115,-1.5714,-1.5074,-1.3988,-1.3815,-1.3552,-1.3017,-1.2929,-1.2881,-1.2881,-1.2881,-1.2881,-1.2881,-1.2881,-1.2881,-1.2881,-1.2881,-1.2559,-1.1922,-1.1814,-1.1166,-0.9969,-0.9309,-0.8956,-0.891,-0.8857,-0.8804,-0.8804,-0.8804,-0.8804,-0.8804,-0.8804,-0.8804,-0.8804,0.0,0.0,0.0,0.0,0.0,0.0,0.0,0.0,0.0,0.0,0.0,0.0,0.0,0.0,0.0,0.0,0.0,0.0,-0.9248,-1.0503,-1.1655,-1.2598,-1.4543,-1.5713,-1.5899,-1.7344,-1.8003,-1.7735,-1.8281,-1.8185,-1.7435,-1.8004,-1.826,-1.8254,-1.9671,-2.0564,-2.1029,-2.1355,-2.1443,-2.1317,-2.0853,-2.0288,-1.9597,-1.8593,-1.7589,-1.6609,-1.558,-1.4903,0.0,0.0,-1.4124,-1.4412,-1.4287,-1.4325,-1.4261,-1.338,-1.3179,0.0,-1.3364,-1.3569,-1.3727,0.0,-1.4151,-1.4508,-1.457,-1.4478,-1.4416,-1.4546,-1.4899,-1.5097,-1.4873,-1.5166,-1.5352,0.0,-1.5638,-1.5944,-1.5578,-1.5753,-1.5456,-1.4337,-1.4677,-1.4768,-1.432,-1.443,-1.418,-1.3344,-1.3286,-1.3152,-1.2929,-1.2881,-1.2881,-1.2881,-1.2881,-1.2881,-1.2881,-1.2452,-1.2501,-1.2881,-1.2058,-1.1733,-1.1765,-1.1015,-1.0115,-0.9211,-0.891,-0.8804,-0.8804,-0.8804,-0.8804,-0.8804,-0.8804,-0.8533,-0.8156,-0.8156,-0.8156,-0.8156,0.0,0.0,0.0,0.0,0.0,0.0,0.0,0.0,0.0,0.0,0.0,0.0,0.0,0.0,0.0,0.0,0.0,0.0,0.0,-0.9898,-1.0807,-1.1406,-1.3426,0.0,-1.537,-1.6912,-1.7827,-1.8138,-1.8494,-1.8341,-1.768,-1.8244,-1.8288,-1.8028,-1.9502,-2.0182,-2.025,-2.079,-2.0715,-2.0213,-2.0213,-1.956,-1.8493,-1.779,-1.6572,-1.523,-1.4828,-1.4135,0.0,0.0,-1.3044,-1.3367,-1.3082,-1.3383,-1.3732,-1.3057,-1.3456,-1.4047,-1.3909,-1.3989,0.0,-1.5052,-1.5544,-1.5858,-1.5566,-1.5579,-1.5612,-1.5351,-1.5469,-1.5557,-1.543,-1.5312,-1.5195,-1.5078,-1.5612,-1.57,-1.4714,-1.5073,-1.494,-1.3635,-1.3408,-1.3213,-1.291,-1.3286,-1.3372,-1.292,-1.2881,-1.2881,-1.2881,-1.2881,-1.2881,-1.2881,-1.2881,-1.2774,-1.2608,-1.208,-1.1981,-1.2304,-1.1275,-1.0965,-1.1216,-1.0064,-0.9263,-0.8804,-0.8804,-0.8804,-0.8804,-0.8804,-0.8699,-0.848,-0.848,-0.8049,-0.7396,-0.7176,-0.723,-0.7396,0.0,0.0,0.0,0.0,0.0,0.0,0.0,0.0,0.0,0.0,0.0,0.0,0.0,0.0,0.0,0.0,0.0,0.0,0.0,-0.9393,-1.0114,-1.0521,-1.2645,-1.3829,-1.3874,-1.6383,-1.7204,-1.6172,-1.7487,-1.7585,-1.6565,-1.7156,-1.7433,-1.7451,-1.8555,-1.9058,-1.912,-1.9623,-1.9547,-1.9033,-1.9033,-1.8417,-1.7313,-1.6195,-1.5117,-1.4135,-1.4123,0.0,0.0,0.0,-1.165,-1.1751,-1.2278,-1.2785,0.0,-1.3896,-1.406,-1.3972,-1.3408,0.0,-1.4647,-1.5706,-1.5742,-1.5603,-1.596,-1.6066,-1.6204,-1.6582,-1.6338,-1.5918,-1.5488,-1.5078,-1.4668,-1.4184,-1.4521,-1.4704,-1.4165,-1.415,-1.3994,-1.3555,-1.3154,-1.2891,0.0,-1.2929,-1.2929,-1.2881,-1.2881,-1.2881,-1.2881,-1.2881,-1.2881,-1.2881,-1.2881,-1.2559,-1.1814,-1.1814,-1.1466,-1.0864,-1.0813,-1.0466,-0.9814,-0.9159,-0.8804,-0.8804,-0.8804,-0.8804,-0.8804,-0.8804,-0.8374,-0.7723,-0.7723,-0.7289,-0.6534,-0.5814,-0.6036,-0.6642,0.0,0.0,0.0,0.0,0.0,0.0,0.0,0.0,0.0,0.0,0.0,0.0,0.0,0.0,0.0,0.0,0.0,0.0,0.0,-0.8678,-0.8957,-0.8774,-1.0598,-1.1913,-1.2596,-1.4237,-1.5081,-1.5043,-1.647,-1.6697,-1.5855,-1.6423,-1.6845,-1.7156,-1.7183,-1.7413,-1.7823,-1.8003,-1.7798,-1.7325,-1.6961,-1.6371,-1.5633,-1.4637,-1.3608,-1.2665,0.0,0.0,0.0,0.0,0.0,-1.0985,-1.0809,-1.1094,-1.1795,-1.3132,-1.3423,-1.3619,-1.4809,0.0,-1.5742,-1.7368,-1.7307,-1.7174,-1.8387,-1.778,-1.6894,-1.6768,-1.5693,-1.4658,-1.4228,-1.3574,-1.3135,-1.3281,-1.3662,-1.3887,-1.374,-1.3902,-1.3717,-1.2725,-1.3037,0.0,0.0,0.0,-1.2881,-1.2881,-1.3135,-1.3301,-1.3301,-1.3301,-1.3301,-1.3301,-1.3027,-1.2559,-1.1814,-1.1366,-1.1015,-1.0813,-1.0364,-0.9762,-0.9113,-0.891,-0.8804,-0.8804,-0.8804,-0.8804,-0.8752,-0.8262,-0.7937,-0.767,-0.7182,-0.6524,-0.5814,-0.5597,-0.5382,-0.5281,0.0,0.0,0.0,0.0,0.0,0.0,0.0,0.0,0.0,0.0,0.0,0.0,0.0,0.0,0.0,0.0,0.0,0.0,0.0,0.0,-0.8164,-0.7768,-0.9387,-1.036,-1.0527,-1.2458,-1.3653,-1.4104,-1.4977,-1.5104,-1.4607,-1.469,-1.486,-1.5065,-1.4768,-1.4849,-1.522,-1.522,-1.5248,-1.5279,-1.4601,-1.4067,-1.3578,-1.2761,-1.2082,0.0,0.0,0.0,0.0,0.0,0.0,-1.0556,-1.0271,-1.0985,-1.2008,-1.2451,-1.3057,-1.3871,-1.5372,-1.5842,-1.6309,-1.8197,-1.827,-1.8157,-1.8849,-1.8035,-1.6894,-1.5986,-1.4678,-1.3457,-1.2715,-1.2002,-1.1621,-1.1904,-1.2432,-1.2871,-1.3027,-1.3418,-1.3496,-1.292,-1.3262,-1.335,0.0,0.0,0.0,-1.2891,-1.3271,-1.3506,-1.3506,-1.3652,-1.3662,-1.3516,-1.3041,-1.2345,-1.1466,-1.0762,-1.0312,-1.0064,-0.9666,-0.9211,-0.8804,-0.8804,-0.8804,-0.8804,-0.8804,-0.8646,-0.8374,-0.7883,-0.7396,-0.6848,-0.6416,-0.5764,-0.5164,-0.5164,-0.4897,-0.457,0.0,0.0,0.0,0.0,0.0,0.0,0.0,0.0,0.0,0.0,0.0,0.0,0.0,0.0,0.0,0.0,0.0,0.0,0.0,0.0,0.0,-0.753,-0.8979,-0.9216,-0.7974,-1.1002,-1.28,-1.3192,-1.2981,-1.2872,-1.286,-1.215,-1.1757,-1.1619,-1.1551,-1.1564,-1.1589,-1.1589,-1.2165,-1.3002,-1.2122,-1.1585,-1.1266,-1.0694,0.0,0.0,0.0,0.0,0.0,0.0,0.0,0.0,0.0,-1.2278,-1.3775,-1.221,-1.3162,-1.4748,-1.5241,-1.5722,-1.6453,-1.8102,-1.8519,-1.8359,-1.7568,-1.6973,-1.6062,-1.436,-1.3359,-1.2353,0.0,0.0,-1.0254,-1.0312,-1.1047,-1.1783,-1.218,-1.2676,-1.3242,0.0,0.0,0.0,0.0,0.0,0.0,-1.2929,-1.3311,-1.3494,-1.3523,-1.3849,-1.3879,-1.3481,-1.2785,-1.1895,-1.0795,-1.0072,-0.9413,-0.8804,-0.8804,-0.8804,-0.8804,-0.8804,-0.8804,-0.8804,-0.8752,-0.8368,-0.767,-0.7616,-0.674,-0.5487,-0.5487,-0.5054,-0.4519,-0.4519,-0.4519,-0.4519,0.0,0.0,0.0,0.0,0.0,0.0,0.0,0.0,0.0,0.0,0.0,0.0,0.0,0.0,0.0,0.0,0.0,0.0,0.0,0.0,0.0,0.0,0.0,0.0,0.0,0.0,0.0,0.0,0.0,-1.1256,-1.1052,-1.087,-1.1123,0.0,-1.1024,-1.0938,-1.1316,-1.1316,-1.1291,-1.1202,0.0,-1.0217,-1.005,0.0,0.0,0.0,0.0,0.0,0.0,0.0,0.0,0.0,0.0,-1.2637,-1.4237,-1.502,-1.5351,-1.5864,-1.7523,-1.7486,-1.7303,-1.8329,-1.8134,-1.7646,-1.7432,-1.6045,-1.4492,-1.3418,-1.1992,-1.0645,0.0,0.0,0.0,-1.0225,-1.1047,0.0,-1.3027,-1.3545,0.0,-1.4058,0.0,-1.4375,-1.4107,-1.349,0.0,-1.2903,-1.3537,-1.3844,-1.3599,-1.3653,-1.3438,-1.2711,-1.1981,-1.1219,-1.0447,-0.9528,-0.8962,-0.8804,-0.8804,-0.8804,-0.8804,-0.8804,-0.8804,-0.8752,-0.8209,-0.7883,-0.7616,-0.6519,-0.581,-0.5433,-0.4948,-0.4625,-0.4519,-0.4519,-0.4519,-0.4519,0.0,0.0,0.0,0.0,0.0,0.0,0.0,0.0,0.0,0.0,0.0,0.0,0.0,0.0,0.0,0.0,0.0,0.0,0.0,0.0,0.0,0.0,0.0,0.0,0.0,0.0,0.0,0.0,0.0,0.0,0.0,-0.9154,-0.9383,-0.9763,-0.9228,-0.9157,-0.9441,0.0,0.0,0.0,0.0,0.0,0.0,0.0,0.0,0.0,0.0,0.0,0.0,0.0,0.0,-1.2806,-1.2969,-1.4211,-1.5649,-1.6161,0.0,-1.6764,-1.7694,-1.7792,-1.7773,-1.8242,-1.7871,-1.7236,-1.665,-1.5,-1.3232,-1.1992,-1.0811,0.0,-0.8643,-0.8799,0.0,0.0,0.0,0.0,-1.2471,-1.3193,-1.3632,0.0,-1.4407,0.0,-1.3847,-1.3435,-1.3226,-1.3314,-1.3354,-1.328,-1.3102,-1.3267,-1.305,-1.2422,-1.1663,-1.0882,-1.0037,-0.9357,-0.8998,-0.8991,-0.8871,-0.8804,-0.8804,-0.848,-0.8315,-0.8262,-0.7557,-0.7015,-0.6681,-0.5864,-0.5324,-0.5003,-0.4625,-0.4519,-0.4519,-0.4519,-0.4519,-0.4519,0.0,0.0,0.0,0.0,0.0,0.0,0.0,0.0,0.0,0.0,0.0,0.0,0.0,0.0,0.0,0.0,0.0,0.0,0.0,0.0,0.0,0.0,0.0,0.0,0.0,0.0,0.0,0.0,0.0,0.0,0.0,0.0,0.0,0.0,0.0,0.0,0.0,0.0,0.0,0.0,0.0,0.0,0.0,0.0,0.0,0.0,0.0,0.0,0.0,0.0,-1.2737,-1.3686,-1.4676,-1.6225,-1.7471,-1.6704,-1.7064,-1.7595,-1.7141,-1.7507,-1.7998,-1.7939,-1.7568,-1.6846,-1.5469,-1.3887,-1.2227,-1.0547,0.0,-0.9085,-0.7936,-0.804,-0.8348,-0.8373,0.0,-0.9992,-1.1305,-1.2196,-1.2889,-1.3378,-1.4138,-1.4262,-1.3405,-1.3391,-1.3408,-1.3615,-1.2707,-1.2217,-1.2376,-1.2687,-1.2603,-1.2137,-1.1464,-1.0659,-0.9686,-0.9426,-0.9243,-0.9236,-0.8897,-0.8705,-0.8698,-0.7901,-0.7563,-0.7509,-0.6799,-0.6091,-0.5487,-0.5378,-0.5003,-0.4519,-0.4519,-0.4519,-0.4519,-0.4519,-0.4519,-0.4519,0.0,0.0,0.0,0.0,0.0,0.0,0.0,0.0,0.0,0.0,0.0,0.0,0.0,0.0,0.0,0.0,0.0,0.0,0.0,0.0,0.0,0.0,0.0,0.0,0.0,0.0,0.0,0.0,0.0,0.0,0.0,0.0,0.0,0.0,0.0,0.0,0.0,0.0,0.0,0.0,0.0,0.0,0.0,0.0,0.0,0.0,0.0,0.0,0.0,0.0,-1.376,-1.5304,-1.5492,-1.7024,-1.8734,-1.8768,-1.8737,-1.8709,-1.8805,-1.8409,-1.793,-1.7578,-1.6885,-1.5859,-1.4209,-1.2773,0.0,0.0,-0.9119,-0.8449,-0.7881,-0.7836,-0.7991,-0.8194,0.0,0.0,0.0,0.0,-1.2004,0.0,0.0,0.0,-1.3091,-1.2488,0.0,-1.2172,-1.1365,-1.1324,-1.2198,-1.2072,-1.1561,-1.0537,-1.0349,-1.0086,-0.9686,-0.9633,-0.9606,-0.9599,-0.8739,-0.8324,-0.8263,-0.7274,-0.6804,-0.675,-0.6036,-0.5597,-0.5433,-0.4893,-0.4625,-0.4519,-0.4519,-0.4519,-0.4519,-0.4519,-0.4519,-0.4519,0.0,0.0,0.0,0.0,0.0,0.0,0.0,0.0,0.0,0.0,0.0,0.0,0.0,0.0,0.0,0.0,0.0,0.0,0.0,0.0,0.0,0.0,0.0,0.0,0.0,0.0,0.0,0.0,0.0,0.0,0.0,0.0,0.0,0.0,0.0,0.0,0.0,0.0,0.0,0.0,0.0,0.0,0.0,0.0,0.0,0.0,0.0,0.0,0.0,0.0,-1.2513,-1.4212,-1.6019,-1.7501,-1.8549,-1.8476,-1.8442,-1.8458,-1.8315,-1.8168,-1.791,-1.749,-1.6377,-1.5068,-1.3799,0.0,0.0,0.0,-0.9121,-0.853,-0.7931,0.0,0.0,0.0,0.0,0.0,0.0,0.0,0.0,0.0,0.0,0.0,0.0,-1.1877,-1.1725,-1.1616,-1.0978,-1.0805,-1.1319,-1.1248,-1.0913,-1.0354,-1.0347,-1.0281,-1.014,-0.9547,-0.9223,-0.9143,-0.8052,-0.7471,-0.7351,-0.6465,-0.6036,-0.5982,-0.5273,-0.5003,-0.4948,-0.4625,-0.4519,-0.4519,-0.4519,-0.4519,-0.4519,-0.4519,-0.4519,-0.4519,0.0,0.0,0.0,0.0,0.0,0.0,0.0,0.0,0.0,0.0,0.0,0.0,0.0,0.0,0.0,0.0,0.0,0.0,0.0,0.0,0.0,0.0,0.0,0.0,0.0,0.0,0.0,-0.7899,0.0,0.0,0.0,0.0,0.0,0.0,0.0,0.0,0.0,0.0,0.0,0.0,0.0,0.0,0.0,0.0,0.0,0.0,0.0,0.0,0.0,0.0,-1.0668,-1.1994,-1.5151,-1.6954,-1.7773,-1.6972,-1.7456,-1.811,-1.7416,-1.7617,-1.7891,-1.7373,-1.6006,-1.4512,-1.3467,-1.1768,0.0,0.0,-0.9294,-0.8759,-0.8026,0.0,0.0,0.0,0.0,0.0,0.0,0.0,0.0,0.0,0.0,0.0,-1.0999,-1.1312,0.0,-1.127,-1.0815,-1.0624,-1.0624,-1.0624,-1.0624,-1.0624,-1.0434,-1.0301,-1.0301,-0.9176,-0.86,-0.8471,-0.728,-0.6662,-0.6502,-0.5635,-0.5269,-0.5269,-0.4732,-0.4519,-0.4519,-0.4519,-0.4519,-0.4519,-0.4519,-0.4519,-0.4519,-0.4519,-0.4519,-0.446,0.0,0.0,0.0,0.0,0.0,0.0,0.0,0.0,0.0,0.0,0.0,0.0,0.0,0.0,0.0,0.0,0.0,0.0,0.0,0.0,0.0,0.0,0.0,0.0,0.0,0.0,0.0,-0.7899,-0.7899,0.0,0.0,0.0,0.0,0.0,0.0,-0.7899,0.0,0.0,0.0,0.0,0.0,0.0,0.0,0.0,0.0,0.0,0.0,0.0,0.0,0.0,0.0,-0.9386,-1.1477,-1.4335,-1.6594,-1.4843,0.0,0.0,-1.7126,-1.7393,-1.7812,-1.6992,-1.5781,-1.4355,-1.2715,0.0,0.0,-0.9768,-0.9262,-0.882,-0.8265,-0.7569,0.0,0.0,0.0,0.0,0.0,0.0,0.0,0.0,0.0,0.0,-1.0638,-1.0701,-1.0708,-1.0698,-1.0651,-1.0624,-1.0624,-1.0624,-1.0624,-1.0624,-0.9849,-0.9402,-0.9402,-0.8527,-0.805,-0.8024,-0.6857,-0.6245,-0.6219,-0.5088,-0.457,-0.457,-0.4515,-0.4519,-0.4519,-0.4519,-0.4519,-0.4519,-0.4519,-0.4519,-0.4519,-0.4519,-0.4519,-0.4405,0.0,0.0,0.0,0.0,0.0,0.0,0.0,0.0,0.0,0.0,0.0,0.0,0.0,0.0,0.0,0.0,0.0,0.0,0.0,0.0,0.0,0.0,0.0,0.0,0.0,0.0,0.0,-0.7899,-0.7899,0.0,0.0,0.0,0.0,0.0,0.0,-0.7899,-0.7899,0.0,0.0,0.0,0.0,0.0,0.0,0.0,0.0,0.0,0.0,0.0,0.0,0.0,0.0,0.0,-0.8082,-0.9987,0.0,0.0,-1.4536,-1.5818,-1.588,-1.6768,-1.7363,-1.6221,-1.5156,-1.4014,-1.2511,0.0,-1.0361,-0.9719,-0.9102,-0.846,-0.7918,-0.7142,-0.6431,0.0,0.0,0.0,0.0,0.0,0.0,0.0,0.0,0.0,0.0,0.0,-1.0624,-1.0624,-1.0624,-1.0364,-0.9849,-0.9786,-0.9786,-0.9786,-0.9005,-0.8549,-0.8549,-0.7632,-0.7182,-0.6999,-0.6033,-0.543,-0.5299,-0.4826,-0.4551,-0.4519,-0.4519,-0.4519,-0.4519,-0.4519,-0.4519,-0.4519,-0.4519,-0.4519,-0.446,-0.3959,-0.379,-0.3735,0.0,0.0,0.0,0.0,0.0,0.0,0.0,0.0,0.0,0.0,0.0,0.0,0.0,0.0,0.0,0.0,0.0,0.0,0.0,0.0,0.0,0.0,0.0,0.0,0.0,0.0,0.0,-0.7899,-0.7899,-0.7899,0.0,0.0,-0.7899,-0.7899,0.0,0.0,0.0,0.0,0.0,0.0,0.0,0.0,0.0,0.0,0.0,0.0,0.0,0.0,0.0,0.0,0.0,0.0,0.0,0.0,0.0,0.0,-1.2234,-1.359,-1.4251,-1.5518,-1.6387,-1.5459,-1.4394,-1.3289,0.0,0.0,-1.0001,-0.9629,-0.904,-0.8362,-0.7678,-0.699,-0.6316,0.0,0.0,0.0,0.0,0.0,0.0,0.0,0.0,-0.9653,-1.0302,-1.0266,-1.0238,-1.0238,-0.997,-0.9588,-0.8941,-0.8683,-0.8678,-0.8877,-0.8091,-0.7632,-0.7632,-0.6724,-0.627,-0.6089,-0.536,-0.4958,-0.4755,-0.4663,-0.4565,-0.4519,-0.4519,-0.4519,-0.4519,-0.4519,-0.4519,-0.446,-0.4239,-0.4181,-0.407,-0.3287,-0.301,-0.2954,0.0,0.0,0.0,0.0,0.0,0.0,0.0,0.0,0.0,0.0,0.0,0.0,0.0,0.0,0.0,0.0,0.0,0.0,0.0,0.0,0.0,0.0,0.0,0.0,0.0,0.0,0.0,-0.7899,-0.7899,-0.7899,-0.7899,-0.7899,-0.7899,-0.7899,0.0,0.0,0.0,0.0,0.0,0.0,0.0,0.0,0.0,0.0,0.0,0.0,0.0,0.0,0.0,0.0,0.0,0.0,0.0,0.0,0.0,0.0,-0.9688,-1.2477,-1.2266,-1.3516,-1.4805,-1.4795,-1.3516,-1.22,0.0,-1.0847,-0.9571,-0.9515,-0.923,-0.8679,-0.7609,-0.7182,-0.6714,-0.5827,0.0,0.0,0.0,0.0,0.0,0.0,0.0,-0.9045,-0.9639,-0.947,-0.9338,-0.9338,-0.8484,-0.8027,-0.8027,-0.7177,-0.7111,-0.7962,-0.7177,-0.6719,-0.6719,-0.5881,-0.5425,-0.5422,-0.506,-0.4918,-0.4908,-0.4602,-0.4519,-0.4519,-0.4519,-0.4519,-0.4519,-0.4519,-0.4519,-0.4408,-0.368,-0.34,-0.3289,-0.2508,-0.2232,-0.212,0.0,0.0,0.0,0.0,0.0,0.0,0.0,0.0,0.0,0.0,0.0,0.0,0.0,0.0,0.0,0.0,0.0,0.0,0.0,0.0,0.0,0.0,0.0,0.0,0.0,0.0,0.0,-0.7899,-0.7899,-0.7899,-0.7899,-0.7899,-0.7899,-0.7899,-0.7899,-0.7899,0.0,0.0,0.0,0.0,0.0,0.0,0.0,0.0,0.0,0.0,0.0,0.0,0.0,0.0,0.0,0.0,0.0,0.0,0.0,0.0,0.0,0.0,-1.0214,-1.1494,-1.2488,-1.1855,-1.1523,-1.1087,-1.0214,-0.9385,-0.8618,-0.7991,-0.755,-0.7163,-0.6745,-0.6536,-0.6375,-0.6104,-0.6303,0.0,0.0,0.0,0.0,-0.7524,-0.8012,-0.8343,0.0,-0.8457,-0.842,-0.842,-0.8156,-0.7762,-0.7111,-0.685,-0.685,-0.7111,-0.6268,-0.5815,-0.5815,-0.5557,-0.5308,-0.5203,-0.5108,-0.4958,-0.4758,-0.4663,-0.4562,-0.4519,-0.4519,-0.4519,-0.446,-0.3901,-0.3735,-0.368,-0.2899,-0.2565,-0.251,-0.173,-0.1452,-0.134,0.0,0.0,0.0,0.0,0.0,0.0,0.0,0.0,0.0,0.0,0.0,0.0,0.0,0.0,0.0,0.0,0.0,0.0,0.0,0.0,0.0,0.0,0.0,0.0,0.0,0.0,0.0,-0.7899,-0.7899,-0.7899,-0.7899,-0.7899,-0.7899,-0.7899,-0.7899,0.0,0.0,0.0,0.0,0.0,0.0,0.0,-0.7439,0.0,0.0,0.0,0.0,0.0,0.0,0.0,0.0,0.0,0.0,0.0,0.0,0.0,-0.5719,0.0,0.0,-0.9619,-1.0547,-1.0127,-0.9993,0.0,0.0,-0.8415,-0.7756,-0.7179,-0.6747,-0.6428,-0.614,-0.6034,-0.6028,-0.6028,-0.6326,0.0,0.0,0.0,0.0,-0.7008,0.0,0.0,-0.7825,-0.7653,-0.7502,-0.7502,-0.7181,-0.6793,-0.6268,-0.6203,-0.6203,-0.6203,-0.5686,-0.5428,-0.5428,-0.5428,-0.5284,-0.5131,-0.5077,-0.4925,-0.4687,-0.4629,-0.4551,-0.4463,-0.4181,-0.407,0.0,-0.3231,-0.2899,-0.2843,-0.2063,-0.1786,-0.1675,-0.095,-0.0671,-0.0615,0.0,0.0,0.0,0.0,0.0,0.0,0.0,0.0,0.0,0.0,0.0,0.0,0.0,0.0,0.0,0.0,0.0,0.0,0.0,0.0,0.0,0.0,0.0,0.0,0.0,-0.7899,-0.7899,-0.7899,-0.7899,-0.7899,-0.7899,-0.7899,-0.7899,-0.7899,-0.7899,-0.7885,-0.787,-0.7694,-0.759,-0.7545,-0.7318,-0.7211,0.0,0.0,0.0,0.0,0.0,0.0,0.0,0.0,0.0,0.0,0.0,0.0,0.0,0.0,0.0,0.0,0.0,0.0,0.0,0.0,0.0,0.0,0.0,-0.7852,0.0,-0.6904,-0.6643,-0.6271,-0.5773,-0.5731,-0.5752,-0.5772,0.0,0.0,0.0,-0.6532,0.0,0.0,-0.6716,-0.7058,-0.7298,-0.6865,-0.6588,-0.6588,-0.5881,-0.5428,-0.5428,-0.5428,-0.5428,-0.5428,-0.5418,-0.5418,-0.5428,-0.5418,-0.5267,-0.5111,-0.4969,-0.4763,-0.4612,-0.4472,-0.4405,-0.4294,-0.3566,-0.3231,-0.3176,-0.2452,-0.212,-0.2063,-0.1284,-0.1006,-0.095,-0.028,0.0,0.0,0.0,0.0,0.0,0.0,0.0,0.0,0.0,0.0,0.0,0.0,0.0,0.0,0.0,0.0,0.0,0.0,0.0,0.0,0.0,0.0,0.0,0.0,0.0,0.0,0.0,-0.7899,-0.7899,-0.7899,-0.7899,-0.7899,-0.7899,-0.7899,-0.7899,-0.7899,-0.7899,-0.7827,-0.7679,-0.7783,-0.762,-0.7303,-0.7454,-0.7379,0.0,0.0,0.0,0.0,-0.6681,-0.6406,0.0,0.0,0.0,0.0,0.0,0.0,0.0,0.0,-0.4706,-0.48,-0.5226,0.0,-0.6275,-0.6362,-0.6665,-0.6895,0.0,0.0,0.0,0.0,0.0,0.0,0.0,0.0,0.0,0.0,0.0,0.0,-0.7305,0.0,0.0,-0.5971,-0.5855,-0.5796,-0.5702,-0.5719,-0.5686,-0.5686,-0.5491,-0.5428,-0.5428,-0.5428,-0.5428,-0.5428,-0.5247,-0.5243,-0.5425,-0.5243,-0.5111,-0.4965,-0.4816,-0.4371,-0.3722,-0.3694,-0.3345,-0.2732,-0.2565,-0.2454,-0.2397,-0.1675,-0.1341,-0.1284,-0.056,-0.028,-0.0224,-0.0056,0.0,0.0,0.0,0.0,0.0,0.0,0.0,0.0,0.0,0.0,0.0,0.0,0.0,0.0,0.0,0.0,0.0,0.0,0.0,0.0,0.0,0.0,0.0,0.0,0.0,0.0,0.0,-0.7941,-0.7927,-0.7997,-0.7927,-0.7899,-0.7899,-0.7899,-0.7899,-0.7899,-0.7899,-0.7783,-0.762,-0.7709,-0.7546,-0.7209,-0.7253,0.0,0.0,0.0,0.0,0.0,-0.6428,-0.6195,0.0,-0.5587,-0.5328,-0.5069,0.0,0.0,0.0,0.0,-0.4333,-0.4313,-0.4235,-0.4798,-0.5463,-0.5737,-0.6024,-0.6191,0.0,0.0,0.0,0.0,0.0,0.0,0.0,0.0,0.0,0.0,-0.6632,0.0,0.0,0.0,-0.571,-0.5346,-0.5207,-0.5179,-0.5233,-0.5247,-0.5284,-0.5422,-0.5237,-0.5186,-0.525,-0.5192,-0.5159,-0.5159,-0.5077,-0.5104,-0.5254,-0.5108,-0.4958,-0.4813,-0.4731,-0.4263,-0.34,-0.3345,-0.2954,-0.2174,-0.1842,-0.1675,-0.1619,-0.0895,-0.0616,-0.056,-0.0168,0.0,0.0,0.0,0.0,0.0,0.0,0.0,0.0,0.0,0.0,0.0,0.0,0.0,0.0,0.0,0.0,0.0,0.0,0.0,0.0,0.0,0.0,0.0,0.0,0.0,0.0,0.0,0.0,0.0,0.0,0.0,-0.7956,-0.8077,-0.7956,-0.7899,-0.7899,-0.7899,-0.7885,-0.7856,-0.7812,-0.7724,-0.7605,-0.7605,-0.7454,-0.7193,-0.7061,0.0,0.0,0.0,0.0,0.0,0.0,0.0,0.0,-0.5501,-0.5214,-0.4894,-0.4745,0.0,0.0,0.0,0.0,0.0,-0.3677,-0.4414,-0.5373,-0.5884,-0.5937,-0.5936,0.0,0.0,0.0,0.0,0.0,0.0,0.0,0.0,0.0,0.0,0.0,0.0,-0.6211,-0.5526,-0.5023,-0.4876,-0.4903,-0.5033,-0.524,-0.5162,-0.5152,-0.5284,-0.506,-0.4972,-0.5091,-0.4986,-0.4918,-0.4918,-0.4897,-0.4942,-0.506,-0.4945,-0.476,-0.4513,-0.449,-0.3954,-0.3065,-0.301,-0.2565,-0.184,-0.1229,-0.0951,-0.0895,-0.028,0.0,0.0,0.0,0.0,0.0,0.0,0.0,0.0,0.0,0.0,0.0,0.0,0.0,0.0,0.0,0.0,0.0,0.0,0.0,0.0,0.0,0.0,0.0,0.0,0.0,0.0,0.0,0.0,0.0,0.0,0.0,0.0,0.0,0.0,0.0,0.0,0.0,0.0,-0.7899,-0.7899,-0.7812,-0.7635,-0.741,-0.741,-0.7605,-0.7605,-0.7454,-0.7225,-0.7408,0.0,0.0,0.0,0.0,0.0,0.0,0.0,0.0,-0.5108,-0.4686,-0.4163,-0.4567,0.0,0.0,0.0,0.0,0.0,-0.4209,-0.4406,-0.4574,-0.4671,-0.5212,-0.5753,0.0,0.0,0.0,0.0,0.0,0.0,0.0,0.0,0.0,0.0,0.0,-0.6416,0.0,0.0,-0.5798,-0.5665,-0.5293,-0.5016,-0.4813,-0.4891,-0.4962,-0.4986,-0.4945,-0.4928,-0.4952,-0.4931,-0.4918,-0.4918,-0.4792,-0.4735,-0.4758,-0.4735,-0.4419,-0.3751,-0.3589,-0.28,-0.1452,-0.1452,-0.1062,-0.0336,-0.0224,-0.0168,-0.0168,-0.0056,0.0,0.0,0.0,0.0,0.0,0.0,0.0,0.0,0.0,0.0,0.0,0.0,0.0,0.0,0.0,0.0,0.0,0.0,0.0,0.0,0.0,0.0,0.0,0.0,0.0,0.0,0.0,0.0,0.0,0.0,0.0,0.0,0.0,0.0,0.0,0.0,0.0,-0.7665,-0.7899,-0.7783,-0.7694,-0.7575,-0.7318,-0.7207,-0.7219,-0.7221,-0.7082,-0.6871,0.0,0.0,0.0,0.0,0.0,0.0,0.0,0.0,0.0,0.0,-0.4446,-0.3952,-0.4191,0.0,0.0,0.0,0.0,0.0,-0.3877,-0.4162,-0.4402,-0.4402,-0.4943,-0.5564,0.0,0.0,0.0,0.0,0.0,0.0,0.0,0.0,-0.4875,-0.5134,0.0,-0.5398,-0.6145,-0.5555,-0.5091,-0.5193,-0.4969,-0.4779,-0.4813,-0.4802,-0.483,-0.4911,-0.4765,-0.4707,-0.4792,-0.4718,-0.4674,-0.4674,-0.4257,-0.3993,-0.3937,-0.3537,-0.3365,-0.3421,-0.2921,-0.212,-0.1118,-0.1118,-0.0671,0.0,0.0,0.0,0.0,0.0,0.0,0.0,0.0,0.0,0.0,0.0,0.0,0.0,0.0,0.0,0.0,0.0,0.0,0.0,0.0,0.0,0.0,0.0,0.0,0.0,0.0,0.0,0.0,0.0,0.0,0.0,0.0,0.0,0.0,0.0,0.0,0.0,0.0,0.0,-0.7427,-0.788,-0.7321,-0.7256,-0.768,-0.7575,-0.7499,-0.7453,-0.7176,-0.6966,-0.6828,-0.6835,-0.6705,-0.6497,0.0,0.0,0.0,0.0,0.0,0.0,0.0,0.0,0.0,0.0,0.0,0.0,0.0,0.0,0.0,-0.3506,-0.3506,-0.3519,-0.3592,-0.4008,-0.4422,-0.4489,0.0,-0.5398,-0.5935,0.0,0.0,0.0,0.0,0.0,0.0,-0.4254,0.0,-0.4775,-0.4558,-0.452,-0.5258,-0.4769,-0.4436,-0.4663,-0.4585,-0.4596,-0.4792,-0.4707,-0.4684,-0.4802,-0.4596,-0.457,-0.4629,-0.4412,-0.4236,-0.4236,-0.3511,-0.3121,-0.3065,-0.2286,-0.2232,-0.2788,-0.2232,-0.1563,-0.0838,-0.0838,-0.056,0.0,0.0,0.0,0.0,0.0,0.0,0.0,0.0,0.0,0.0,0.0,0.0,0.0,0.0,0.0,0.0,0.0,0.0,0.0,0.0,0.0,0.0,0.0,0.0,0.0,0.0,0.0,0.0,0.0,0.0,0.0,0.0,0.0,0.0,0.0,0.0,0.0,0.0,-0.7455,-0.7211,-0.7258,-0.6796,-0.673,-0.7066,-0.7178,-0.716,-0.7026,-0.6757,-0.6625,-0.6617,-0.6617,-0.648,-0.6242,-0.6421,0.0,0.0,0.0,0.0,0.0,0.0,0.0,0.0,0.0,0.0,0.0,0.0,0.0,-0.3506,-0.3506,-0.3506,-0.3566,-0.3884,-0.4168,-0.4469,-0.4708,0.0,0.0,-0.5476,0.0,0.0,0.0,0.0,0.0,0.0,-0.3746,-0.3753,-0.4209,-0.4405,-0.4604,-0.4903,-0.4755,-0.4667,-0.4687,-0.468,-0.4626,-0.4563,-0.4539,-0.4539,-0.4549,-0.4529,-0.4522,-0.4532,-0.3852,-0.3456,-0.3398,-0.2676,-0.2286,-0.2286,-0.1563,-0.1229,-0.1285,-0.1229,-0.0783,-0.0056,-0.0056,-0.0056,0.0,0.0,0.0,0.0,0.0,0.0,0.0,0.0,0.0,0.0,0.0,0.0,0.0,0.0,0.0,0.0,0.0,0.0,0.0,0.0,0.0,0.0,0.0,0.0,0.0,0.0,0.0,0.0,0.0,0.0,0.0,0.0,0.0,0.0,0.0,0.0,-0.652,-0.7332,-0.7162,-0.7256,-0.7635,-0.6878,-0.6792,-0.7287,-0.6214,0.0,-0.6911,-0.6527,-0.6341,-0.6329,-0.6052,-0.5852,-0.5771,-0.5664,-0.5638,0.0,0.0,0.0,0.0,0.0,0.0,0.0,0.0,-0.357,-0.3245,0.0,0.0,0.0,0.0,-0.3111,-0.3291,-0.3412,-0.3694,-0.3995,-0.4092,0.0,0.0,0.0,0.0,0.0,0.0,0.0,0.0,0.0,0.0,-0.3999,-0.4167,-0.445,-0.4646,-0.4762,-0.4728,-0.4691,-0.4691,-0.4606,-0.458,-0.4522,-0.4519,-0.4519,-0.4519,-0.4519,-0.4294,-0.379,-0.3511,-0.3121,-0.2619,-0.1898,-0.1507,-0.1507,-0.0783,-0.0392,-0.0392,-0.0392,-0.028,0.0,0.0,0.0,0.0,0.0,0.0,0.0,0.0,0.0,0.0,0.0,0.0,0.0056,0.0504,0.0671,0.0727,0.0,0.0,0.0,0.0,0.0,0.0,0.0,0.0,0.0,0.0,0.0,0.0,0.0,0.0,0.0,0.0,0.0,0.0,0.0,0.0,0.0,0.0,0.0,-0.5258,-0.5595,-0.6717,-0.7303,-0.7334,-0.5943,-0.5863,-0.6972,0.0,0.0,-0.663,-0.6341,-0.613,-0.595,-0.5633,-0.5454,-0.5349,-0.5166,-0.5146,0.0,0.0,0.0,0.0,0.0,0.0,0.0,0.0,-0.3126,0.0,0.0,0.0,0.0,0.0,-0.2832,-0.2978,-0.3034,-0.3309,-0.358,0.0,0.0,0.0,0.0,0.0,0.0,0.0,0.0,0.0,0.0,0.0,0.0,0.0,-0.4457,-0.4619,-0.4619,-0.4619,-0.4619,-0.4619,-0.4353,-0.4106,-0.4175,-0.3951,-0.377,-0.3785,-0.3782,-0.3511,-0.2972,-0.2754,-0.2377,-0.1892,-0.1137,-0.0758,-0.0758,-0.0271,0.0,0.0,0.0,0.0,0.0,0.0,0.0,0.0,0.0,0.0,0.0,0.0,0.0112,0.0336,0.0336,0.0504,0.0783,0.1285,0.1452,0.1507,0.0,0.0,0.0,0.0,0.0,0.0,0.0,0.0,0.0,0.0,0.0,0.0,0.0,0.0,0.0,0.0,0.0,0.0,0.0,-0.0029,-0.0048,0.0,0.0,-0.4329,-0.2656,-0.6072,-0.7275,-0.6042,-0.375,-0.3736,-0.5877,-0.6634,0.0,0.0,-0.6165,-0.5943,-0.5492,-0.5492,-0.5349,-0.5088,-0.5088,-0.4932,-0.4686,0.0,0.0,0.0,0.0,0.0,0.0,0.0,-0.2697,0.0,0.0,0.0,0.0,0.0,-0.2697,-0.2726,-0.2855,-0.3103,0.0,0.0,0.0,0.0,0.0,0.0,0.0,0.0,0.0,-0.3887,-0.414,-0.4002,0.0,-0.4147,-0.4368,-0.4519,-0.4519,-0.4463,-0.4463,-0.446,-0.3788,-0.3299,-0.3398,-0.2645,-0.2193,-0.222,-0.2215,-0.2215,-0.2215,-0.1511,-0.1109,-0.1109,-0.0403,0.0,0.0,0.0,0.0,0.0,0.0,0.0,0.0,0.0,0.0,0.0,0.0,0.0,0.0,0.0,0.0448,0.1118,0.1118,0.1563,0.2174,0.223,0.223,0.2232,0.0,0.0,0.0,0.0,0.0,0.0,0.0,0.0,0.0,0.0,0.0,0.0,0.0,0.0,0.0,0.0,0.0,0.0,0.0,0.0,-0.359,-0.359,0.0,0.0,0.0,0.0,-0.4581,-0.181,-0.3518,-0.4084,0.0,0.0,0.0,-0.5954,0.0,0.0,-0.5492,-0.5291,-0.5069,-0.4814,-0.4814,-0.4646,-0.4406,0.0,0.0,0.0,0.0,0.0,0.0,0.0,0.0,0.0,0.0,0.0,0.0,-0.2066,-0.2198,-0.2364,-0.2399,-0.2632,0.0,0.0,0.0,0.0,0.0,0.0,0.0,0.0,0.0,-0.4012,-0.416,-0.4256,-0.426,-0.4197,-0.4368,-0.4294,-0.3732,-0.3677,-0.3479,-0.2965,-0.2688,-0.2546,-0.2564,-0.235,-0.2188,-0.2216,-0.2215,-0.1964,-0.1462,-0.121,-0.0858,-0.0354,-0.0101,0.0,0.0,0.0,0.0,0.0,0.0,0.0,0.0,0.0,0.0,0.0,0.0,0.0,0.0056,0.056,0.1229,0.1898,0.1898,0.2009,0.2286,0.2788,0.2954,0.3065,0.0,0.0,0.0,0.0,0.0,0.0,0.0,0.0,0.0,0.0,0.0,0.0,0.0,0.0,0.0,0.0,0.0,0.0,0.0,0.0,-0.3072,-0.3072,-0.3973,-0.425,-0.3797,-0.3788,-0.2659,0.0,0.0,0.0,0.0,0.0,0.0,-0.5582,0.0,-0.5318,-0.5166,-0.4981,-0.4814,-0.4686,-0.4587,-0.4325,-0.3978,0.0,0.0,0.0,0.0,0.0,0.0,0.0,0.0,0.0,0.0,0.0,0.0,-0.1803,-0.1913,-0.206,-0.2103,0.0,0.0,0.0,0.0,0.0,0.0,0.0,0.0,0.0,0.0,-0.4103,-0.4304,-0.4358,-0.4257,-0.3959,-0.3963,-0.379,-0.2954,-0.2863,-0.2709,-0.2229,-0.1937,-0.1743,-0.1779,-0.1478,-0.1322,-0.135,-0.1349,-0.1156,-0.0675,-0.0676,-0.0483,0.0,0.0,0.0,0.0,0.0,0.0,0.0,0.0,0.0,0.0,0.0259,0.0373,0.0373,0.0653,0.0762,0.0754,0.1326,0.1922,0.2469,0.2593,0.2766,0.3068,0.3605,0.379,0.3846,0.0,0.0,0.0,0.0,0.0,0.0,0.0,0.0,0.0,0.0,0.0,0.0,0.0,0.0,0.0,0.0,0.0,0.0,0.0,0.0,0.0,0.0,-0.2345,-0.309,-0.1894,-0.1835,-0.1557,-0.1041,-0.3691,0.0,0.0,0.0,-0.5526,-0.5069,0.0,-0.5267,-0.4533,-0.456,-0.4604,-0.4606,-0.4325,-0.3931,-0.347,-0.3449,0.0,0.0,0.0,0.0,0.0,0.0,0.0,0.0,0.0,0.0,-0.1759,-0.1759,-0.1759,-0.1789,0.0,0.0,0.0,0.0,0.0,0.0,0.0,0.0,0.0,-0.4283,0.0,-0.4144,-0.4271,-0.4126,-0.3859,-0.3369,-0.3267,-0.3037,-0.2211,-0.2098,-0.2053,-0.1994,-0.1431,-0.0989,-0.0998,-0.038,0.0,0.0,0.0,0.0,0.0,0.0,0.0,0.0,0.0,0.0,0.0,0.0,0.0,0.0,0.0045,0.009,0.0091,0.0656,0.0951,0.1007,0.1693,0.1972,0.192,0.2155,0.2558,0.3034,0.3289,0.3695,0.421,0.4395,0.4508,0.4519,0.0,0.0,0.0,0.0,0.0,0.0,0.0,0.0,0.0,0.0,0.0,0.0,0.0,0.0,0.0,0.0,0.0,0.0,0.0,0.0,0.0,0.0,-0.3043,-0.4029,-0.2457,-0.2005,-0.1889,-0.2084,-0.3527,0.0,0.0,0.0,0.0,-0.4695,0.0,-0.3739,-0.3343,-0.4049,-0.4252,-0.4048,-0.3792,-0.3553,-0.3324,-0.3106,-0.2798,0.0,0.0,0.0,0.0,0.0,0.0,0.0,-0.1408,-0.1408,-0.1408,-0.1408,-0.1408,-0.1413,0.0,0.0,0.0,0.0,0.0,0.0,0.0,0.0,-0.2755,-0.3182,-0.3366,-0.3317,-0.2783,-0.2657,-0.2601,-0.246,-0.2463,-0.2214,-0.1444,-0.1332,-0.1109,-0.0539,-0.034,-0.0238,-0.0228,-0.0091,0.0,0.0,0.0,0.0,0.0,0.0,0.0,0.0,0.0,0.0,0.0,0.0,0.0,0.0,0.0464,0.0705,0.0706,0.0821,0.114,0.1629,0.1782,0.2177,0.2666,0.2708,0.3158,0.3773,0.3834,0.4013,0.42,0.4231,0.4365,0.4519,0.0,0.0,0.0,0.0,0.0,0.0,0.0,0.0,0.0,0.0,0.0,0.0,0.0,0.0,0.0,0.0,0.0,0.0,0.0,0.0,0.0,0.0,-0.1714,-0.2421,-0.1945,-0.1277,-0.1323,0.0,0.0,0.0,0.0,0.0,0.0,-0.4208,0.0,-0.294,-0.3394,-0.3558,-0.3661,-0.3682,-0.3346,-0.3069,-0.2856,-0.2825,-0.2608,-0.2292,-0.2236,0.0,0.0,0.0,0.0,0.0,0.0,0.0,-0.1116,-0.1116,-0.1116,-0.1116,0.0,0.0,0.0,0.0,0.0,0.0,0.0,0.0,-0.2069,-0.2047,-0.2435,-0.2671,-0.2279,-0.2223,-0.2078,-0.1744,-0.1649,-0.1411,-0.0655,-0.0596,-0.0439,-0.0048,0.0,0.0,0.0,0.0,0.0,0.0,0.0,0.0,0.0,0.0,0.0,0.0,0.0,0.0,0.0,0.0,0.0135,0.0449,0.0733,0.12,0.1753,0.174,0.2091,0.2668,0.2716,0.2949,0.3245,0.3366,0.359,0.3829,0.4046,0.4083,0.4103,0.4297,0.4399,0.4519,0.0,0.0,0.0,0.0,0.0,0.0,0.0,0.0,0.0,0.0,0.0,0.0,0.0,0.0,0.0,0.0,0.0,0.0,0.0,0.0,0.0,0.0,0.0,-0.032,-0.0982,-0.0338,-0.0562,0.0,0.0,0.0,0.0,0.0,0.0,-0.3886,0.0,-0.2679,-0.3794,-0.3187,-0.3122,-0.3356,-0.2959,-0.269,-0.251,-0.2624,-0.2489,-0.2231,-0.2024,-0.195,-0.1864,-0.14,0.0,0.0,0.0,0.0,-0.0797,-0.0729,-0.0767,-0.0803,0.0,0.0,0.0,0.0,0.0,0.0,0.0,0.0,-0.1517,-0.1005,-0.1484,-0.198,-0.1828,-0.1839,-0.1612,-0.0986,-0.0912,-0.0692,-0.0099,0.0,0.0,0.0,0.0,0.0,0.0,0.0,0.0,0.0,0.0,0.0,0.0,0.0,0.0,0.0,0.0,0.0,0.0,0.009,0.0403,0.0895,0.1118,0.1786,0.2857,0.2866,0.3135,0.3588,0.3704,0.369,0.3598,0.3843,0.3799,0.3619,0.4016,0.4056,0.4053,0.4324,0.4549,0.468,0.0,0.0,0.0,0.0,0.0,0.0,0.0,0.0,0.0,0.0,0.0,0.0,0.0,0.0,0.0,0.0,0.0,0.0,0.0,0.0,0.0,0.0,0.0,-0.0053,-0.0148,-0.0063,-0.0428,0.0,0.0,0.0,0.0,0.0,0.0,-0.4032,0.0,0.0,-0.3525,-0.3213,-0.304,-0.2947,-0.2612,-0.2613,-0.2804,-0.259,-0.2511,-0.2392,-0.1981,-0.1753,-0.1576,-0.1116,-0.0767,0.0,0.0,0.0,-0.0395,-0.0049,-0.0188,-0.0468,0.0,0.0,0.0,0.0,0.0,0.0,0.0,0.0,-0.0241,0.0,-0.0734,-0.1061,-0.0407,-0.0296,-0.0241,-0.0145,-0.0141,-0.0091,0.0,0.0,0.0,0.0,0.0,0.0,0.0,0.0,0.0,0.0,0.0,0.0,0.0,0.0,0.0,0.0,0.0,0.0,0.0,0.0538,0.0806,0.0895,0.1962,0.281,0.349,0.3465,0.3506,0.3581,0.3598,0.3598,0.3585,0.3622,0.3615,0.3598,0.3782,0.3921,0.4039,0.416,0.4724,0.5378,0.0,0.0,0.0,0.0,0.0,0.0,0.0,0.0,0.0,0.0,0.0,0.0,0.0,0.0,0.0,0.0,0.0,0.0,0.0,0.0,0.0,0.0,0.0,0.0,0.0,0.0,0.0,0.0,0.0,0.0,0.0,-0.2139,-0.2791,0.0,0.0,0.0,0.0,0.0,-0.2852,-0.2768,-0.2551,-0.2535,-0.2672,-0.2642,-0.2613,-0.2536,-0.199,-0.175,-0.1599,-0.0865,-0.0373,0.0,0.0373,0.0,0.0,0.0,0.0523,0.0,0.0,0.0,0.0,0.0,0.0,0.0,0.0,0.0,0.0,0.0,-0.0256,-0.0369,-0.0047,0.0,0.0,0.0,0.0,0.0,0.0,0.0,0.0,0.0,0.0,0.0,0.0,0.0,0.0,0.0,0.0,0.0,0.0,0.0,0.0,0.0,0.0,0.0,0.0,0.0605,0.1222,0.1919,0.2768,0.335,0.3581,0.3581,0.3581,0.3581,0.3581,0.3581,0.3581,0.3581,0.3891,0.4343,0.4471,0.4841,0.5378,0.547,0.5806,0.6091,0.0,0.0,0.0,0.0,0.0,0.0,0.0,0.0,0.0,0.0,0.0,0.0,0.0,0.0,0.0,0.0,0.0,0.0,0.0,0.0,0.0,0.0,0.0299,0.0318,0.0,0.0094,0.0,0.0,0.0,0.0,-0.0924,-0.1444,-0.2035,0.0,-0.2887,0.0,0.0,0.0,0.0,0.0,0.0,-0.2445,0.0,-0.2472,-0.2432,-0.2276,-0.1733,-0.1509,-0.137,-0.0439,0.0086,0.0401,0.0744,0.0913,0.0,0.0,0.0,0.0,0.0,0.0,0.0,0.0,0.0,0.0,0.0,0.0,0.0,0.0,0.0,0.0,0.0,0.0,0.0,0.0,0.0,0.0,0.0,0.0,0.0,0.0,0.0,0.0,0.0,0.0,0.0,0.0,0.0,0.0,0.0,0.0,0.0,0.0,0.0,0.008,0.021,0.0975,0.1902,0.2943,0.3398,0.3581,0.3581,0.3581,0.3581,0.3581,0.3581,0.3667,0.3796,0.388,0.4414,0.5107,0.5362,0.5805,0.6437,0.6556,0.6696,0.6858,0.0,0.0,0.0,0.0,0.0,0.0,0.0,0.0,0.0,0.0,0.0,0.0,0.0,0.0,0.0,0.0,0.0,0.0,0.0,0.0,0.0,0.0,0.1088,0.0,0.0026,0.0364,0.0,0.0,0.0,0.0,-0.0926,-0.1643,-0.1935,-0.1881,-0.2448,-0.287,-0.3091,0.0,0.0,0.0,0.0,0.0,0.0,0.0,-0.1765,0.0,0.0,-0.077,-0.063,0.0313,0.0643,0.0735,0.1129,0.1006,0.0,0.0,0.0,0.0,0.0,0.0,0.0,0.0,0.0,0.0,0.0,0.0,0.0,0.0,0.0,0.0,0.0,0.0,0.0,0.0,0.0,0.0,0.0,0.0,0.0,0.0,0.0,0.0,0.0,0.0,0.0,0.0,0.0,0.0,0.0,0.0,0.0,0.0,0.0,0.0281,0.0838,0.2004,0.2937,0.3534,0.3578,0.3581,0.3581,0.3581,0.3581,0.3581,0.3581,0.388,0.4403,0.4716,0.5162,0.5723,0.6166,0.6345,0.6437,0.6556,0.702,0.7616,0.0,0.0,0.0,0.0,0.0,0.0,0.0,0.0,0.0,0.0,0.0,0.0,0.0,0.0,0.0,0.0,0.0,0.0,0.0,0.0,0.0109,0.0382,0.0916,0.1072,0.0714,0.0933,0.0,0.0,0.0,0.0186,0.0095,-0.0757,-0.1293,-0.1525,-0.2345,-0.2767,-0.2855,-0.2729,0.0,0.0,0.0,0.0,0.0,0.0,0.0,0.0,0.0,0.0,0.0,0.0,0.0,0.0,0.0,0.0,0.0,0.0,0.0,0.0,0.0,0.0,0.0,0.0,0.0,0.0,0.0399,0.0195,0.0,0.0,0.0,0.0,0.0,0.0,0.0,0.0,0.0,0.0,0.0,0.0,0.0,0.0,0.0,0.0104,0.0416,0.0442,0.0437,0.0437,0.0437,0.0437,0.0437,0.0445,0.0553,0.0828,0.0843,0.1127,0.1719,0.2162,0.2705,0.339,0.339,0.3483,0.3626,0.3965,0.4092,0.4136,0.453,0.4684,0.4752,0.5231,0.5992,0.687,0.7052,0.7435,0.7967,0.8013,0.8156,0.8427,0.0,0.0,0.0,0.0,0.0,0.0,0.0,0.0,0.0,0.0,0.0,0.0,0.0,0.0,0.0441,0.0038,0.0,0.0095,0.0292,0.0301,0.0447,0.0744,0.1188,0.1332,0.1162,0.1323,0.0,0.0,0.0,0.0,0.0,-0.0101,-0.0704,-0.1139,-0.2042,-0.2547,0.0,0.0,0.0,-0.2653,0.0,0.0,-0.1698,0.0,0.0,0.0,0.0,0.0,0.0,0.0,0.0,0.0,0.0,0.0,0.0,0.0,0.0,0.0,0.0,0.0,0.0,0.0,0.0,0.0877,0.0486,0.0324,0.0235,0.0303,0.0277,0.0284,0.0425,0.0437,0.0339,0.0039,0.0151,0.0189,0.0042,0.0116,0.0224,0.0239,0.0224,0.0422,0.0865,0.0916,0.0906,0.0906,0.0906,0.0906,0.0906,0.0956,0.1138,0.1377,0.1547,0.1783,0.2208,0.2398,0.2759,0.3306,0.3306,0.351,0.388,0.422,0.4522,0.4739,0.5346,0.5567,0.5504,0.5996,0.6798,0.7803,0.7897,0.8313,0.8804,0.8804,0.8804,0.8804,0.0,0.0,0.0,0.0,0.0,0.0,0.0,0.0,0.0,0.0,0.0,0.0,0.0,0.0,0.0,0.0182,0.0078,0.032,0.087,0.0917,0.0982,0.1112,0.1942,0.2044,0.1348,0.1532,0.0,0.0,0.0,0.0,0.0,0.0,-0.0234,0.0,-0.1577,-0.2214,-0.2646,0.0,-0.2683,-0.263,0.0,-0.1703,-0.1243,0.0,0.0,0.0,0.0,0.0,0.0,0.0558,0.0,0.0,0.0,0.0,0.0,0.0,0.0,0.0,0.0,0.0,0.0,0.0,0.0,0.0,0.0229,0.0,0.0773,0.0875,0.0808,0.084,0.1238,0.1305,0.1006,0.0192,0.0413,0.0566,0.0124,0.0418,0.0709,0.0711,0.0722,0.0879,0.1272,0.1313,0.1305,0.1305,0.1305,0.1305,0.1305,0.1515,0.1631,0.1631,0.2026,0.2203,0.2203,0.281,0.3152,0.3303,0.3306,0.3718,0.443,0.443,0.4783,0.5351,0.5959,0.6375,0.6687,0.699,0.7609,0.8417,0.8697,0.8804,0.8804,0.8804,0.8804,0.8804,0.0,0.0,0.0,0.0,0.0,0.0,0.0,0.0,0.0,0.0,0.0,0.0,0.0,0.0,0.2308,0.1976,0.1944,0.1732,0.1217,0.1194,0.1309,0.1602,0.1934,0.2136,0.2176,0.233,0.0,0.0,0.0,0.0,0.0,0.0,0.0,0.0,-0.0941,-0.1308,-0.1707,-0.2045,0.0,-0.2129,-0.1372,-0.0966,0.0,0.0,0.0,0.0,0.0,0.0,0.0074,0.0,0.0739,0.0874,0.0,0.0,0.0,0.0,0.0,0.0,0.1936,0.0,0.0,0.0,0.0,0.0,0.1674,0.161,0.1442,0.1239,0.1173,0.1239,0.1609,0.1473,0.1217,0.0977,0.1039,0.114,0.1143,0.1127,0.1179,0.1346,0.1221,0.1323,0.1752,0.1794,0.1811,0.1811,0.1811,0.1811,0.1811,0.2175,0.2401,0.2401,0.25,0.2568,0.2568,0.2821,0.3227,0.3809,0.3903,0.4345,0.5087,0.5524,0.5787,0.5964,0.6556,0.7057,0.7527,0.7652,0.8075,0.8697,0.8778,0.8804,0.8804,0.8804,0.8804,0.8804,0.0,0.0,0.0,0.0,0.0,0.0,0.0,0.0,0.0,0.0,0.0,0.0,0.0,0.0,0.0,0.2712,0.2712,0.2477,0.1907,0.1634,0.1652,0.1958,0.2164,0.2389,0.2579,0.2603,0.2651,0.0,0.0,0.0,0.0,0.0,0.0,0.0,0.0,0.0,0.0,0.0,0.0,0.0,-0.0967,0.0,0.0,-0.017,0.0,0.0,0.0,0.0,0.0075,0.0532,0.0924,0.0,0.0,0.0,0.0,0.0,0.0,0.0,0.0,0.0,0.0,0.0,0.0,0.0,0.2441,0.2141,0.1809,0.1873,0.1279,0.1061,0.199,0.2009,0.1873,0.1873,0.1873,0.1795,0.1501,0.1548,0.163,0.1769,0.1653,0.1784,0.225,0.2281,0.2281,0.2281,0.2281,0.2304,0.2359,0.2579,0.271,0.2774,0.2713,0.2712,0.2712,0.2832,0.3272,0.4004,0.412,0.4721,0.5696,0.605,0.6307,0.6562,0.6852,0.7295,0.7749,0.7876,0.8277,0.8804,0.8804,0.8804,0.8804,0.8804,0.8804,0.8804,0.0,0.0,0.0,0.0,0.0,0.0,0.0,0.0,0.0,0.0,0.0,0.0,0.0,0.0,0.0,0.0,0.2712,0.2712,0.2712,0.2211,0.2026,0.2272,0.255,0.2723,0.2706,0.2589,0.2575,0.0,0.0,0.0,0.0,0.0,0.0,0.0,0.0,0.0,0.0,0.0,0.0,-0.111,-0.0774,-0.0608,0.0,0.0,0.0,0.0,0.0,0.0041,0.0196,0.0706,0.1404,0.0,0.0,0.0,0.0,0.0,0.2702,0.0,0.0,0.0,0.0,0.0,0.2609,0.0,0.2714,0.2311,0.2062,0.2595,0.1422,0.0822,0.2558,0.2779,0.2716,0.2746,0.2712,0.2426,0.1586,0.1837,0.2085,0.2098,0.2088,0.2256,0.266,0.2712,0.2712,0.2712,0.2712,0.274,0.2876,0.2754,0.2744,0.2879,0.2751,0.2723,0.2706,0.2926,0.3409,0.4111,0.4311,0.5079,0.6307,0.6307,0.6562,0.6979,0.6979,0.7194,0.7533,0.7802,0.8257,0.8764,0.8798,0.8804,0.8804,0.8804,0.8804,0.8804,0.5385,0.0,0.0,0.0,0.0,0.0,0.0,0.0,0.0,0.0,0.0,0.0,0.0,0.0,0.0,0.0,0.2712,0.2712,0.2712,0.258,0.2626,0.2832,0.2737,0.274,0.2862,0.2713,0.2685,0.0,0.0,0.0,0.0,0.0,0.0,0.0,0.0,0.0,0.0,0.0,0.0,-0.0242,-0.0165,-0.0128,-0.0133,-0.0045,0.0,0.0,0.0,0.0293,0.0858,0.1645,0.2205,0.258,0.0,0.0,0.0,0.2712,0.0,0.0,0.0,0.0,0.0,0.0,0.2692,0.0,0.3089,0.2838,0.2572,0.2688,0.2415,0.2554,0.3827,0.3331,0.2808,0.3134,0.2907,0.2666,0.2597,0.259,0.2593,0.2711,0.2622,0.2609,0.2683,0.2712,0.2712,0.2712,0.2712,0.2726,0.2723,0.273,0.273,0.2723,0.273,0.274,0.2862,0.3487,0.4154,0.4903,0.5517,0.6168,0.6852,0.6852,0.6894,0.6979,0.6979,0.7194,0.7533,0.7802,0.8143,0.8484,0.8717,0.8804,0.8804,0.8804,0.8804,0.8804,0.5108,0.0,0.0,0.0,0.0,0.0,0.0,0.0,0.0,0.0,0.0,0.0,0.0,0.0,0.0,0.0,0.0,0.0,0.0,0.0,0.0,0.0,0.2876,0.2866,0.2798,0.2862,0.0,0.0,0.0,0.0,0.0,0.0,0.0,0.0,0.0,0.0,0.0,0.0,0.0,0.0,0.0,0.0,0.0,0.0,0.0,0.0,0.0,0.0557,0.1326,0.1932,0.2483,0.0,0.2846,0.2862,0.2886,0.0,0.274,0.2746,0.0,0.0,0.0,0.3282,0.3335,0.0,0.0,0.349,0.3506,0.3384,0.37,0.4043,0.4178,0.4081,0.3978,0.3876,0.3556,0.3369,0.3432,0.303,0.271,0.2784,0.2727,0.2712,0.2712,0.2712,0.2712,0.2712,0.2712,0.2712,0.2712,0.2712,0.2712,0.2712,0.2907,0.3116,0.3361,0.3974,0.4713,0.5499,0.5971,0.6477,0.6979,0.6979,0.6979,0.6979,0.6979,0.7278,0.7723,0.819,0.8663,0.9037,0.8882,0.8804,0.8857,0.9159,0.9309,0.9361,0.5049,0.0,0.0,0.0,0.0,0.0,0.0,0.0,0.0,0.0,0.0,0.0,0.0,0.0,0.0,0.0,0.0,0.0,0.0,0.0,0.0,0.0,0.291,0.3035,0.2891,0.3012,0.0,0.0,0.0,0.0,0.0,0.0,0.0,0.0,0.0,0.0,0.0,0.0,0.0,0.0,0.0,0.0,0.0,0.0,0.0,0.0045,0.0269,0.096,0.1829,0.2224,0.266,0.3107,0.3032,0.3059,0.0,0.0,0.0,0.0,0.0,0.0,0.0,0.3901,0.3993,0.3961,0.0,0.0,0.0,0.4248,0.4666,0.4896,0.4344,0.4698,0.4903,0.4426,0.4109,0.3881,0.3836,0.331,0.2924,0.2937,0.2652,0.2551,0.2827,0.2845,0.2812,0.2712,0.2779,0.2779,0.2712,0.2712,0.2712,0.2712,0.3166,0.3535,0.3832,0.451,0.5203,0.5942,0.6241,0.6562,0.6979,0.6979,0.6979,0.6979,0.6979,0.7321,0.7964,0.8611,0.9159,0.9579,0.9293,0.9159,0.9256,0.9814,1.0012,1.0064,0.4912,0.0,0.0,0.0,0.0,0.0,0.0,0.0,0.0,0.0,0.0,0.0,0.0,0.0,0.0,0.0,0.0,0.0,0.0436,0.0,0.0,0.0,0.0,0.3232,0.3473,0.0,0.0,0.0,0.0,0.0,0.0,0.0,0.0,0.0,0.1079,0.0,0.0,0.0,0.0,0.0,0.0,0.0,0.0,0.0,0.0,0.0135,0.1207,0.1957,0.2469,0.2985,0.3142,0.3082,0.3107,0.311,0.3194,0.3712,0.0,0.0,0.0,0.0,0.4231,0.4039,0.3993,0.4091,0.4409,0.0,0.4248,0.4992,0.0,0.4344,0.5023,0.0,0.0,0.4209,0.3865,0.3462,0.3245,0.347,0.3715,0.3829,0.2436,0.1979,0.327,0.3401,0.3204,0.2746,0.3035,0.3064,0.2712,0.2712,0.2712,0.2712,0.3385,0.3805,0.3965,0.5175,0.5908,0.618,0.667,0.6937,0.6979,0.6979,0.6979,0.6979,0.6979,0.7321,0.7964,0.8611,0.9026,0.9237,1.0222,1.0559,1.0568,1.0661,1.0669,1.0712,0.514,0.0,0.0,0.0,0.0,0.0,0.0,0.0,0.0,0.0,0.0,0.0,0.0,0.0,0.0,0.0,0.0,0.1084,0.0,0.0,0.0,0.0,0.2744,0.2913,0.3395,0.0,0.0,0.0,0.3155,0.0,0.0,0.0,0.0,0.0,0.1143,0.0,0.0656,0.0,0.0,0.0,0.0,0.0538,0.0493,0.0135,0.0225,0.0672,0.1873,0.2468,0.2694,0.3264,0.3439,0.3388,0.3388,0.3388,0.3493,0.3963,0.0,0.0,0.0,0.4797,0.4624,0.5139,0.5016,0.4835,0.5162,0.5125,0.5049,0.5247,0.0,0.0,0.0,0.0,0.0,0.0,0.4277,0.3917,0.4058,0.3831,0.3521,0.3278,0.2944,0.2941,0.3437,0.3499,0.3499,0.3467,0.3429,0.3331,0.3171,0.3171,0.3237,0.3438,0.4167,0.4669,0.4867,0.5812,0.641,0.6683,0.6894,0.6979,0.6979,0.6979,0.6979,0.7021,0.7363,0.7968,0.8776,0.9623,1.0241,1.0638,1.1616,1.1402,1.0532,1.113,1.1366,1.1416,0.0,0.0,0.0,0.0,0.0,0.0,0.0,0.0,0.0,0.0,0.0,0.0,0.3581,0.2057,0.0,0.0,0.0986,0.0711,0.0,0.0,0.1477,0.2549,0.2679,0.2953,0.0,0.0,0.0,0.0,0.0,0.0,0.0,0.0,0.0,0.0,0.0,0.1463,0.1343,0.0,0.0583,0.0538,0.0984,0.1163,0.1118,0.0672,0.0851,0.1518,0.2406,0.2807,0.3034,0.3442,0.3581,0.3581,0.3581,0.3581,0.369,0.4114,0.0,0.0,0.5187,0.523,0.5284,0.5832,0.5745,0.5584,0.5779,0.5832,0.5752,0.5458,0.5397,0.0,0.0,0.0,0.0,0.0,0.0,0.4376,0.4655,0.4143,0.3635,0.3324,0.3738,0.3913,0.3622,0.3736,0.3834,0.3853,0.3788,0.3624,0.3308,0.3569,0.3821,0.3993,0.4779,0.5287,0.5509,0.6324,0.6814,0.6979,0.6979,0.6979,0.6979,0.6979,0.7105,0.728,0.7704,0.8506,0.9572,1.0328,1.1001,1.1665,1.2312,1.1733,1.0716,1.174,1.208,1.2187,0.5309,0.5309,0.0,0.0,0.0,0.0,0.0,0.0,0.0,0.0,0.0,0.0,0.0,0.0,0.0,0.0,0.0,0.248,0.0174,0.2209,0.246,0.0225,0.2308,0.3551,0.0,0.0,0.0,0.0,0.0,0.0,0.0,0.0,0.0,0.0,0.0,0.2142,0.1786,0.219,0.2099,0.1741,0.1784,0.1784,0.1784,0.1741,0.2095,0.263,0.2672,0.3078,0.3578,0.3581,0.3581,0.3581,0.3581,0.3581,0.3711,0.4256,0.4817,0.5204,0.4984,0.5688,0.635,0.5549,0.5745,0.6189,0.6182,0.6176,0.6095,0.5758,0.5698,0.5611,0.5363,0.0,0.0,0.0,0.0,0.0,0.0,0.4395,0.4449,0.4706,0.4708,0.4436,0.386,0.4328,0.4335,0.3575,0.4043,0.3891,0.279,0.3765,0.4269,0.3993,0.495,0.5503,0.5515,0.6478,0.7014,0.6979,0.6979,0.6979,0.6979,0.6979,0.7321,0.787,0.787,0.8715,1.0098,1.0116,1.0704,1.1606,1.1636,1.1592,1.1635,1.2559,1.2871,1.2881,0.0,0.0,0.0,0.0,0.0,0.0,0.0,0.3581,0.0,0.0,0.3581,0.0,0.0,0.3581,0.3581,0.0,0.0,0.3265,0.2415,0.3132,0.322,0.2415,0.3176,0.3581,0.0,0.0,0.0,0.0,0.0,0.0,0.0,0.0,0.0,0.0,0.0,0.2901,0.0,0.0,0.0,0.0,0.0,0.2673,0.3055,0.2568,0.2539,0.2763,0.317,0.3442,0.3581,0.3581,0.3581,0.3581,0.3581,0.3581,0.3796,0.4744,0.513,0.546,0.6103,0.6294,0.6358,0.6429,0.6328,0.6238,0.6409,0.6478,0.6299,0.5818,0.5711,0.5625,0.5337,0.0,0.0,0.0,0.0,0.0,0.0,0.5342,0.5486,0.5341,0.4953,0.4612,0.4401,0.4805,0.4983,0.4718,0.489,0.3799,0.106,0.3508,0.506,0.5243,0.5727,0.6052,0.6246,0.7153,0.7405,0.7021,0.7405,0.7614,0.7614,0.7614,0.7904,0.8439,0.8797,0.9377,1.0149,1.0484,1.0829,1.1162,1.1489,1.143,1.124,1.2119,1.2451,1.249,0.6045,0.0,0.0,0.0,0.0,0.0,0.0,0.0,0.0,0.0,0.3581,0.0,0.3581,0.0,0.3581,0.0,0.3581,0.3581,0.3581,0.3581,0.3581,0.3581,0.3581,0.3581,0.0,0.0,0.0,0.0,0.0,0.3605,0.0,0.0,0.0,0.0,0.0,0.3469,0.3098,0.2965,0.2738,0.0,0.0,0.3379,0.3731,0.3266,0.3072,0.3078,0.3442,0.3612,0.3646,0.3598,0.3649,0.3717,0.3612,0.3791,0.4145,0.4937,0.5368,0.5755,0.6359,0.6496,0.652,0.6683,0.6605,0.6512,0.6706,0.6747,0.6607,0.6126,0.6025,0.5939,0.5678,0.0,0.0,0.0,0.0,0.0,0.0,0.6055,0.6163,0.5955,0.5491,0.5145,0.4997,0.5209,0.5311,0.5302,0.489,0.3841,0.1989,0.4066,0.5477,0.5833,0.6075,0.6406,0.6887,0.7577,0.7787,0.7599,0.7987,0.8201,0.8201,0.8201,0.848,0.8999,0.9359,0.9817,1.0382,1.0579,1.0869,1.1143,1.1155,1.1025,1.0996,1.1728,1.209,1.2248,0.6852,0.0,0.0,0.0,0.5048,0.0,0.3581,0.3581,0.3581,0.0,0.3581,0.3581,0.3581,0.3581,0.3581,0.3581,0.3581,0.3581,0.3581,0.3581,0.3581,0.3581,0.3581,0.3581,0.3581,0.0,0.0,0.0,0.0,0.0,0.0,0.0,0.0,0.0,0.3792,0.0,0.3795,0.3785,0.3785,0.3795,0.3792,0.3795,0.3802,0.3802,0.3721,0.3602,0.3602,0.369,0.3782,0.3691,0.3828,0.401,0.3767,0.418,0.4764,0.4941,0.5584,0.618,0.5869,0.6434,0.694,0.6392,0.6691,0.7068,0.7068,0.7054,0.6961,0.6673,0.6639,0.6539,0.625,0.5961,0.0,0.0,0.0,0.0,0.0,0.0,0.6629,0.6629,0.6369,0.6035,0.5601,0.5403,0.5305,0.5289,0.4267,0.4126,0.5255,0.5322,0.547,0.5773,0.6098,0.6645,0.744,0.782,0.8234,0.8716,0.8716,0.8756,0.8756,0.8756,0.9039,0.9558,0.9558,1.0059,1.085,1.0449,1.0802,1.1459,1.0605,1.0527,1.0937,1.143,1.1846,1.2248,0.4487,0.4487,0.4487,0.0,0.3972,0.3581,0.3581,0.3581,0.3581,0.3581,0.3581,0.3581,0.3581,0.3581,0.3581,0.3581,0.3581,0.3581,0.3581,0.3581,0.3581,0.3581,0.3581,0.3581,0.3581,0.3581,0.3605,0.3656,0.0,0.0,0.3636,0.0,0.0,0.0,0.0,0.0,0.3849,0.3697,0.3721,0.3853,0.3809,0.386,0.3961,0.3961,0.3938,0.3907,0.3907,0.3931,0.4003,0.4538,0.4637,0.4589,0.5043,0.5272,0.554,0.6008,0.651,0.6953,0.7267,0.7516,0.7649,0.7511,0.7563,0.7649,0.7649,0.7522,0.7268,0.6974,0.7048,0.6989,0.6317,0.6449,0.6699,0.0,0.0,0.0,0.0,0.0,0.8356,0.8356,0.8039,0.74,0.6331,0.4884,0.4357,0.5242,0.537,0.5392,0.5295,0.5772,0.6336,0.7032,0.7063,0.7501,0.8367,0.8867,0.8958,0.8716,0.9119,0.9279,0.9279,0.9279,0.9597,1.0079,1.0079,1.0224,1.0439,1.0332,1.041,1.0626,1.041,1.0352,1.0537,1.1332,1.1846,1.2248,0.3581,0.3581,0.0,0.3581,0.3581,0.3581,0.3581,0.3581,0.3581,0.3581,0.3581,0.3581,0.3581,0.3581,0.3581,0.3581,0.3581,0.3581,0.3581,0.3581,0.3581,0.3581,0.3581,0.3581,0.3581,0.3581,0.3581,0.3581,0.0,0.0,0.4017,0.0,0.0,0.0,0.0,0.391,0.3934,0.3822,0.3836,0.3944,0.3978,0.4043,0.0,0.407,0.407,0.4076,0.4192,0.4374,0.4607,0.4973,0.5282,0.5602,0.5839,0.6134,0.6459,0.6895,0.7217,0.7561,0.7993,0.8029,0.7882,0.7882,0.7882,0.7882,0.7882,0.8022,0.802,0.7622,0.7915,0.8038,0.7401,0.7409,0.7549,0.0,0.0,0.0,0.0,0.0,0.8936,0.875,0.8682,0.8239,0.7131,0.578,0.5269,0.5945,0.6068,0.6006,0.582,0.6351,0.6914,0.7512,0.766,0.8179,0.9039,0.9359,0.9478,0.9399,0.9725,0.9843,0.9843,0.9843,1.0,1.0322,1.0505,1.0611,1.0611,1.0611,1.0611,1.0611,1.0611,1.0611,1.073,1.1634,1.1933,1.2031,0.368,0.3632,0.0,0.0,0.3581,0.3605,0.3683,0.3629,0.3581,0.3581,0.3581,0.3581,0.3581,0.3581,0.3581,0.3581,0.3581,0.3581,0.3581,0.3581,0.3581,0.3581,0.3581,0.3581,0.3581,0.3581,0.3581,0.0,0.0,0.0,0.0,0.0,0.0,0.0,0.0,0.0,0.0,0.4076,0.4089,0.42,0.4192,0.4197,0.4197,0.4217,0.4224,0.4241,0.4419,0.4861,0.534,0.5321,0.5939,0.6691,0.6536,0.695,0.7443,0.7589,0.7809,0.8103,0.8363,0.8243,0.7995,0.7995,0.7995,0.7995,0.7995,0.8521,0.8866,0.8498,0.8973,0.9283,0.8848,0.8571,0.8399,0.0,0.0,0.917,0.917,0.917,0.0,0.8594,0.8818,0.0,0.7861,0.7299,0.6993,0.694,0.6488,0.6329,0.6585,0.6997,0.7408,0.7759,0.8165,0.8781,0.9597,0.9597,0.9843,1.0283,1.0283,1.0283,1.0283,1.0351,1.0361,1.0322,1.0867,1.1057,1.1019,1.1094,1.1084,1.1084,1.1084,1.1084,1.1233,1.2146,1.2212,1.1933,0.4264,0.0,0.0,0.0,0.3581,0.3791,0.4285,0.3942,0.3581,0.3581,0.3581,0.3581,0.3581,0.3581,0.3581,0.3581,0.3581,0.3581,0.3581,0.3581,0.3581,0.3581,0.3581,0.3581,0.3581,0.3581,0.3581,0.3581,0.3581,0.0,0.0,0.0,0.0,0.0,0.0,0.0,0.5053,0.4418,0.4594,0.5263,0.4476,0.4197,0.4207,0.4379,0.4426,0.4429,0.4508,0.4933,0.5545,0.6163,0.6718,0.7292,0.7816,0.8123,0.8219,0.8219,0.8453,0.8664,0.8717,0.8697,0.8651,0.8651,0.8651,0.8651,0.8651,0.9005,0.9279,0.9219,0.9624,0.9784,0.9291,0.9226,0.9274,0.9289,0.9744,1.0059,1.0059,1.0059,0.9902,0.0,0.917,0.8809,0.8311,0.7834,0.7418,0.7077,0.6961,0.695,0.7006,0.7619,0.8229,0.8729,0.9095,0.9564,1.0157,1.0157,1.0205,1.0283,1.0283,1.0283,1.0322,1.0687,1.0687,1.0361,1.1244,1.1394,1.1019,1.1468,1.1664,1.1664,1.1664,1.1664,1.1764,1.2731,1.2987,1.3017,0.4398,0.0,0.0,0.0,0.3581,0.3676,0.401,0.3811,0.3581,0.3581,0.3581,0.3581,0.3581,0.3581,0.3581,0.3581,0.3581,0.3581,0.3581,0.3581,0.3581,0.3581,0.3581,0.3581,0.3581,0.3581,0.3581,0.3581,0.3581,0.0,0.0,0.0,0.0,0.0,0.0,0.4857,0.0,0.4485,0.4465,0.4836,0.4478,0.4358,0.4365,0.4491,0.4736,0.5003,0.5003,0.571,0.6632,0.6588,0.7264,0.8119,0.8494,0.8597,0.8597,0.8597,0.8697,0.8804,0.8804,0.8804,0.8804,0.8804,0.8804,0.8804,0.8804,0.9497,1.0071,0.9848,1.0525,1.0966,1.0264,1.0034,0.9922,0.9922,1.0118,1.0283,1.0283,1.0088,0.9785,0.932,0.0,0.875,0.8105,0.845,0.8357,0.7479,0.7706,0.7897,0.789,0.8558,0.9056,0.929,0.9705,1.004,1.0283,1.0283,1.0283,1.0283,1.0283,1.0428,1.0687,1.0905,1.1019,1.1105,1.1847,1.2029,1.1799,1.2066,1.2029,1.1811,1.2066,1.2174,1.2303,1.3288,1.3855,1.4121,0.4426,0.4137,0.0,0.3602,0.3683,0.3815,0.3815,0.3663,0.3581,0.3581,0.3581,0.3581,0.3581,0.3581,0.3581,0.3581,0.3581,0.3581,0.3581,0.3581,0.3581,0.3581,0.3581,0.3581,0.3581,0.3643,0.3643,0.3581,0.4339,0.4684,0.4743,0.0,0.0,0.0,0.0,0.5246,0.5118,0.4539,0.4343,0.446,0.447,0.457,0.4736,0.4736,0.5113,0.576,0.576,0.6578,0.7616,0.702,0.7723,0.8804,0.8804,0.8804,0.8804,0.8804,0.8804,0.8804,0.8804,0.8804,0.8804,0.8804,0.8804,0.8804,0.8804,0.9814,1.0689,1.0409,1.1246,1.1846,1.1055,1.0566,1.0283,1.0283,1.0283,1.0283,1.0283,0.9912,0.9473,0.9155,0.913,0.8888,0.8158,0.9161,0.9478,0.8541,0.8682,0.8825,0.8809,0.9412,0.982,0.9903,1.025,1.0467,1.0467,1.0351,1.0351,1.0467,1.0467,1.0687,1.1169,1.1271,1.1505,1.1811,1.2389,1.265,1.265,1.265,1.2437,1.215,1.2663,1.2854,1.2974,1.4026,1.4714,1.506,0.4508,0.0,0.4261,0.3673,0.4072,0.4433,0.4433,0.3973,0.3581,0.3581,0.3581,0.3581,0.3581,0.3581,0.3581,0.3581,0.3581,0.3581,0.3581,0.3581,0.3581,0.3581,0.3581,0.3581,0.3581,0.3843,0.3846,0.3581,0.6767,0.832,0.8326,0.0,0.0,0.5968,0.5514,0.5319,0.5263,0.47,0.482,0.5303,0.4728,0.4842,0.5433,0.5433,0.5873,0.648,0.648,0.702,0.767,0.7616,0.8156,0.8804,0.8804,0.8804,0.8804,0.8804,0.8804,0.8804,0.8804,0.8804,0.8804,0.8804,0.8804,0.8804,0.8804,0.9814,1.0805,1.0772,1.1248,1.1518,1.0996,1.0566,1.0283,1.0283,1.0283,1.0283,1.0283,0.9912,0.958,0.9551,0.9588,0.9574,0.9444,1.0013,1.059,1.1023,1.0096,0.9508,0.9502,1.0029,1.0496,1.086,1.0922,1.0943,1.0943,1.0505,1.0505,1.0943,1.0943,1.1207,1.1737,1.2174,1.2138,1.1847,1.2756,1.3129,1.3129,1.3129,1.3094,1.3132,1.37,1.3973,1.4099,1.5153,1.5567,1.5706,0.4519,0.4519,0.4443,0.4203,0.4357,0.4519,0.4519,0.4007,0.3581,0.3581,0.3581,0.3581,0.3581,0.3581,0.3581,0.3581,0.3581,0.3581,0.3581,0.3581,0.3581,0.3581,0.3748,0.3843,0.3843,0.3904,0.4432,0.5417,0.6786,0.7943,0.8804,0.8804,0.8368,0.7599,0.6866,0.6617,0.6723,0.6063,0.5932,0.615,0.5878,0.5932,0.6145,0.6145,0.6637,0.7235,0.7235,0.7723,0.8374,0.8374,0.854,0.8804,0.8804,0.8804,0.8804,0.8804,0.8804,0.8804,0.8804,0.8804,0.891,0.9309,0.9413,0.9413,0.9413,1.0415,1.1266,1.0864,1.1399,1.1826,1.1377,1.0947,1.0576,1.0322,1.0283,1.0283,1.0283,1.0163,1.0062,1.0095,1.0156,1.0164,1.0151,1.0839,1.1394,1.1664,1.0968,1.0675,1.1154,1.1226,1.1458,1.196,1.1658,1.1647,1.1971,1.1459,1.1282,1.1468,1.1468,1.1726,1.2222,1.2389,1.2544,1.265,1.306,1.3198,1.3198,1.3198,1.3421,1.3783,1.4009,1.4286,1.4676,1.5404,1.5693,1.5781,0.4519,0.4519,0.4519,0.4519,0.4519,0.4519,0.4519,0.4158,0.3778,0.3602,0.3581,0.3581,0.3581,0.3581,0.3581,0.3581,0.3581,0.3581,0.3581,0.3581,0.3755,0.41,0.4302,0.4402,0.448,0.4605,0.517,0.6299,0.6656,0.7509,0.8804,0.8804,0.8804,0.8752,0.8103,0.7723,0.7563,0.6912,0.6588,0.6588,0.6588,0.675,0.6912,0.6912,0.7402,0.8049,0.8049,0.8374,0.8804,0.8804,0.8804,0.8804,0.8804,0.8804,0.8857,0.9061,0.9106,0.9159,0.9309,0.9361,0.951,0.9961,1.0115,1.0115,1.0115,1.0965,1.1715,1.1475,1.1824,1.209,1.1685,1.1201,1.0771,1.0352,1.0283,1.0283,1.0283,1.0348,1.0443,1.0548,1.0766,1.0921,1.1049,1.1751,1.2241,1.2283,1.1943,1.1885,1.23,1.2244,1.23,1.2544,1.2213,1.227,1.2812,1.2133,1.1963,1.2247,1.2062,1.2246,1.272,1.272,1.2908,1.3198,1.3198,1.3198,1.3198,1.3198,1.3559,1.4097,1.4261,1.4664,1.5178,1.5731,1.5932,1.5994,0.4519,0.4519,0.4519,0.4519,0.4519,0.4519,0.4519,0.4512,0.4295,0.3656,0.3581,0.3581,0.3581,0.3581,0.3581,0.3581,0.3581,0.3581,0.3581,0.3581,0.41,0.5221,0.5276,0.5396,0.5682,0.6121,0.6115,0.5599,0.6818,0.7889,0.8804,0.8804,0.8804,0.8804,0.8804,0.8268,0.7348,0.6804,0.6588,0.6588,0.6588,0.702,0.767,0.767,0.8156,0.8804,0.8804,0.8804,0.8804,0.8804,0.8804,0.8804,0.8804,0.8804,0.8903,0.9614,0.9762,0.9909,1.0618,1.0762,1.0762,1.0762,1.0762,1.0762,1.0762,1.1316,1.1972,1.2715,1.2529,1.209,1.1685,1.1201,1.0771,1.0352,1.0283,1.0283,1.0283,1.0348,1.0513,1.084,1.142,1.1943,1.2327,1.2872,1.3185,1.3198,1.3185,1.3022,1.2623,1.2975,1.2978,1.252,1.2508,1.2758,1.3281,1.2281,1.2281,1.3269,1.2746,1.272,1.3198,1.3198,1.3198,1.3198,1.3198,1.3198,1.3198,1.3198,1.3559,1.4135,1.4689,1.5203,1.5756,1.6308,1.6509,1.6509,0.4519,0.4519,0.4519,0.4519,0.4519,0.4519,0.4519,0.4172,0.3842,0.3605,0.3581,0.3581,0.3581,0.3581,0.3581,0.3581,0.3581,0.3581,0.3581,0.3581,0.4651,0.6973,0.7048,0.6792,0.6185,0.6436,0.6685,0.7029,0.7405,0.7996,0.8804,0.8804,0.8804,0.8804,0.8804,0.8646,0.8321,0.8156,0.8103,0.8103,0.8103,0.8262,0.8427,0.8427,0.8593,0.8804,0.8804,0.8804,0.8804,0.8804,0.8804,0.8804,0.8804,0.8804,0.8857,0.9061,0.9465,0.9865,1.0064,1.0466,1.0914,1.1366,1.1466,1.1466,1.1466,1.1665,1.2021,1.2774,1.2529,1.209,1.1685,1.1201,1.0771,1.0352,1.0283,1.0283,1.0283,1.0903,1.1394,1.1492,1.2258,1.2787,1.2935,1.3098,1.3511,1.4299,1.4035,1.359,1.3022,1.3146,1.3326,1.3592,1.3198,1.3272,1.3853,1.3142,1.2923,1.3236,1.3064,1.3047,1.3198,1.3198,1.3198,1.3198,1.3198,1.3446,1.3821,1.3821,1.4374,1.523,1.5367,1.6,1.6788,1.6574,1.671,1.6993,0.4519,0.4519,0.4519,0.4519,0.4519,0.4443,0.4216,0.3866,0.3581,0.3581,0.436,0.4874,0.4874,0.4874,0.453,0.3667,0.4403,0.453,0.3667,0.4403,0.5904,0.8125,0.8257,0.7866,0.7081,0.7308,0.767,0.8103,0.8103,0.8374,0.8804,0.8804,0.8804,0.8804,0.8804,0.8804,0.8804,0.8804,0.8804,0.8804,0.8804,0.8804,0.8804,0.8804,0.8804,0.8804,0.8804,0.8804,0.8804,0.8804,0.8804,0.8804,0.8804,0.8956,0.9211,0.9458,0.9865,1.0269,1.0838,1.1283,1.1683,1.2089,1.2187,1.2187,1.2187,1.2187,1.2344,1.2822,1.2529,1.209,1.1685,1.137,1.1005,1.0391,1.0621,1.0802,1.0572,1.1431,1.2066,1.2066,1.272,1.3198,1.3198,1.3198,1.3486,1.4212,1.3935,1.3596,1.3223,1.3421,1.3609,1.3783,1.3421,1.3496,1.4072,1.3509,1.3298,1.3546,1.3546,1.3433,1.321,1.3446,1.3421,1.3198,1.3198,1.3546,1.4085,1.4085,1.4841,1.5991,1.5991,1.665,1.7518,1.6952,1.7086,1.7518,0.4519,0.4519,0.4519,0.4519,0.468,0.459,0.4042,0.3869,0.384,0.384,0.569,0.6979,0.6979,0.6979,0.6161,0.4016,0.5776,0.6118,0.3972,0.5886,0.7642,0.8758,0.8804,0.8637,0.827,0.8624,0.8804,0.8804,0.8804,0.8804,0.8804,0.8804,0.8804,0.8804,0.8804,0.8804,0.8804,0.8804,0.8804,0.8804,0.8804,0.8804,0.8804,0.8804,0.8804,0.8804,0.8804,0.8804,0.8811,0.8857,0.8857,0.8857,0.891,0.9361,0.9961,1.0568,1.0821,1.1174,1.2461,1.2871,1.2881,1.2881,1.2881,1.2881,1.2881,1.2881,1.2881,1.2881,1.2529,1.209,1.1728,1.1663,1.1406,1.0537,1.118,1.1627,1.1132,1.1872,1.2508,1.2508,1.2908,1.3198,1.3198,1.3198,1.3223,1.3248,1.3248,1.3248,1.3248,1.3808,1.3833,1.3223,1.3198,1.3483,1.4022,1.3483,1.3483,1.4035,1.4035,1.3722,1.3223,1.3795,1.3709,1.3198,1.3232,1.3594,1.4208,1.4245,1.5181,1.6625,1.6625,1.7232,1.8021,1.7419,1.7556,1.8007,0.4519,0.4519,0.4519,0.4519,0.6308,0.7741,0.7605,0.677,0.6209,0.6209,0.6677,0.6979,0.6979,0.6979,0.6761,0.6246,0.6677,0.6768,0.6252,0.7544,0.851,0.8798,0.8804,0.8764,0.8671,0.8758,0.8804,0.8804,0.8804,0.8804,0.8804,0.8804,0.8804,0.8804,0.8804,0.8804,0.8804,0.8804,0.8804,0.8804,0.8804,0.8804,0.8804,0.8804,0.8804,0.8804,0.8804,0.8804,0.8857,0.9413,0.9562,0.9666,1.0167,1.0415,1.0517,1.0167,1.0779,1.1642,1.1981,1.2452,1.2881,1.2881,1.2881,1.2881,1.2881,1.2881,1.2881,1.2881,1.2529,1.2181,1.2144,1.1902,1.1644,1.148,1.1627,1.1774,1.1627,1.2138,1.2508,1.2508,1.2908,1.3198,1.3198,1.3198,1.3408,1.3858,1.3896,1.3896,1.3896,1.4009,1.3833,1.3223,1.3198,1.3261,1.3421,1.3261,1.3261,1.3421,1.3421,1.3323,1.3198,1.3336,1.3323,1.3232,1.3581,1.4345,1.5349,1.5663,1.6549,1.7728,1.7728,1.7807,1.7945,1.789,1.7921,1.7959,0.4519,0.4519,0.4519,0.4519,0.6902,0.8804,0.8804,0.8257,0.7642,0.7052,0.6979,0.6979,0.6979,0.6979,0.6979,0.6979,0.7522,0.7602,0.7018,0.8143,0.8804,0.8804,0.8804,0.8804,0.8804,0.8804,0.8804,0.8804,0.8804,0.8804,0.8804,0.8804,0.8804,0.8804,0.8804,0.8804,0.8804,0.8804,0.8804,0.8804,0.8804,0.8804,0.8804,0.8804,0.8804,0.8857,0.9159,0.9263,0.9361,1.0012,1.0261,1.0312,1.0669,1.1015,1.1166,1.0813,1.1225,1.1882,1.2187,1.2608,1.2881,1.2881,1.2881,1.2881,1.2881,1.2881,1.2881,1.2881,1.2529,1.2217,1.2306,1.2139,1.1986,1.1815,1.2174,1.2365,1.2138,1.2508,1.2838,1.2838,1.3047,1.3198,1.3198,1.3198,1.3323,1.3647,1.3946,1.4085,1.4085,1.4085,1.3833,1.3223,1.3198,1.3198,1.3198,1.3198,1.3198,1.3198,1.3483,1.3483,1.321,1.3693,1.3758,1.356,1.4313,1.5134,1.6001,1.6528,1.7451,1.8458,1.8458,1.8564,1.8695,1.8446,1.8505,1.8695,0.4519,0.4519,0.4625,0.5062,0.7176,0.8804,0.8804,0.8804,0.8377,0.7181,0.6979,0.6979,0.6979,0.6979,0.6979,0.6979,0.7949,0.8183,0.7348,0.8243,0.8804,0.8804,0.8804,0.8804,0.8804,0.8804,0.8804,0.8804,0.8804,0.8804,0.8804,0.8804,0.8804,0.8804,0.8804,0.8804,0.8804,0.8804,0.8804,0.8804,0.8804,0.8804,0.8804,0.891,0.8956,0.9061,0.971,0.9961,1.0064,1.0712,1.0965,1.0965,1.1074,1.1525,1.1972,1.1972,1.1972,1.208,1.2715,1.2881,1.2881,1.2881,1.2881,1.2881,1.2881,1.2881,1.2881,1.2881,1.2683,1.2423,1.2402,1.2519,1.2524,1.2187,1.2733,1.3084,1.2794,1.2992,1.3198,1.3198,1.3198,1.3198,1.3198,1.3198,1.3235,1.3311,1.3821,1.4123,1.4211,1.4123,1.3871,1.3336,1.3248,1.3198,1.3198,1.3198,1.3198,1.321,1.3709,1.3793,1.3474,1.4341,1.457,1.4346,1.5316,1.6055,1.6619,1.7245,1.8095,1.9006,1.9006,1.9222,1.948,1.9016,1.9151,1.9465,0.4519,0.4519,0.5277,0.7717,0.848,0.8804,0.8804,0.8804,0.8377,0.7181,0.6979,0.6979,0.6979,0.6979,0.6979,0.6979,0.7151,0.7649,0.8477,0.8704,0.8804,0.8804,0.8804,0.8804,0.8804,0.8804,0.8804,0.8804,0.8804,0.8804,0.8804,0.8804,0.8804,0.8804,0.8804,0.8804,0.8804,0.8804,0.8804,0.8804,0.8804,0.8804,0.8857,0.9413,0.9666,0.971,1.0415,1.0669,1.0771,1.1416,1.1665,1.1774,1.2353,1.2666,1.2715,1.2715,1.2715,1.2764,1.2881,1.2881,1.2881,1.2881,1.2881,1.2881,1.2881,1.2881,1.2881,1.2881,1.3226,1.3401,1.2956,1.3367,1.3741,1.3742,1.3428,1.3361,1.3775,1.3486,1.3198,1.3198,1.3198,1.3198,1.3198,1.3198,1.3421,1.3921,1.4035,1.4286,1.4752,1.4337,1.4047,1.3959,1.3483,1.3198,1.3198,1.3198,1.3198,1.3198,1.3286,1.3756,1.4559,1.4721,1.5254,1.6125,1.6616,1.7222,1.7848,1.8282,1.8901,1.9566,1.9566,1.9275,1.8912,1.9361,1.9241,1.8927,0.4519,0.4519,0.4897,0.6253,0.647,0.7015,0.8586,0.8804,0.8377,0.7181,0.6979,0.6979,0.6979,0.6979,0.6979,0.6979,0.7609,0.8216,0.8771,0.8804,0.8804,0.8804,0.8804,0.8804,0.8804,0.8804,0.8804,0.8804,0.8804,0.8804,0.8804,0.8804,0.8804,0.8804,0.8804,0.8804,0.8804,0.8804,0.8804,0.8857,0.9211,0.9361,0.9413,1.0064,1.0364,1.0415,1.1116,1.1366,1.1466,1.2138,1.2393,1.2452,1.2774,1.2881,1.2881,1.2881,1.2881,1.2881,1.2881,1.2881,1.2881,1.2881,1.2881,1.2881,1.2881,1.2881,1.2881,1.2881,1.3372,1.3623,1.3094,1.3558,1.4017,1.4099,1.3871,1.386,1.445,1.4274,1.4111,1.4111,1.4111,1.4111,1.4111,1.4111,1.4224,1.4513,1.4802,1.4953,1.4916,1.4676,1.4525,1.4525,1.3672,1.3198,1.3198,1.3198,1.3348,1.3672,1.3941,1.4302,1.4774,1.5627,1.6143,1.6346,1.7476,1.7924,1.7939,1.8857,1.9211,1.9196,1.9555,1.9495,1.9271,1.957,1.9495,1.9271,0.4519,0.4519,0.4519,0.4519,0.5062,0.6253,0.848,0.8804,0.8377,0.7181,0.6979,0.7128,0.7408,0.7188,0.6979,0.6979,0.8116,0.8804,0.8804,0.8804,0.8804,0.8804,0.8804,0.8804,0.8804,0.8804,0.8804,0.8804,0.8804,0.8804,0.8804,0.8804,0.8804,0.8811,0.8956,0.9008,0.9061,0.9211,0.9263,0.9316,0.9814,1.0012,1.0115,1.0762,1.1015,1.1116,1.1823,1.208,1.2138,1.2715,1.2881,1.2881,1.2881,1.2881,1.2881,1.2881,1.2881,1.2881,1.2881,1.2881,1.2881,1.2881,1.2881,1.2881,1.2881,1.3017,1.3104,1.3104,1.3695,1.4056,1.3502,1.3947,1.4405,1.4463,1.4362,1.4475,1.5029,1.4991,1.4916,1.4916,1.4916,1.4916,1.4916,1.4916,1.4966,1.5092,1.5454,1.5567,1.5306,1.5128,1.5017,1.4866,1.3896,1.3393,1.3357,1.3484,1.3868,1.442,1.4822,1.5096,1.535,1.6578,1.7001,1.6824,1.8308,1.8642,1.822,1.9271,1.939,1.8986,1.9495,1.969,1.969,1.969,1.969,1.969,0.4519,0.4519,0.4519,0.4519,0.6686,0.8533,0.8752,0.8804,0.8377,0.7181,0.6979,0.7442,0.8557,0.7682,0.6979,0.6979,0.8116,0.8804,0.8804,0.8804,0.8804,0.8804,0.8804,0.8804,0.8804,0.8804,0.8804,0.8804,0.8804,0.8804,0.8804,0.8804,0.8804,0.8804,0.9465,0.9718,0.9762,1.0364,1.0661,1.0661,1.072,1.072,1.0813,1.1466,1.1715,1.1814,1.2559,1.2822,1.2832,1.2881,1.2881,1.2881,1.2881,1.2881,1.2881,1.2881,1.2881,1.2881,1.2881,1.2881,1.2881,1.2881,1.2881,1.2881,1.2881,1.3324,1.3732,1.3732,1.4675,1.5289,1.4759,1.5167,1.5577,1.558,1.518,1.5041,1.5555,1.5191,1.4916,1.4916,1.4916,1.4916,1.4916,1.4916,1.513,1.5593,1.5668,1.5906,1.6371,1.5906,1.5349,1.4725,1.4277,1.3983,1.3835,1.4396,1.4916,1.5399,1.5555,1.6167,1.7107,1.7223,1.7791,1.8728,1.9339,1.9585,1.9555,1.9645,1.966,1.9615,1.966,1.969,1.969,1.969,1.969,1.969,0.7176,0.5714,0.5062,0.6848,0.8043,0.8804,0.8804,0.8804,0.8644,0.819,0.813,0.8303,0.8758,0.8404,0.813,0.813,0.8544,0.8804,0.8804,0.8804,0.8804,0.8804,0.8804,0.8804,0.8804,0.8804,0.8804,0.8804,0.8804,0.8804,0.8804,0.8804,0.8804,0.8804,0.951,0.9814,0.9865,1.0517,1.0813,1.0864,1.1266,1.1416,1.1516,1.2187,1.2501,1.251,1.2774,1.2881,1.2881,1.2881,1.2881,1.2881,1.2881,1.2881,1.2881,1.2881,1.2881,1.2881,1.2881,1.2881,1.2881,1.2881,1.2881,1.3017,1.3372,1.3647,1.3909,1.4283,1.5005,1.5445,1.4903,1.5269,1.5693,1.5693,1.5517,1.5567,1.6132,1.6019,1.5894,1.5894,1.5894,1.5894,1.5894,1.5894,1.5982,1.6183,1.6208,1.6145,1.6019,1.548,1.5248,1.5316,1.5157,1.4882,1.4409,1.5048,1.5438,1.5619,1.6346,1.6862,1.7208,1.8286,1.8789,1.883,1.9424,1.945,1.9106,1.951,1.9435,1.9121,1.9525,1.969,1.969,1.969,1.969,1.969,0.8804,0.723,0.647,0.848,0.8804,0.8804,0.8804,0.8804,0.8804,0.8804,0.8804,0.8804,0.8804,0.8804,0.8804,0.8804,0.8804,0.8804,0.8804,0.8804,0.8804,0.8804,0.8804,0.8804,0.8804,0.8804,0.8804,0.8804,0.8804,0.8804,0.8804,0.8804,0.891,0.9159,0.9814,1.021,1.0466,1.1174,1.1484,1.1484,1.1981,1.2129,1.2187,1.2715,1.2881,1.2881,1.2881,1.2881,1.2881,1.2881,1.2881,1.2881,1.2881,1.2881,1.2881,1.2881,1.2881,1.2881,1.2881,1.2881,1.2881,1.2881,1.3065,1.3286,1.3732,1.4086,1.4503,1.4926,1.5454,1.5768,1.5417,1.5652,1.5957,1.5957,1.5957,1.6082,1.6471,1.6522,1.6522,1.6522,1.6522,1.6522,1.6522,1.6522,1.6522,1.6522,1.6522,1.6358,1.5969,1.5429,1.5389,1.586,1.6072,1.5958,1.5448,1.5945,1.6273,1.6415,1.7159,1.7598,1.7726,1.8891,1.9205,1.8806,1.9445,1.9435,1.9046,1.9495,1.942,1.9061,1.951,1.969,1.969,1.969,1.969,1.969,0.8804,0.8804,0.8804,0.8804,0.8804,0.8804,0.8804,0.8804,0.8804,0.8804,0.8804,0.8804,0.8804,0.8804,0.8804,0.8804,0.8804,0.8804,0.8804,0.8804,0.8804,0.8804,0.8804,0.8804,0.8804,0.8804,0.8804,0.8804,0.8804,0.8804,0.8804,0.8811,0.9159,0.9814,1.0517,1.1166,1.1864,1.2608,1.2881,1.2881,1.2881,1.2881,1.2881,1.2881,1.2881,1.2881,1.2881,1.2881,1.2881,1.2881,1.2881,1.2881,1.2881,1.2881,1.2881,1.2881,1.2881,1.2881,1.2881,1.2881,1.2929,1.2929,1.3372,1.3815,1.3815,1.4721,1.5588,1.5588,1.6095,1.6522,1.6522,1.6522,1.6522,1.6522,1.6522,1.6522,1.6522,1.6522,1.6522,1.6522,1.6522,1.6522,1.6522,1.6522,1.6522,1.6522,1.6522,1.6522,1.6522,1.5994,1.5883,1.631,1.6981,1.7246,1.7133,1.7246,1.7506,1.7885,1.8047,1.838,1.8893,1.8893,1.8893,1.893,1.9479,1.969,1.969,1.969,1.969,1.969,1.969,1.969,1.969,1.969,1.969,1.969,0.8804,0.8804,0.8804,0.8804,0.8804,0.8804,0.8804,0.8804,0.8804,0.8804,0.8804,0.8804,0.8804,0.8804,0.8804,0.8804,0.8804,0.8804,0.8804,0.8804,0.8804,0.8804,0.8804,0.8804,0.8804,0.8804,0.8804,0.8804,0.8804,0.8804,0.8804,0.9263,0.9614,0.9865,1.1015,1.1616,1.1864,1.2608,1.2881,1.2881,1.2881,1.2881,1.2881,1.2881,1.2881,1.2881,1.2881,1.2881,1.2881,1.2881,1.2881,1.2881,1.2881,1.2881,1.2881,1.2881,1.2881,1.2881,1.2881,1.319,1.3552,1.3552,1.3684,1.4003,1.4858,1.5365,1.572,1.6139,1.638,1.6522,1.6522,1.6522,1.6522,1.6522,1.6522,1.6522,1.6522,1.6522,1.6522,1.6522,1.6522,1.6522,1.6522,1.6522,1.6522,1.6522,1.6522,1.668,1.7034,1.6907,1.721,1.8114,1.8342,1.8418,1.838,1.8418,1.829,1.8061,1.845,1.8727,1.8893,1.9281,1.9442,1.9479,1.9639,1.969,1.969,1.969,1.969,1.969,1.969,1.969,1.969,1.969,1.969,1.969,0.8804,0.8804,0.8804,0.8804,0.8804,0.8804,0.8804,0.8804,0.8804,0.8804,0.8804,0.8804,0.8804,0.8804,0.8804,0.8804,0.8804,0.8804,0.8804,0.8804,0.8962,0.9361,0.9517,0.9361,0.8804,0.8804,0.8804,0.8804,0.8804,0.9008,0.9361,0.9762,1.0167,1.0618,1.1466,1.1972,1.2236,1.2715,1.2881,1.2881,1.2881,1.2881,1.2881,1.2881,1.2881,1.2881,1.2881,1.2881,1.2881,1.2881,1.2881,1.2881,1.2881,1.2881,1.2978,1.32,1.3238,1.3286,1.3573,1.3884,1.419,1.4457,1.4503,1.4675,1.5443,1.5776,1.6051,1.6423,1.6522,1.6522,1.6522,1.671,1.6861,1.6861,1.6861,1.6861,1.6861,1.666,1.6522,1.6522,1.6522,1.6522,1.6522,1.6522,1.6595,1.6795,1.6837,1.7034,1.7585,1.7626,1.7907,1.8574,1.8779,1.8893,1.8893,1.9357,1.919,1.8419,1.8727,1.9006,1.9244,1.9566,1.969,1.969,1.969,1.969,1.969,1.969,1.969,1.969,1.969,1.969,1.969,1.969,1.969,1.969,0.8804,0.8804,0.8804,0.8804,0.8804,0.8804,0.8804,0.8804,0.8804,0.8804,0.8804,0.8804,0.8804,0.8804,0.8804,0.8804,0.9015,0.9166,0.9166,0.9166,0.9569,1.0423,1.0771,1.0372,0.9061,0.9113,0.9166,0.9166,0.9166,0.9621,1.0415,1.0372,1.0864,1.1814,1.1864,1.2295,1.2881,1.2881,1.2881,1.2881,1.2881,1.2881,1.2881,1.2881,1.2881,1.2881,1.2881,1.2881,1.2881,1.2881,1.2929,1.2968,1.2968,1.3017,1.3152,1.3732,1.3862,1.4003,1.456,1.4744,1.4926,1.5454,1.5632,1.5676,1.5676,1.6095,1.6534,1.6584,1.6597,1.6609,1.666,1.7099,1.7451,1.7451,1.7451,1.7451,1.7451,1.703,1.6703,1.6672,1.6703,1.6746,1.6746,1.6789,1.7033,1.7512,1.75,1.7706,1.8228,1.8212,1.8185,1.8263,1.8727,1.8968,1.8968,2.0123,2.0152,1.9055,1.9113,1.9353,1.9779,1.9839,1.9794,1.969,1.975,1.975,1.969,1.969,1.969,1.969,1.969,1.969,1.969,1.969,1.969,1.969,0.8804,0.8804,0.8804,0.8804,0.8804,0.8804,0.8804,0.8804,0.8804,0.8804,0.8804,0.8804,0.8804,0.8804,0.8804,0.8804,1.0795,1.2008,1.2008,1.2008,1.2116,1.2314,1.2412,1.195,1.0931,1.1651,1.2008,1.2008,1.2008,1.2116,1.2314,1.1534,1.1425,1.1814,1.2393,1.2764,1.2881,1.2881,1.2881,1.2881,1.2881,1.2881,1.2881,1.2881,1.2881,1.2881,1.2881,1.2881,1.2881,1.2881,1.319,1.3589,1.3589,1.392,1.434,1.4468,1.4514,1.4514,1.4652,1.505,1.5454,1.5588,1.5952,1.6281,1.6281,1.6423,1.6647,1.7099,1.7187,1.7325,1.7752,1.794,1.8028,1.8028,1.8028,1.8028,1.8028,1.8325,1.8371,1.7874,1.8248,1.8524,1.8524,1.9024,1.9384,1.9457,1.9003,1.8933,1.9498,1.9012,1.893,1.9332,1.9479,1.953,1.953,2.0288,2.0557,2.0332,2.0837,2.0861,2.0513,2.1021,2.0677,1.972,2.0258,2.0183,1.969,1.969,1.969,1.969,1.969,1.969,1.969,1.969,1.969,1.969,0.8804,0.8804,0.8804,0.8804,0.8804,0.8804,0.8804,0.8804,0.8804,0.8804,0.8804,0.8804,0.8804,0.9984,1.0744,1.0744,1.2058,1.2881,1.2881,1.2881,1.2881,1.2881,1.2881,1.2676,1.2157,1.2676,1.2881,1.2881,1.2881,1.2881,1.2881,1.2412,1.2206,1.2344,1.2715,1.2881,1.2881,1.2881,1.2881,1.2881,1.2881,1.2881,1.2881,1.2881,1.2881,1.2881,1.2881,1.2881,1.2881,1.2881,1.3286,1.3815,1.3815,1.419,1.4755,1.505,1.5152,1.5244,1.583,1.623,1.6516,1.6773,1.7074,1.725,1.6986,1.6936,1.7087,1.7652,1.7777,1.7865,1.8154,1.8417,1.8593,1.8593,1.8869,1.9046,1.9046,1.9375,1.9445,1.9158,1.9369,1.9578,1.9578,1.9899,2.0216,2.0472,2.016,2.0182,2.0709,2.0426,2.0351,2.0647,2.0647,2.0647,2.0647,2.1321,2.165,2.165,2.168,2.1515,2.1201,2.1545,2.1306,2.0662,2.1021,2.0797,2.0183,2.0183,1.9989,1.969,1.969,1.969,1.972,2.0049,2.0183,2.0124,0.8804,0.8804,0.8804,0.8804,0.8804,0.8804,0.8804,0.8804,0.8804,0.8804,0.8804,0.8962,0.9472,1.1551,1.2881,1.2881,1.2881,1.2881,1.2881,1.2881,1.2881,1.2881,1.2881,1.2881,1.2881,1.2881,1.2881,1.2881,1.2881,1.2881,1.2881,1.2881,1.2881,1.2881,1.2881,1.2881,1.2881,1.2881,1.2881,1.2881,1.2881,1.2881,1.2929,1.3017,1.3065,1.3065,1.3152,1.32,1.32,1.32,1.361,1.4097,1.4097,1.4503,1.5107,1.5599,1.5836,1.6106,1.7147,1.7451,1.7626,1.8091,1.8204,1.8103,1.7739,1.7589,1.7677,1.8229,1.8417,1.8505,1.8606,1.9083,1.9447,1.9447,2.0008,2.0422,2.0422,2.0699,2.0789,2.0559,2.0536,2.0609,2.0707,2.071,2.0869,2.1307,2.1262,2.1383,2.1859,2.1754,2.1695,2.1695,2.1695,2.1695,2.1695,2.2338,2.2727,2.2873,2.2398,2.2084,2.1859,2.1979,2.1904,2.171,2.1814,2.1485,2.0887,2.0887,2.0483,1.9869,1.9989,1.9959,1.9966,2.0557,2.088,2.0864,0.8804,0.8804,0.8804,0.8804,0.8804,0.8804,0.8804,0.8804,0.8804,0.8804,0.8804,0.9725,1.2067,1.2676,1.2881,1.2881,1.2881,1.2881,1.2881,1.2881,1.2881,1.2881,1.2881,1.2881,1.2881,1.2881,1.2881,1.2881,1.2881,1.2881,1.2881,1.2881,1.2881,1.2881,1.2881,1.2881,1.2881,1.2881,1.2881,1.2881,1.2881,1.2881,1.2978,1.3457,1.3684,1.3732,1.4294,1.4479,1.4479,1.4479,1.4869,1.5365,1.5365,1.5776,1.6281,1.6337,1.6729,1.7185,1.7363,1.7727,1.8116,1.8191,1.8204,1.8304,1.8719,1.843,1.8242,1.8807,1.9271,1.9736,2.029,2.079,2.1154,2.1154,2.1768,2.2273,2.2273,2.3306,2.3669,2.2491,2.2352,2.2575,2.3152,2.3171,2.3154,2.324,2.2748,2.2491,2.2547,2.2009,2.1695,2.1695,2.1695,2.1695,2.1695,2.2338,2.2936,2.3475,2.3984,2.364,2.2562,2.3101,2.2742,2.1724,2.2293,2.2173,2.156,2.156,2.1171,2.0632,2.1201,2.1081,2.061,2.1048,2.1514,2.1913,0.8804,0.8804,0.8804,0.8804,0.8804,0.8804,0.8804,0.8804,0.9368,1.0897,1.1099,1.1551,1.2774,1.2881,1.2881,1.2881,1.2881,1.2881,1.2881,1.2881,1.2881,1.2881,1.2881,1.2881,1.2881,1.2881,1.2881,1.2881,1.2881,1.2881,1.2881,1.2881,1.2881,1.2881,1.2881,1.2881,1.2881,1.2881,1.2881,1.2929,1.3286,1.342,1.3467,1.4061,1.4283,1.4329,1.4606,1.4698,1.4698,1.4698,1.5096,1.5588,1.5588,1.6272,1.6999,1.6999,1.74,1.7903,1.8216,1.8694,1.9171,1.9497,1.9585,1.9648,1.9886,1.9761,1.956,1.9472,1.9648,1.9974,2.0618,2.092,2.1129,2.1443,2.243,2.3173,2.3173,2.4333,2.4993,2.4399,2.4005,2.3878,2.4158,2.3866,2.3595,2.3595,2.3699,2.3759,2.3759,2.349,2.3505,2.3864,2.352,2.3505,2.3879,2.4163,2.4448,2.4717,2.5031,2.4866,2.4328,2.4597,2.4418,2.3879,2.3804,2.3385,2.2742,2.2383,2.2028,2.169,2.198,2.2324,2.2639,2.2449,2.2757,2.3221]}]]